     2              OBSERVATION DATA    GPS                 RINEX VERSION / TYPE
ASRINEXO V2.4.4 UX USGS 18-JAN-95 12:53                     PGM / RUN BY / DATE
                                                            COMMENT
Original Marker Name: moll Molly_94_USGS                    COMMENT
Campaign Name: usgs.salton.profile                          COMMENT
4-Character Station Name: MOLL                              COMMENT
6-Character Antenna Code: ASHL12                            COMMENT
Vertical Measurement Point: BBE                             COMMENT
Vertical Offset to Rinex Ref. Point: 0.0595                 COMMENT
Radial Measurement Point: EGP                               COMMENT
Radial Offset to Rinex Ref. Point: 0.1424                   COMMENT
Antenna Height from Field Measurement: 1.2240 m             COMMENT
Additional Antenna Identification Info.:                    COMMENT
Original Ashtech L1/L2                                      COMMENT
Original XYZ: -2351994.5600 -4791092.2700 3481093.2000      COMMENT
New XYZ position is based on association with SCEC monument COMMENT
E1D0H7A7+0011. Position of that monument is believed to be  COMMENT
valid to within 1 m horizontally; vertical accuracy         COMMENT
should be no worse than 3-times this value.                 COMMENT
                                                            COMMENT
Revised Rinex header created by UCSD GPS archive for        COMMENT
GSAC on 25-May-2001 (2001:145) 15:15:43 GMT                 COMMENT
For assistance contact dagnew@ucsd.edu or hjohnson@ucsd.edu COMMENT
                                                            COMMENT
MOLL MOLLY_94_USGS                                          MARKER NAME
CHS US GEOLOGICAL SURVEY                                    OBSERVER / AGENCY
597 ASHTECH Z-XII3 1E00                                     REC # / TYPE / VERS
598 ASHTECH GEODETIC L                                      ANT # / TYPE
 -2352041.6796 -4790827.6298  3481138.2961                  APPROX POSITION XYZ
        1.1562        0.0000        0.0000                  ANTENNA: DELTA H/E/N
     1     1     0                                          WAVELENGTH FACT L1/2
     5    C1    L1    L2    P1    P2                        # / TYPES OF OBSERV
    30                                                      INTERVAL
  1995     1     8    15    32    0.000000                  TIME OF FIRST OBS
  1995     1     8    22    35   30.000000                  TIME OF LAST OBS
                                                            END OF HEADER
 95  1  8 15 32  0.0000000  0  7  1 21 31 28 25 23  9
  19056017.488      -36796.91959    -23293.76159  19056015.9884   19056022.7114
  19599871.313      -24642.83759    -14429.91159  19599870.8684   19599877.0594
  21530923.790      -14622.34119
  21379293.495       30357.86019
  22370051.938     -126212.08919
  21931555.782       15041.56519
  23401336.656       29610.86519     17763.61059                  23401346.3734
 95  1  8 15 32 30.0000000  0  7  1 21 31 28 25 23  9
  19049301.320      -72090.97849    -50795.61449  19049300.5614   19049306.7784
  19594520.779      -52752.20449    -36333.35149  19594520.5824   19594527.3134
  21527522.071      -32506.54359    -23091.14659  21527523.1204   21527528.8344
  21385766.840       64396.95559     44855.45659  21385767.7484   21385775.2854
  22343186.598     -267375.39559   -183977.41059  22343183.4144   22343190.2144
  21934541.355       30749.15059     20980.12359  21934539.0004   21934547.3764
  23406248.509       55398.15159     37857.55849  23406246.4624   23406253.7354
 95  1  8 15 33  0.0000000  0  8  1 21 31 28 25 23  9 15
  20541399.888     -108163.00849    -78903.67949  20541398.6634   20541404.8584
  21087957.910      -81826.83949    -58988.91449  21087951.6754   21087957.1544
  23022948.675      -51092.33249    -37573.59449  23022949.5104   23022954.9384
  22891031.148       97510.86049     70658.45749  22891031.4864   22891036.4894
  23815080.867     -409649.39249   -294840.20749  23815073.6614   23815078.8604
  23436279.463       45357.28349     32363.02849  23436280.4714   23436286.2394
  24909960.814       80370.83649     57316.78749  24909961.5624   24909967.4344
  24759759.402     -358292.87159   -242636.58659  24759759.7154   24759766.0094
 95  1  8 15 33 30.0000000  0  8  1 21 31 28 25 23  9 15
  20534378.739     -145044.68249   -107642.64149  20534380.2314   20534386.4644
  21082228.059     -111907.60049    -82428.46349  21082227.2404   21082232.8374
  23019271.201      -70431.85849    -52643.37449  23019269.0214   23019275.2664
  22897153.398      129684.91949     95729.15149  22897154.1174   22897160.7744
  23787773.703     -553103.01249   -406622.20949  23787775.0354   23787780.0584
  23438851.281       58833.11149     42863.67149  23438845.7934   23438852.6584
  24914558.961      104525.42549     76138.54549  24914558.1124   24914564.7784
  24730874.761     -510106.50349   -360932.95849  24730870.7424   24730876.8714
 95  1  8 15 34  0.0000000  0  8  1 21 31 28 25 23  9 15
  20527233.053     -182614.04949   -136917.46449  20527231.0934   20527237.3574
  21076332.590     -142905.90349   -106582.98649  21076327.9674   21076333.9354
  23015471.658      -90418.55049    -68217.44949  23015466.8274   23015471.3294
  22903124.166      161023.85849    120149.06949  22903118.0534   22903123.8904
  23760276.156     -697609.25549   -519224.43549  23760276.5964   23760281.5334
  23441218.838       71280.49949     52562.91049  23441212.4124   23441220.8654
  24919019.656      127972.99449     94409.36749  24919019.8134   24919026.3474
  24701775.226     -663005.11349   -480074.74749  24701775.0454   24701781.2064
 95  1  8 15 34 30.0000000  0  8  1 21 31 28 25 23  9 15
  20519970.172     -220787.77749   -166663.22249  20519966.9304   20519973.0544
  21070264.166     -174777.80249   -131418.23149  21070262.7724   21070269.5744
  23011557.541     -110988.28549    -84245.83049  23011551.3014   23011557.0294
  22908938.059      191593.97449    143969.91349  22908934.8434   22908940.4464
  23732590.398     -843105.10149   -632597.77449  23732589.6374   23732594.9714
  23443403.868       82758.93849     61507.03349  23443397.6114   23443404.1634
  24923366.024      150777.06349    112178.77249  24923359.6694   24923365.5634
  24672488.549     -816917.44349   -600006.45149  24672486.6364   24672493.0804
 95  1  8 15 35  0.0000000  0  8  1 21 31 28 25 23  9 15
  20512599.495     -259520.78549   -196844.77949  20512596.4714   20512602.4744
  21064038.649     -207498.25249   -156914.68049  21064036.4854   21064042.5354
  23007531.830     -132109.60749   -100704.02049  23007532.3254   23007538.4694
  22914615.910      221424.88649    167214.75949  22914612.4464   22914618.7594
  23704717.609     -989573.33749   -746728.82349  23704717.3564   23704722.6734
  23445401.074       93277.41349     69703.23549  23445400.4004   23445405.7524
  24927580.165      172959.72849    129463.96449  24927580.5804   24927587.0294
  24643011.328     -971808.12149   -720700.49049  24643011.9304   24643017.8644
 95  1  8 15 35 30.0000000  0  8  1 21 31 28 25 23  9 15
  20505132.013     -298757.70649   -227419.00349  20505129.7804   20505135.9004
  21057661.518     -241011.26249   -183028.71449  21057658.9764   21057664.7144
  23003417.531     -153721.20049   -117544.22849  23003420.2104   23003425.3824
  22920160.113      250571.73449    189926.56249  22920157.4534   22920163.2724
  23676665.987    -1136951.83849   -861569.17649  23676672.5974   23676677.8254
  23447229.623      102875.06649     77181.93149  23447227.0674   23447232.4534
  24931692.004      194571.55449    146304.32649  24931693.6244   24931699.1814
  24613361.225    -1127616.84049   -842109.89649  24613362.4924   24613368.5764
 95  1  8 15 36  0.0000000  0  8  1 21 31 28 25 23  9 15
  20497576.468     -338438.84649   -258339.36849  20497578.6204   20497584.9784
  21051146.816     -275233.38749   -209695.30349  21051146.9874   21051153.0144
  22999229.270     -175749.92849   -134709.49149  22999227.9314   22999233.6264
  22925587.594      279093.86549    212151.57849  22925586.4664   22925591.3624
  23648474.258    -1285167.46849   -977061.85049  23648467.8034   23648472.8044
  23448898.167      111626.37449     84001.13249  23448891.7724   23448899.1414
  24935705.249      215655.76049    162733.54349  24935705.6504   24935711.2894
  24583557.483    -1284278.62749   -964184.03649  24583549.9954   24583556.8684
 95  1  8 15 36 30.0000000  0  7  1 21 31 28 25 23 15
  20489953.578     -378521.87249   -289572.88949  20489951.2364   20489957.5794
  21044510.600     -310104.77349   -236867.81349  21044510.8884   21044517.4314
  22994970.329     -198160.67049   -152172.42149  22994963.5724   22994969.1164
  22930901.415      307031.46749    233921.09049  22930903.0324   22930908.8874
  23620109.926    -1434157.61749  -1093158.04849  23620115.8924   23620121.5194
  23450408.590      119581.90949     90200.16749  23450404.5904   23450411.7094
  24553583.364    -1441747.76049  -1086887.29849  24553585.2114   24553591.7484
 95  1  8 15 37  0.0000000  0  7  1 21 31 28 25 23 15
  20482262.174     -418947.45349   -321073.34049  20482258.6304   20482264.7244
  21037764.973     -345560.15749   -264495.38549  21037764.1884   21037770.3144
  22990649.030     -220883.00749   -169878.14049  22990639.4684   22990644.9084
  22936122.109      334445.69349    255282.80149  22936120.0354   22936125.1364
  23591634.731    -1583848.63049  -1209800.36349  23591630.4414   23591636.2954
  23451779.963      126816.40549     95837.40749  23451781.9514   23451789.7054
  24523486.568    -1599957.64249  -1210167.76549  24523479.0564   24523485.3194
 95  1  8 15 37 30.0000000  0  7  1 21 31 28 25 23 15
  20474511.402     -459674.87349   -352808.99049  20474508.5644   20474514.4954
  21030921.938     -381557.91849   -292545.58849  21030914.3304   21030920.2474
  22986268.272     -243865.57149   -187786.64149  22986265.5654   22986271.6854
  22941245.692      361374.51449    276266.24249  22941244.7084   22941249.3244
  23563025.835    -1734190.24149  -1326949.62949  23563021.4814   23563026.7924
  23453037.371      133392.22449    100961.37349  23453034.2464   23453040.3024
  24493250.080    -1758864.80749  -1333991.54649  24493238.2114   24493246.8044
 95  1  8 15 38  0.0000000  0  7  1 21 31 28 25 23 15
  20466707.926     -500674.87449   -384757.03949  20466706.3034   20466712.5234
  21023964.214     -418067.69349   -320994.76349  21023966.6414   21023972.9344
  22981851.423     -267071.14349   -205868.92649  22981850.4574   22981856.1694
  22946286.736      387853.26949    296898.98349  22946282.5614   22946288.5024
  23534300.341    -1885145.91249  -1444577.38249  23534295.6814   23534301.6214
  23454172.499      139372.87449    105621.62149  23454171.9744   23454177.5224
  24462876.274    -1918428.87749  -1458327.08849  24462875.0084   24462882.3474
 95  1  8 15 38 30.0000000  0  7  1 21 31 28 25 23 15
  20458856.212     -541936.75549   -416909.15449  20458854.5874   20458860.4884
  21016920.902     -455082.97049   -349837.84049  21016922.5914   21016928.8334
  22977394.632     -290466.87149   -224099.38849  22977397.8624   22977403.4454
  22951243.108      413896.92049    317192.70449  22951239.4944   22951244.0184
  23505455.557    -2036701.69449  -1562672.76249  23505454.8514   23505460.8214
  23455204.897      144778.89049    109834.07949  23455200.2534   23455207.3384
  24432398.343    -2078628.85649  -1583158.22649  24432392.8764   24432398.5484
 95  1  8 15 39  0.0000000  0  7  1 21 31 28 25 23 15
  20450956.753     -583455.59949   -449261.49749  20450953.9124   20450959.7554
  21009791.914     -492576.07749   -379053.24249  21009788.3984   21009793.6064
  22972918.078     -314020.31549   -242452.72749  22972916.4614   22972921.3874
  22956112.131      439521.44949    337159.84049  22956114.7164   22956120.5944
  23476500.801    -2188848.47549  -1681228.66049  23476502.8164   23476508.7444
  23456127.933      149619.08449    113605.64049  23456121.5584   23456129.5004
  24401786.649    -2239443.46749  -1708468.34649  24401789.3404   24401795.5074
 95  1  8 15 39 30.0000000  0  7  1 21 31 28 25 23 15
  20443008.124     -625219.11149   -481804.49149  20443006.5694   20443012.5054
  21002572.572     -530525.83349   -408624.48349  21002566.8694   21002572.5964
  22968407.474     -337723.62249   -260922.84749  22968405.6874   22968411.4304
  22960913.087      464741.68249    356811.94949  22960914.0214   22960920.3294
  23447440.828    -2341564.78449  -1800228.31649  23447441.9584   23447448.0904
  23456942.235      153900.86949    116942.06049  23456935.8094   23456943.7224
  24371068.909    -2400852.00849  -1834241.27949  24371074.5424   24371080.5914
 95  1  8 15 40  0.0000000  0  7  1 21 31 28 25 23 15
  20435015.495     -667210.77749   -514525.26449  20435015.9234   20435021.8114
  20995260.100     -568922.66149   -438544.09349  20995259.6374   20995266.4004
  22963870.363     -361580.71549   -279512.80349  22963865.7394   22963871.3884
  22965638.614      489569.98349    376158.66249  22965638.4934   22965644.3024
  23418284.151    -2494827.45049  -1919653.70149  23418276.6454   23418282.7224
  23457637.032      157626.50049    119845.12249  23457644.7424   23457652.8484
  24340253.143    -2562836.76649  -1960463.17849  24340249.7954   24340255.9364
 95  1  8 15 40 30.0000000  0  7  1 21 31 28 25 23 15
  20426990.442     -709391.31949   -547393.21349  20426988.9814   20426994.9944
  20987871.041     -607742.74149   -468793.50849  20987872.9174   20987878.5294
  22959299.757     -385579.65949   -298213.30349  22959299.4824   22959303.9284
  22970292.420      514028.28649    395217.06449  22970292.7994   22970299.0214
  23389007.132    -2648608.71349  -2039483.20349  23389013.3814   23389018.7464
  23458254.487      160806.16449    122322.73949  23458249.5194   23458257.5534
  24309321.127    -2725369.96949  -2087112.44049  24309320.8364   24309326.3464
 95  1  8 15 41  0.0000000  0  7  1 21 31 28 25 23 15
  20418932.732     -751752.71649   -580402.08649  20418927.9714   20418934.0704
  20980407.789     -646966.74349   -499357.66249  20980408.4904   20980414.4254
  22954704.763     -409728.59549   -317030.67449  22954703.2734   22954708.8724
  22974880.017      538127.74249    413995.82349  22974879.1934   22974884.6974
  23359659.006    -2802892.08049  -2159703.97349  23359654.4934   23359659.1484
  23458751.357      163448.57849    124381.73649  23458752.6124   23458760.2424
  24278289.959    -2888435.20949  -2214176.30149  24278290.4544   24278296.5394
 95  1  8 15 41 30.0000000  0  7  1 21 31 28 25 23 15
  20410837.910     -794280.93949   -613540.96149  20410835.2264   20410841.2134
  20972870.214     -686584.05249   -530228.29649  20972869.4594   20972875.5774
  22950080.063     -434025.32249   -335963.19749  22950080.1864   22950086.0954
  22979396.182      561875.48549    432500.53449  22979397.6554   22979403.6644
  23330207.090    -2957653.66749  -2280297.38949  23330204.1484   23330208.9554
  23459155.983      165578.21449    126041.16649  23459158.6594   23459165.7124
  24247162.672    -3052019.84249  -2341644.89349  24247161.3844   24247167.5854
 95  1  8 15 42  0.0000000  0  7  1 21 31 28 25 23 15
  20402713.331     -836969.55149   -646804.80649  20402711.7074   20402718.0134
  20965266.965     -726566.47049   -561383.42449  20965261.4764   20965267.1224
  22945431.478     -458457.53849   -355001.30749  22945431.7424   22945436.6724
  22983854.194      585279.69349    450737.56549  22983851.5724   22983858.2134
  23300667.418    -3112886.47249  -2401257.94249  23300664.5014   23300669.5454
  23459473.428      167219.58749    127320.09649  23459470.3494   23459477.3174
  24215939.198    -3216109.68149  -2469507.12249  24215935.9114   24215942.3734
 95  1  8 15 42 30.0000000  0  7  1 21 31 28 25 23 15
  20394554.658     -879830.04649   -680202.59149  20394555.7284   20394561.7064
  20957585.825     -766899.68549   -592811.91249  20957586.3694   20957592.0434
  22940759.556     -483009.11749   -374132.42049  22940758.7404   22940764.8364
  22988245.993      608341.95149    468708.14449  22988240.3464   22988245.8294
  23271039.939    -3268584.89049  -2522581.31549  23271036.1784   23271041.1724
  23459688.709      168379.19049    128223.66849  23459691.8034   23459697.3194
  24184616.359    -3380697.41149  -2597757.30049  24184615.8654   24184622.1164
 95  1  8 15 43  0.0000000  0  7  1 21 31 28 25 23 15
  20386367.436     -922856.61049   -713729.78249  20386367.8704   20386373.9164
  20949849.156     -807567.74549   -624501.31249  20949847.3144   20949853.2764
  22936070.863     -507661.04249   -393341.72149  22936067.9644   22936072.8014
  22992564.745      631067.76949    486416.53349  22992564.9584   22992571.1734
  23241328.156    -3424719.91449  -2644244.92149  23241324.3254   23241329.5524
  23459827.104      169076.37549    128766.90349  23459824.2854   23459830.6874
  24153201.043    -3545772.02449  -2726386.87849  24153203.5384   24153209.7384
 95  1  8 15 43 30.0000000  0  7  1 21 31 28 25 23 15
  20378156.576     -966029.50749   -747370.99249  20378152.5344   20378158.6694
  20942044.813     -848573.94749   -656454.20149  20942044.2364   20942049.8894
  22931359.589     -532409.29449   -412626.08449  22931358.2984   22931363.6994
  22996822.024      653462.64249    503867.06449  22996826.7164   22996832.5364
  23211535.968    -3581273.26449  -2766234.49049  23211533.5584   23211538.2064
  23459872.555      169321.15249    128957.61849  23459870.4164   23459878.1174
  24121697.541    -3711322.51249  -2855387.25149  24121699.7584   24121706.6014
 95  1  8 15 44  0.0000000  0  7  1 21 31 28 25 23 15
  20369917.059    -1009309.79849   -781095.89449  20369916.3514   20369922.4774
  20934180.388     -889903.92349   -688659.38049  20934178.8324   20934184.9584
  22926635.558     -557227.92849   -431965.30549  22926635.1344   22926640.8564
  23001031.346      675553.88749    521080.98149  23001030.1864   23001036.9304
  23181667.125    -3738218.82349  -2888529.68949  23181667.4974   23181672.6664
  23459841.139      169148.30849    128822.90449  23459837.6224   23459843.7404
  24090111.271    -3877316.27649  -2984733.01549  24090112.2204   24090118.7394
 95  1  8 15 44 30.0000000  0  7  1 21 31 28 25 23 15
  20361670.328    -1052654.14849   -814870.71149  20361668.4604   20361674.3474
  20926260.205     -931540.34549   -721103.34849  20926256.1494   20926262.2114
  22921906.682     -582086.39949   -451335.54849  22921905.7064   22921910.9724
  23005183.843      697369.77449    538080.33749  23005182.2534   23005188.7084
  23151737.270    -3895512.10549  -3011095.85049  23151735.7504   23151740.3934
  23459732.539      168598.21849    128394.25349  23459732.8654   23459740.0724
  24058442.346    -4043719.02649  -3114397.50649  24058447.0674   24058453.3234
 95  1  8 15 45  0.0000000  0  7  1 21 31 28 25 23 15
  20353414.254    -1096033.68849   -848672.94849  20353413.8044   20353419.5074
  20918281.444     -973456.10049   -753764.97849  20918279.8644   20918285.5844
  22917168.983     -606970.20249   -470725.54249  22917169.8934   22917175.2964
  23009290.449      718927.89849    554878.84349  23009284.4274   23009289.9724
  23121738.524    -4053139.87049  -3133922.62749  23121739.2594   23121744.8404
  23459564.244      167694.07549    127689.68249  23459561.9544   23459568.1104
  24026711.374    -4210507.16849  -3244362.32249  24026707.7154   24026714.7034
 95  1  8 15 45 30.0000000  0  7  1 21 31 28 25 23 15
  20345159.089    -1139424.59649   -882484.04249  20345156.5104   20345162.5854
  20910251.831    -1015620.54649   -786620.39549  20910256.0444   20910261.9724
  22912437.059     -631856.64949   -490117.59149  22912434.3124   22912439.5344
  23013340.500      740252.50249    571495.37749  23013341.8674   23013348.6054
  23091683.171    -4211095.87249  -3257005.19649  23091681.3564   23091687.0324
  23459328.316      166449.98149    126720.20749  23459324.1594   23459328.7514
  23994893.465    -4377651.21949  -3374604.44449  23994901.6714   23994907.4024
 95  1  8 15 46  0.0000000  0  7  1 21 31 28 25 23 15
  20336901.629    -1182808.94449   -916290.02949  20336900.7174   20336906.8474
  20902192.946    -1058009.88749   -819651.05649  20902189.9494   20902195.4464
  22907709.141     -656721.28849   -509492.66049  22907702.8924   22907708.2514
  23017360.892      761361.03349    587943.55749  23017359.4134   23017364.5864
  23061559.721    -4369366.64149  -3380333.05349  23061563.4974   23061569.2234
  23459028.794      164880.79649    125497.45149  23459025.5844   23459032.0674
  23963026.559    -4545127.69049  -3505105.59249  23963031.6264   23963038.0854
 95  1  8 15 46 30.0000000  0  7  1 21 31 28 25 23 15
  20328650.046    -1226173.13749   -950080.31149  20328648.9084   20328654.8154
  20894086.948    -1100591.81249   -852831.77549  20894087.0294   20894093.1794
  22902978.484     -681556.34749   -528844.66349  22902976.9794   22902982.5974
  23021338.947      782271.18849    604237.16349  23021338.5694   23021343.9924
  23031389.943    -4527932.00149  -3503890.45449  23031389.3504   23031395.0284
  23458664.047      162986.59849    124021.41449  23458664.5434   23458673.4924
  23931107.202    -4712913.30049  -3635847.62349  23931103.4094   23931110.0954
 95  1  8 15 46 59.9990000  0  7  1 21 31 28 25 23 15
  20320400.840    -1269510.65449   -983849.80649  20320402.0514   20320407.8624
  20885949.153    -1143346.41149   -886147.05649  20885950.7714   20885957.0464
  22898256.667     -706362.76249   -548174.36049  22898256.3964   22898261.3724
  23025285.054      802993.60049    620384.47149  23025281.3304   23025288.1554
  23001163.225    -4686770.57649  -3627660.74549  23001163.6874   23001169.2584
  23458239.964      160757.06849    122284.04549  23458241.3534   23458247.7584
  23899121.396    -4880985.60549  -3766813.04149  23899121.2954   23899127.1014
 95  1  8 15 47 29.9990000  0  7  1 21 31 28 25 23 15
  20312162.771    -1312825.46849  -1017601.61049  20312159.4944   20312165.5324
  20877778.477    -1186289.15049   -919608.93949  20877779.0724   20877785.1374
  22893541.979     -731140.56149   -567481.74749  22893541.3704   22893547.1784
  23029188.867      823534.90449    636390.65349  23029190.7414   23029197.0454
  22970893.083    -4845862.91149  -3751628.78449  22970889.4064   22970894.8824
  23457758.583      158204.63649    120295.11449  23457755.9324   23457763.2704
  23867087.652    -5049344.82349  -3898002.06849  23867083.0634   23867089.5254
 95  1  8 15 47 59.9990000  0  7  1 21 31 28 25 23 15
  20303923.475    -1356124.14449  -1051340.84049  20303920.0684   20303926.0284
  20869573.696    -1229417.32749   -953215.31849  20869572.2924   20869578.2454
  22888827.372     -755886.80549   -586764.54949  22888831.9384   22888838.2534
  23033064.780      843894.88849    652255.54949  23033065.0024   23033070.8144
  22940572.573    -5005174.67149  -3875767.80749  22940573.3724   22940579.0914
  23457210.822      155346.43549    118067.86049  23457211.2174   23457219.5374
  23834999.470    -5217978.70849  -4029405.09949  23834993.5424   23834999.5954
 95  1  8 15 48 29.9990000  0  7  1 21 31 28 25 23 15
  20295680.663    -1399415.69349  -1085074.51649  20295681.6994   20295687.8064
  20861334.672    -1272711.38749   -986950.95149  20861333.4444   20861339.4864
  22884135.732     -780593.09349   -606016.22849  22884130.8774   22884136.1874
  23036909.309      864069.15649    667975.71549  23036903.8624   23036910.7834
  22910217.008    -5164699.49349  -4000072.83449  22910216.3814   22910222.3174
  23456612.453      152192.89949    115610.53849  23456611.3124   23456619.6604
  23802855.207    -5386886.29749  -4161021.42449  23802851.3484   23802857.4704
 95  1  8 15 48 59.9990000  0  7  1 21 31 28 25 23 15
  20287445.283    -1442714.75149  -1118814.04249  20287442.2354   20287448.5704
  20853058.606    -1316189.88749  -1020830.30649  20853060.0784   20853065.6654
  22879436.965     -805250.79149   -625230.03149  22879438.7654   22879444.0174
  23040701.286      884037.08349    683535.09849  23040703.5884   23040709.6094
  22879818.613    -5324447.92649  -4124552.10349  22879817.2394   22879822.9714
  23455959.931      148742.07649    112921.56049  23455954.8974   23455962.4774
  23770656.896    -5556082.72349  -4292862.80149  23770653.8524   23770660.5954
 95  1  8 15 49 29.9990000  0  7  1 21 31 28 25 23 15
  20279201.756    -1486012.15749  -1152552.28249  20279203.1094   20279208.9984
  20844751.781    -1359850.25449  -1054851.37649  20844751.5144   20844758.0114
  22874767.662     -829837.66449   -644388.65149  22874760.1384   22874765.0834
  23044462.491      903793.73249    698929.86649  23044463.3714   23044470.3044
  22849375.854    -5484427.66249  -4249211.62749  22849373.7294   22849379.4164
  23455254.133      145009.78349    110013.22849  23455245.2224   23455252.5994
  23738400.190    -5725566.71849  -4424928.21849  23738402.6184   23738408.8904
 95  1  8 15 49 59.9990000  0  7  1 21 31 28 25 23 15
  20270973.505    -1529268.92649  -1186258.85249  20270971.5054   20270977.6764
  20836419.614    -1403646.68849  -1088978.47649  20836417.5534   20836423.4524
  22870101.435     -854325.70749   -663470.26449  22870100.3994   22870105.7054
  23048191.633      923363.20949    714178.79949  23048187.7244   23048193.3874
  22818887.573    -5644628.23249  -4374043.21549  22818888.9854   22818894.7484
  23454492.070      141027.37949    106910.02149  23454487.9464   23454495.3264
  23706109.815    -5895308.30049  -4557194.38949  23706102.4614   23706107.9644
 95  1  8 15 50 29.9990000  0  7  1 21 31 28 25 23 15
  20262756.440    -1572458.44449  -1219913.02749  20262753.0804   20262759.1514
  20828064.953    -1447562.38349  -1123198.50349  20828060.4494   20828066.8794
  22865461.468     -878705.91749   -682467.85049  22865460.8584   22865466.4294
  23051881.742      942757.60949    729291.27549  23051878.0444   23051884.5284
  22788363.669    -5805047.39349  -4499045.15049  22788362.4664   22788367.7424
  23453686.020      136812.34749    103625.52849  23453685.9834   23453692.6354
  23673757.777    -6065289.72249  -4689647.43149  23673755.3294   23673761.8414
 95  1  8 15 50 59.9990000  0  7  1 21 31 28 25 23 15
  20254549.138    -1615573.61549  -1253509.26649  20254548.5794   20254554.5954
  20819676.209    -1491608.68649  -1157520.31249  20819678.8444   20819684.4164
  22860840.753     -902990.78449   -701391.12549  22860839.3004   22860845.0794
  23055533.721      961979.72449    744269.52749  23055535.7894   23055542.0814
  22757797.235    -5965675.43949  -4624209.84049  22757796.0734   22757801.4584
  23452840.975      132363.59549    100158.92649  23452839.1604   23452846.3204
  23641362.366    -6235502.43449  -4822280.68849  23641365.6454   23641371.5624
 95  1  8 15 51 29.9990000  0  7  1 21 31 28 25 23 15
  20246355.395    -1658618.57849  -1287050.79449  20246357.2194   20246363.3714
  20811278.220    -1535774.60149  -1191935.31249  20811274.2484   20811280.6424
  22856234.777     -927195.70149   -720252.12749  22856233.2244   22856239.4204
  23059160.780      981033.94449    759116.95649  23059161.5744   23059167.3264
  22727195.383    -6126499.48149  -4749527.25749  22727192.7114   22727198.2094
  23451951.045      127687.66649     96515.28849  23451949.4024   23451956.9614
  23608937.420    -6405936.45449  -4955086.42249  23608933.1444   23608938.5204
 95  1  8 15 51 59.9990000  0  7  1 21 31 28 25 23 15
  20238179.704    -1701593.44149  -1320537.70149  20238179.3884   20238185.4274
  20802851.746    -1580043.80549  -1226430.79949  20802850.6644   20802856.4324
  22851639.378     -951323.70849   -739053.16449  22851641.8304   22851647.7524
  23062760.994      999932.01149    773842.69349  23062757.8254   23062764.1134
  22696553.002    -6287490.53949  -4874974.82049  22696557.3284   22696562.5524
  23451019.489      122785.37549     92695.26449  23451017.1984   23451023.1254
  23576463.365    -6576573.86449  -5088050.64649  23576461.3054   23576467.5004
 95  1  8 15 52 29.9990000  0  7  1 21 31 28 25 23 15
  20230019.436    -1744489.53949  -1353963.23749  20230016.5824   20230022.4494
  20794411.004    -1624407.21849  -1260999.69449  20794408.2594   20794414.2804
  22847065.436     -975359.30349   -757782.22349  22847068.5334   22847074.4094
  23066333.058     1018687.46149    788457.30949  23066327.3784   23066333.4774
  22665895.454    -6448607.78349  -5000520.68649  22665897.1934   22665903.1034
  23450040.482      117666.01049     88706.12949  23450043.2294   23450050.0554
  23543955.484    -6747395.49649  -5221158.43849  23543954.9724   23543961.5164
 95  1  8 15 52 59.9990000  0  7  1 21 31 28 25 23 15
  20221869.606    -1787297.32249  -1387319.95249  20221870.5824   20221876.5764
  20785952.222    -1668854.84049  -1295634.21249  20785950.2854   20785955.9684
  22842515.267     -999286.26449   -776426.61349  22842515.0214   22842520.3304
  23069871.442     1037314.19849    802971.61349  23069871.7784   23069878.2034
  22635221.501    -6609811.43149  -5126133.89949  22635221.2154   22635226.7044
  23449020.975      112337.29349     84553.84949  23449029.0084   23449035.6264
  23511416.042    -6918382.09549  -5354394.75349  23511417.1714   23511423.8264
 95  1  8 15 53 29.9990000  0  7  1 21 31 28 25 23 15
  20213739.290    -1830009.31949  -1420602.03049  20213742.8414   20213748.8194
  20777480.631    -1713367.07249  -1330319.07649  20777479.6334   20777485.4024
  22837985.806    -1023079.50049   -794966.80949  22837987.8314   22837993.4014
  23073400.486     1055831.01049    817400.24049  23073396.5314   23073401.3684
  22604532.507    -6771090.03749  -5251805.52149  22604531.0494   22604536.4084
  23447977.578      106819.25749     80254.06049  23447977.9604   23447985.4004
  23478855.838    -7089508.47649  -5487740.01049  23478852.9234   23478859.2724
 95  1  8 15 53 59.9990000  0  7  1 21 31 28 25 23 15
  20205639.526    -1872594.65149  -1453785.40549  20205639.1144   20205644.9504
  20768999.068    -1757923.68649  -1365038.51549  20769000.8724   20769006.7074
  22833495.775    -1046704.71249   -813376.06849  22833492.4634   22833497.9904
  23076902.190     1074265.54849    831764.79949  23076903.3374   23076908.5284
  22573838.719    -6932404.42149  -5377505.00949  22573833.7694   22573838.7734
  23446903.152      101146.32249     75833.56149  23446898.7974   23446906.7774
  23446271.241    -7260741.30549  -5621168.17149  23446268.1294   23446274.8234
 95  1  8 15 54 29.9990000  0  7  1 21 31 28 25 23 15
  20197566.140    -1915015.28549  -1486840.45049  20197566.5624   20197572.7764
  20760522.535    -1802488.38649  -1399764.25849  20760520.6994   20760526.1244
  22829037.145    -1070114.19649   -831617.23849  22829037.6084   22829043.0154
  23080401.098     1092655.50549    846094.57349  23080403.3844   23080408.7604
  22543132.182    -7093723.92749  -5503208.51349  22543135.5404   22543141.0064
  23445804.509       95379.99249     71340.24449  23445801.5494   23445808.8774
  23413674.541    -7432037.25649  -5754645.51649  23413671.4254   23413678.1014
 95  1  8 15 54 59.9990000  0  7  1 21 31 28 25 23 15
  20189528.141    -1957276.27349  -1519771.10249  20189524.7974   20189530.7714
  20752045.008    -1847049.98249  -1434487.58649  20752041.1264   20752046.9004
  22824625.886    -1093306.23949   -849688.98849  22824623.8744   22824630.4514
  23083898.648     1110999.82849    860388.80949  23083893.3924   23083900.0794
  22512434.861    -7255060.33949  -5628925.16249  22512433.9954   22512439.6214
  23444681.736       89527.61349     66779.91349  23444688.0534   23444694.6824
  23381063.055    -7603391.27749  -5888168.17749  23381063.8644   23381070.1794
 95  1  8 15 55 29.9990000  0  7  1 21 31 28 25 23 15
  20181522.585    -1999327.28149  -1552538.12749  20181522.6144   20181528.7264
  20743576.641    -1891547.77549  -1469161.19849  20743573.5524   20743579.2114
  22820264.573    -1116233.11549   -867554.09149  22820261.5414   22820266.6524
  23087383.442     1129344.33649    874683.18149  23087384.9464   23087389.8724
  22481739.165    -7416365.16349  -5754617.21749  22481738.8564   22481744.5534
  23443563.067       83641.38449     62193.24249  23443568.3384   23443574.1754
  23348457.179    -7774751.73649  -6021695.81949  23348455.3904   23348462.1174
 95  1  8 15 55 59.9990000  0  7  1 21 31 28 25 23 15
  20173562.761    -2041163.59549  -1585137.85849  20173561.7214   20173567.5394
  20735116.751    -1935993.34149  -1503794.11649  20735115.4844   20735121.9764
  22815949.541    -1138904.01449   -885219.74349  22815946.4214   22815953.3344
  23090884.528     1147669.36549    888962.39949  23090872.5574   23090877.2384
  22451048.794    -7577651.10449  -5880294.55949  22451047.2494   22451052.1354
  23442441.046       77713.05649     57573.75349  23442440.1784   23442445.3444
  23315838.837    -7946132.40749  -6155239.20749  23315842.6704   23315849.3854
 95  1  8 15 56 29.9990000  0  7  1 21 31 28 25 23 15
  20165644.756    -2082780.96049  -1617566.97549  20165641.8624   20165648.0094
  20726670.938    -1980372.44249  -1538375.24849  20726669.8914   20726675.9324
  22811678.344    -1161318.26949   -902685.40549  22811681.8164   22811687.4194
  23094351.925     1165977.48449    903228.45849  23094355.7334   23094361.5974
  22420357.848    -7738916.97349  -6005956.26549  22420359.4754   22420364.6874
  23441309.127       71742.05549     52920.97149  23441303.3224   23441310.3394
  23283230.240    -8117525.12849  -6288791.93249  23283228.2864   23283234.2514
 95  1  8 15 56 59.9990000  0  7  1 21 31 28 25 23 15
  20157764.532    -2124177.10949  -1649823.72149  20157764.7454   20157770.5204
  20718236.374    -2024680.30249  -1572900.86049  20718238.7754   20718245.0874
  22807462.414    -1183493.58649   -919964.87949  22807462.3184   22807467.6894
  23097838.888     1184264.49149    917478.03949  23097835.6064   23097841.9434
  22389676.693    -7900155.17949  -6131596.41249  22389676.5494   22389681.5434
  23440147.796       65706.38949     48217.81749  23440153.7174   23440162.3024
  23250609.573    -8288928.29749  -6422352.84649  23250611.3384   23250617.8954
 95  1  8 15 57 29.9990000  0  7  1 21 31 28 25 23 15
  20149936.198    -2165335.59549  -1681895.27549  20149932.2224   20149938.4494
  20709822.389    -2068902.72849  -1607359.90149  20709823.5974   20709829.5774
  22803291.034    -1205420.52949   -937050.82949  22803289.4704   22803295.0414
  23101314.272     1202542.85349    931720.86449  23101314.2844   23101319.4874
  22359004.651    -8061341.43449  -6257196.07349  22359003.9184   22359008.7904
  23438993.881       59617.57349     43473.27449  23438996.0024   23439002.8794
  23217997.764    -8460323.58149  -6555907.60349  23217995.3694   23218002.3994
 95  1  8 15 57 59.9990000  0  7  1 21 31 28 25 23 15
  20142146.240    -2206247.03849  -1713774.32949  20142147.2454   20142153.4994
  20701426.111    -2113027.84849  -1641743.12049  20701427.0134   20701432.7414
  22799167.997    -1227087.99549   -953934.59049  22799167.0324   22799172.0814
  23104791.635     1220822.68349    945964.85049  23104792.1044   23104797.8214
  22328344.666    -8222472.19749  -6382752.50849  22328341.9534   22328346.6224
  23437833.492       53483.95449     38693.78549  23437828.2754   23437835.0894
  23185383.142    -8631694.59249  -6689443.45449  23185384.9874   23185391.5804
 95  1  8 15 58 29.9980000  0  7  1 21 31 28 25 23 15
  20134403.853    -2246954.88749  -1745494.74149  20134400.9014   20134407.0544
  20693047.306    -2157079.73849  -1676069.27549  20693044.5794   20693050.4864
  22795080.587    -1248550.85349   -970658.90449  22795082.1184   22795088.2624
  23108259.831     1239068.15749    960182.07149  23108264.8464   23108270.4834
  22297684.595    -8383561.07949  -6508276.29949  22297687.3884   22297692.4584
  23436642.787       47262.80249     33846.08649  23436643.7814   23436653.0404
  23152765.495    -8803065.13449  -6822978.93449  23152774.6414   23152780.9334
 95  1  8 15 58 59.9980000  0  7  1 21 31 28 25 23 15
  20126698.295    -2287443.86749  -1777044.60249  20126696.2064   20126702.0624
  20684678.625    -2201055.81149  -1710336.35749  20684675.8204   20684682.1924
  22791030.466    -1269802.83949   -987218.90749  22791038.0604   22791043.2804
  23111734.308     1257284.03549    974376.23649  23111730.7414   23111737.8274
  22267043.013    -8544610.51549  -6633769.34649  22267040.6934   22267046.3254
  23435447.555       40966.19849     28939.60049  23435446.0514   23435452.7484
  23120165.343    -8974437.41249  -6956515.78549  23120162.9864   23120169.5384
 95  1  8 15 59 29.9980000  0  7  1 21 31 28 25 23 15
  20119037.727    -2327681.20149  -1808398.37049  20119039.1274   20119045.3064
  20676322.580    -2244937.01649  -1744529.51649  20676325.6194   20676332.0244
  22787039.427    -1290799.78849  -1003580.17649  22787042.5634   22787048.3344
  23115193.917     1275495.42449    988566.90449  23115196.6564   23115202.4824
  22236410.165    -8705588.87849  -6759207.01549  22236407.6394   22236413.0094
  23434245.727       34631.68349     24003.56249  23434240.3184   23434249.5234
  23087561.340    -9145773.99649  -7090024.81149  23087559.2444   23087565.0214
 95  1  8 15 59 59.9980000  0  7  1 21 31 28 25 23 15
  20111423.907    -2367684.45049  -1839569.73949  20111426.6664   20111432.9274
  20667992.176    -2288746.84849  -1778667.06749  20667988.5124   20667995.0794
  22783090.700    -1311561.91549  -1019758.46649  22783091.0274   22783097.2794
  23118652.698     1293678.38949   1002735.41649  23118656.7884   23118663.2904
  22205788.182    -8866509.33349  -6884599.57249  22205785.5734   22205790.7024
  23433030.262       28244.46949     19026.48549  23433024.6764   23433033.9884
  23054961.935    -9317092.94349  -7223520.09249  23054957.5114   23054963.9854
 95  1  8 16  0 29.9980000  0  7  1 21 31 28 25 23 15
  20103863.631    -2407453.98249  -1870558.98849  20103858.7274   20103865.0674
  20659667.473    -2332485.36049  -1812749.03449  20659665.5724   20659672.3054
  22779184.063    -1332092.95349  -1035756.70249  22779184.6484   22779190.3164
  23122110.332     1311831.32949   1016880.51549  23122111.4464   23122117.9304
  22175177.336    -9027362.18149  -7009939.43349  22175175.8884   22175181.5974
  23431804.816       21826.54949     14025.48249  23431804.1054   23431810.8714
  23022363.183    -9488389.89749  -7356998.23749  23022361.1314   23022367.9764
 95  1  8 16  0 59.9980000  0  7  1 21 31 28 25 23 15
  20096322.112    -2447060.23349  -1901421.01149  20096322.2664   20096328.3544
  20651341.102    -2376225.81449  -1846832.52149  20651342.0214   20651347.9844
  22775312.488    -1352444.24749  -1051614.87249  22775311.3814   22775317.4604
  23125546.198     1329881.11049   1030945.23849  23125546.0594   23125552.4264
  22144560.862    -9188220.61449  -7135283.65149  22144565.5264   22144570.9634
  23430560.452       15312.48649      8949.56249  23430564.5484   23430572.9914
  22989760.305    -9659731.93049  -7490511.51249  22989756.0784   22989762.2674
 95  1  8 16  1 29.9980000  0  7  1 21 31 28 25 23 15
  20088828.457    -2486448.04649  -1932112.82249  20088826.8474   20088832.9094
  20643033.060    -2419893.18349  -1880859.05649  20643032.4794   20643038.9844
  22771475.478    -1372562.28249  -1067291.28149  22771483.4794   22771488.7784
  23128971.633     1347892.32749   1044979.90249  23128972.7394   23128978.9654
  22113967.951    -9349012.32649  -7260575.90049  22113967.9894   22113973.6604
  23429314.025        8759.60349      3843.38649  23429318.5914   23429325.5234
  22957155.734    -9831048.51649  -7624004.95849  22957155.0234   22957162.1154
 95  1  8 16  1 59.9980000  0  7  1 21 31 28 25 23 15
  20081372.658    -2525608.71849  -1962627.63749  20081374.8514   20081380.9014
  20634743.257    -2463459.25849  -1914806.64849  20634742.0764   20634748.1764
  22767700.467    -1392445.86249  -1082785.00649  22767700.0964   22767705.4564
  23132394.877     1365876.04649   1058993.13949  23132395.5034   23132402.7204
  22083387.190    -9509714.82349  -7385798.59849  22083387.4724   22083392.8964
  23428068.528        2187.58549     -1277.69749  23428067.9844   23428075.1884
  22924561.775   -10002322.76749  -7757465.36149  22924563.9714   22924569.1954
 95  1  8 16  2 29.9980000  0  7  1 21 31 28 25 23 15
  20073969.371    -2564539.99649  -1992963.70649  20073966.5514   20073972.4434
  20626474.881    -2506911.91949  -1948665.87449  20626473.5124   20626479.4794
  22763957.674    -1412094.60949  -1098095.74349  22763961.0494   22763966.0054
  23135817.619     1383837.82349   1072989.31049  23135813.7684   23135819.0684
  22052825.540    -9670311.61249  -7510938.95849  22052826.8714   22052831.8444
  23426813.381       -4399.64649     -6410.65849  23426814.8064   23426821.2424
  22891975.467   -10173543.58149  -7890884.24149  22891980.5734   22891986.9584
 95  1  8 16  2 59.9980000  0  7  1 21 31 28 25 23 15
  20066609.969    -2603202.40549  -2023090.26149  20066609.1454   20066615.3094
  20618233.903    -2550208.55549  -1982403.52649  20618234.1974   20618240.6274
  22760276.257    -1431466.27049  -1113190.54549  22760274.5734   22760279.7734
  23139229.518     1401818.25149   1087000.00249  23139234.6464   23139241.5934
  22022292.123    -9830748.28049  -7635954.54949  22022296.4654   22022302.6064
  23425568.463      -10979.53849    -11537.89849  23425562.0614   23425569.4094
  22859415.993   -10344664.28849  -8024225.02449  22859417.9154   22859424.0364
 95  1  8 16  3 29.9980000  0  7  1 21 31 28 25 23 15
  20059283.130    -2641674.44449  -2053068.48349  20059288.3594   20059294.3104
  20610017.430    -2593420.07549  -2016074.85049  20610012.0254   20610017.5284
  22756628.636    -1450640.77449  -1128131.72849  22756625.3714   22756631.6754
  23142640.699     1419742.82549   1100967.15049  23142645.8894   23142652.4324
  21991789.950    -9991074.81149  -7760884.28149  21991787.6044   21991793.2414
  23424303.079      -17611.06649    -16705.36149  23424300.4864   23424307.1294
  22826860.069   -10515753.59449  -8157541.34849  22826861.0674   22826867.5314
 95  1  8 16  3 59.9980000  0  7  1 21 31 28 25 23 15
  20052004.848    -2679934.62649  -2082881.61449  20052007.6724   20052013.7594
  20601809.335    -2636526.75449  -2049664.49149  20601809.1834   20601814.2644
  22753020.721    -1469584.60649  -1142893.19549  22753021.3234   22753027.0614
  23146050.225     1437635.74949   1114909.68549  23146051.1674   23146057.8134
  21961307.238   -10151258.41149  -7885702.69649  21961305.6224   21961311.0434
  23423034.508      -24250.24349    -21878.76149  23423037.8454   23423044.3484
  22794315.756   -10686781.01049  -8290809.48049  22794315.3264   22794320.5444
 95  1  8 16  4 29.9980000  0  7  1 21 31 28 25 23 15
  20044765.894    -2717982.41749  -2112529.24349  20044767.5004   20044773.6444
  20593622.467    -2679548.23449  -2083187.72549  20593622.0494   20593628.2544
  22749462.729    -1488291.74249  -1157470.22449  22749461.7014   22749466.7364
  23149440.732     1455494.68149   1128825.67349  23149449.0024   23149456.2334
  21930851.039   -10311303.74649  -8010413.33249  21930850.4294   21930856.5594
  23421767.484      -30895.41949    -27056.84449  23421772.4044   23421780.0344
  22761784.662   -10857743.17149  -8424026.76849  22761781.8334   22761788.4754
 95  1  8 16  4 59.9980000  0  7  1 21 31 28 25 23 15
  20037571.907    -2755798.54349  -2141996.36349  20037571.3744   20037577.3574
  20585449.211    -2722479.92249  -2116641.00149  20585452.7094   20585458.2784
  22745949.214    -1506752.78649  -1171855.46549  22745948.9204   22745954.5324
  23152837.915     1473329.80749   1142723.13349  23152843.3644   23152849.5584
  21900422.825   -10471209.99149  -8135015.58949  21900420.8824   21900426.3484
  23420508.646      -37539.01149    -32233.70549  23420508.9704   23420515.3174
  22729266.762   -11028624.25149  -8557180.82649  22729265.1744   22729270.6364
 95  1  8 16  5 29.9980000  0  7  1 21 31 28 25 23 15
  20030423.385    -2793368.06749  -2171271.32449  20030422.1584   20030428.1514
  20577301.722    -2765306.08349  -2150012.05349  20577303.0134   20577309.1374
  22742487.315    -1524957.07349  -1186040.64449  22742484.0074   22742490.5154
  23156237.165     1491146.14649   1156605.92249  23156234.5344   23156240.0194
  21870015.382   -10630986.75649  -8259516.99649  21870017.0834   21870022.4724
  23419250.371      -44156.76549    -37390.44449  23419249.4914   23419257.2604
  22696762.151   -11199412.96449  -8690262.94649  22696764.2084   22696770.7624
 95  1  8 16  5 59.9980000  0  7  1 21 31 28 25 23 15
  20023321.018    -2830699.12049  -2200360.46049  20023318.2904   20023324.3364
  20569171.616    -2808042.79649  -2183313.39849  20569170.6964   20569176.5984
  22739062.996    -1542921.24549  -1200038.72849  22739065.9384   22739071.0634
  23159615.208     1508920.01549   1170455.66549  23159617.2464   23159623.2994
  21839633.008   -10790665.13049  -8383941.68049  21839630.6104   21839636.6894
  23417989.585      -50784.15949    -42554.71049  23417987.7174   23417995.2074
  22664275.101   -11370127.22649  -8823287.04049  22664278.9364   22664284.2444
 95  1  8 16  6 29.9980000  0  7  1 21 31 28 25 23 15
  20016267.456    -2867751.00149  -2229232.06249  20016267.4834   20016273.4754
  20561061.960    -2850639.27949  -2216505.47949  20561064.0484   20561070.6394
  22735699.856    -1560609.67449  -1213821.95149  22735699.6564   22735705.7394
  23162997.150     1526685.92649   1184299.19149  23162995.9614   23163003.0844
  21809270.854   -10950205.81649  -8508259.10049  21809271.8944   21809277.0024
  23416725.901      -57397.77349    -47708.23249  23416729.8214   23416736.9914
  22631816.512   -11540727.03149  -8956221.92749  22631814.9294   22631821.1024
 95  1  8 16  6 59.9980000  0  7  1 21 31 28 25 23 15
  20009259.245    -2904577.79049  -2257928.26449  20009259.3364   20009265.4914
  20552988.578    -2893101.19949  -2249592.70349  20552984.3494   20552990.1194
  22732383.955    -1578062.73549  -1227421.77749  22732379.2674   22732383.7874
  23166365.135     1544401.97449   1198103.88849  23166367.8654   23166374.9854
  21778936.206   -11109628.83749  -8632484.83649  21778933.6764   21778940.3174
  23415470.590      -64028.52349    -52875.10749  23415468.1684   23415475.3054
  22599362.291   -11711247.82149  -9089095.26549  22599365.9894   22599371.0764
 95  1  8 16  7 29.9980000  0  7  1 21 31 28 25 23 15
  20002297.076    -2941169.48149  -2286441.27549  20002296.3614   20002302.4224
  20544932.120    -2935404.71149  -2282556.49349  20544933.6704   20544940.5794
  22729102.271    -1595266.15049  -1240827.04849  22729104.7894   22729109.8184
  23169735.389     1562082.85749   1211881.12049  23169732.8774   23169739.0284
  21748626.968   -11268894.88749  -8756588.23149  21748626.6954   21748633.0154
  23414212.976      -70643.53549    -58029.71849  23414209.3874   23414217.3424
  22566930.404   -11881669.22449  -9221891.16449  22566934.9874   22566940.3884
 95  1  8 16  7 59.9980000  0  7  1 21 31 28 25 23 15
  19995379.595    -2977529.20849  -2314773.53649  19995377.3674   19995383.4474
  20536914.693    -2977557.84349  -2315403.10349  20536912.0194   20536918.8974
  22725878.082    -1612224.68249  -1254041.49549  22725877.6354   22725883.8694
  23173093.139     1579732.14749   1225633.76849  23173090.6984   23173097.2614
  21718351.463   -11427986.95849  -8880556.05149  21718351.5224   21718358.0604
  23412956.764      -77251.53049    -63178.83449  23412952.1714   23412959.6064
  22534529.060   -12051981.60949  -9354602.09649  22534526.6854   22534531.9164
 95  1  8 16  8 29.9980000  0  7  1 21 31 28 25 23 15
  19988498.435    -3013671.17349  -2342936.11249  19988499.6694   19988505.8964
  20528919.296    -3019569.37549  -2348139.37649  20528917.5914   20528924.4364
  22722697.745    -1628944.02349  -1267069.59949  22722695.9364   22722702.1984
  23176442.670     1597353.04649   1239364.30049  23176443.7774   23176451.9564
  21688116.555   -11586903.26449  -9004386.95549  21688112.0534   21688117.3094
  23411703.366      -83838.09549    -68311.26949  23411699.1144   23411706.0014
  22502140.474   -12222175.87349  -9487220.99649  22502139.5864   22502144.4084
 95  1  8 16  8 59.9980000  0  7  1 21 31 28 25 23 15
  19981662.815    -3049611.57049  -2370941.62249  19981660.4874   19981666.7474
  20520941.613    -3061476.89049  -2380794.60149  20520943.8744   20520949.2484
  22719558.412    -1645440.78549  -1279924.24849  22719557.1334   22719562.6774
  23179787.244     1614922.68249   1253054.92249  23179786.9644   23179794.4514
  21657893.680   -11745672.40749  -9128103.14849  21657898.2474   21657904.2154
  23410449.415      -90420.41249    -73440.38949  23410445.9804   23410453.4664
  22469768.490   -12392268.80349  -9619760.94649  22469772.2084   22469778.4064
 95  1  8 16  9 29.9980000  0  7  1 21 31 28 25 23 15
  19974866.974    -3085316.86649  -2398763.93649  19974866.1524   19974872.1774
  20512988.015    -3103278.31749  -2413367.16349  20512989.0004   20512994.9704
  22716463.603    -1661694.63849  -1292589.59249  22716464.6714   22716469.7344
  23183123.247     1632462.70649   1266722.45149  23183124.8264   23183131.8514
  21627717.435   -11904281.96749  -9251695.02049  21627717.1854   21627722.1934
  23409191.239      -96995.29149    -78563.71549  23409194.6194   23409202.5194
  22437431.485   -12562232.97449  -9752200.53349  22437428.6384   22437434.8654
 95  1  8 16  9 59.9970000  0  7  1 21 31 28 25 23 15
  19968123.840    -3120780.41149  -2426397.87249  19968117.8364   19968124.0384
  20505059.262    -3144956.21449  -2445843.46349  20505057.7814   20505064.3874
  22713421.776    -1677694.99649  -1305057.45249  22713419.4704   22713424.0604
  23186461.755     1649974.93849   1280368.30649  23186457.7794   23186464.5334
  21597563.358   -12062725.50649  -9375157.50149  21597565.1534   21597571.5704
  23407936.756     -103568.99749    -83686.13349  23407943.4734   23407951.9764
  22405113.251   -12732054.37749  -9884528.93249  22405113.5584   22405118.4334
 95  1  8 16 10 29.9970000  0  7  1 21 31 28 25 23 15
  19961410.663    -3156011.59249  -2453850.75449  19961413.4744   19961419.5454
  20497155.323    -3186504.29449  -2478218.60749  20497151.0924   20497158.1994
  22710426.564    -1693453.58549  -1317336.89449  22710420.2274   22710425.7964
  23189783.700     1667443.98149   1293980.51249  23189781.5794   23189789.6814
  21567441.838   -12221015.85049  -9498500.60349  21567444.4374   21567449.8844
  23406687.609     -110142.04949    -88808.06149  23406692.4944   23406700.4424
  22372823.233   -12901755.12649 -10016763.28349  22372820.0384   22372825.8614
 95  1  8 16 10 59.9970000  0  7  1 21 31 28 25 23 15
  19954761.120    -3190980.00349  -2481098.87149  19954759.1764   19954765.4054
  20489275.436    -3227890.73549  -2510467.80049  20489276.5284   20489282.5264
  22707465.355    -1708962.78249  -1329422.00549  22707469.6754   22707475.0124
  23193100.014     1684881.45449   1307568.13849  23193100.4134   23193108.3384
  21537359.055   -12379117.30749  -9621696.53849  21537357.5534   21537363.5184
  23405441.825     -116699.11149    -93917.50349  23405445.3274   23405453.0784
  22340553.388   -13071311.54049 -10148885.14749  22340554.3094   22340560.1794
 95  1  8 16 11 29.9970000  0  7  1 21 31 28 25 23 15
  19948155.035    -3225687.53849  -2508143.70849  19948154.7764   19948160.7534
  20481433.564    -3269102.07049  -2542580.54549  20481433.6694   20481440.7814
  22704560.275    -1724232.72349  -1341320.69749  22704563.4884   22704568.9184
  23196414.374     1702287.42249   1321131.19549  23196413.0194   23196420.7114
  21507310.891   -12537025.73449  -9744742.05549  21507310.2834   21507314.7614
  23404190.216     -123234.33549    -99009.95549  23404202.0264   23404209.2594
  22308316.002   -13240717.56949 -10280889.84649  22308317.6224   22308323.3774
 95  1  8 16 11 59.9970000  0  7  1 21 31 28 25 23 15
  19941598.761    -3260158.65249  -2535004.32249  19941594.8844   19941601.0004
  20473623.574    -3310158.77149  -2574572.78949  20473620.9244   20473627.8504
  22701695.545    -1739298.50249  -1353060.28249  22701696.5114   22701702.2374
  23199714.602     1719631.53949   1334646.05449  23199713.0274   23199720.4514
  21477296.101   -12694759.89949  -9867651.78649  21477292.8334   21477298.9394
  23402955.000     -129757.94949   -104093.34549  23402960.5504   23402968.1864
  22276107.884   -13409997.58349 -10412796.34949  22276104.2724   22276110.2874
 95  1  8 16 12 29.9970000  0  7  1 21 31 28 25 23 15
  19935091.122    -3294343.31949  -2561641.73349  19935089.9844   19935095.9124
  20465848.669    -3351011.89449  -2606406.41049  20465846.5384   20465853.3064
  22698877.875    -1754117.06449  -1364607.21749  22698877.2554   22698882.7994
  23203014.244     1736972.02249   1348158.10049  23203013.3484   23203019.0614
  21447320.639   -12852251.60649  -9990372.58349  21447323.8324   21447328.8024
  23401724.730     -136201.09449   -109114.03349  23401733.6064   23401741.7884
  22243924.768   -13579087.31249 -10544554.57949  22243927.8204   22243933.0254
 95  1  8 16 12 59.9970000  0  7  1 21 31 28 25 23 15
  19928622.979    -3328314.49149  -2588112.78349  19928625.5894   19928631.3174
  20458097.908    -3391737.58649  -2638140.72349  20458097.0334   20458104.2794
  22696089.924    -1768745.73249  -1376006.19849  22696093.4684   22696098.7544
  23206299.904     1754242.54049   1361615.63749  23206299.8624   23206307.0774
  21417388.139   -13009566.52649 -10112955.62749  21417387.8724   21417393.6704
  23400508.540     -142631.12649   -114124.49249  23400510.7134   23400518.7374
  22211776.477   -13748047.27449 -10676211.69849  22211775.5624   22211781.5804
 95  1  8 16 13 29.9970000  0  7  1 21 31 28 25 23 15
  19922206.627    -3362052.76549  -2614402.35749  19922205.5434   19922211.2294
  20450378.810    -3432307.58449  -2669753.72749  20450376.4814   20450382.4554
  22693352.316    -1783147.82449  -1387228.64849  22693352.6404   22693358.1244
  23209580.976     1771468.98949   1375038.80049  23209577.1634   23209583.7354
  21387493.199   -13166674.41249 -10235377.34549  21387491.3024   21387496.8904
  23399297.341     -149021.91149   -119104.36849  23399293.7884   23399301.8394
  22179653.891   -13916845.73449 -10807742.96849  22179654.1854   22179660.0054
 95  1  8 16 13 59.9970000  0  7  1 21 31 28 25 23 15
  19915832.397    -3395539.14349  -2640495.64849  19915833.1344   19915838.8344
  20442690.586    -3472692.02749  -2701222.13249  20442691.3224   20442698.5474
  22690654.609    -1797300.51949  -1398256.74049  22690658.1884   22690664.7754
  23212849.182     1788672.20649   1388443.91849  23212852.0724   23212858.1924
  21357636.655   -13323544.20849 -10357613.54949  21357640.0034   21357645.3454
  23398086.970     -155348.75349   -124034.42849  23398090.6414   23398097.7004
  22147565.350   -14085455.92849 -10939127.54649  22147568.2004   22147575.5344
 95  1  8 16 14 29.9970000  0  7  1 21 31 28 25 23 15
  19909508.016    -3428777.89649  -2666395.98449  19909507.8304   19909513.7714
  20435041.203    -3512893.34649  -2732547.85049  20435042.4094   20435047.1024
  22688016.368    -1811200.88349  -1409088.21949  22688014.2724   22688019.5524
  23216116.979     1805848.15349   1401827.75649  23216120.5044   23216127.4684
  21327834.382   -13480166.46449 -10479656.84149  21327835.6154   21327841.3174
  23396898.706     -161618.55349   -128920.03749  23396896.3444   23396904.8044
  22115522.595   -14253876.22649 -11070364.12749  22115519.7714   22115525.8854
 95  1  8 16 14 59.9970000  0  7  1 21 31 28 25 23 15
  19903229.847    -3461768.99549  -2692103.34649  19903229.7994   19903235.9834
  20427426.043    -3552916.76249  -2763734.94249  20427425.8974   20427431.8624
  22685416.299    -1824855.77049  -1419728.40949  22685415.8664   22685421.9574
  23219376.826     1822978.68849   1415176.18149  23219380.6394   23219387.2304
  21298078.882   -13636552.03849 -10601515.73349  21298076.1684   21298081.4654
  23395705.544     -167852.48049   -133777.66849  23395710.3674   23395719.3494
  22083502.194   -14422118.44549 -11201461.96249  22083502.8354   22083509.5174
 95  1  8 16 15 29.9970000  0  7  1 21 31 28 25 23 15
  19897003.691    -3494491.04749  -2717601.05849  19897003.1524   19897009.1034
  20419850.178    -3592743.48549  -2794768.76249  20419847.2114   20419852.0904
  22682862.650    -1838270.19849  -1430181.24249  22682862.7254   22682868.7334
  23222633.217     1840072.11549   1428495.70449  23222634.1254   23222640.1454
  21268369.521   -13792688.62949 -10723180.60549  21268364.6174   21268370.5144
  23394533.442     -174034.65849   -138595.00349  23394533.3474   23394542.2604
  22051525.995   -14590168.50249 -11332410.05249  22051525.0694   22051532.1424
 95  1  8 16 15 59.9970000  0  7  1 21 31 28 25 23 15
  19890822.971    -3526968.47049  -2742908.14649  19890822.6964   19890829.0024
  20412301.494    -3632403.42949  -2825672.62849  20412300.4624   20412306.3844
  22680349.680    -1851485.94949  -1440479.25549  22680347.5064   22680353.6944
  23225876.943     1857098.79149   1441763.17949  23225874.6794   23225879.1674
  21238691.132   -13948611.19549 -10844678.68449  21238693.9654   21238699.0534
  23393358.370     -180194.70349   -143395.09049  23393361.5584   23393369.7794
  22019578.594   -14758050.30649 -11463227.00049  22019579.1124   22019584.4274
 95  1  8 16 16 29.9970000  0  7  1 21 31 28 25 23 15
  19884694.587    -3559176.11449  -2768005.01849  19884693.8694   19884700.2504
  20404789.975    -3671879.93949  -2856433.54749  20404787.8934   20404793.6174
  22677875.443    -1864478.84049  -1450603.59249  22677875.8894   22677880.7174
  23229117.766     1874078.68449   1454994.22849  23229106.0194   23229111.5084
  21209072.106   -14104288.07449 -10965985.35949  21209069.3314   21209074.5854
  23392199.248     -186310.47649   -148160.67449  23392198.4024   23392206.3114
  21987668.786   -14925738.04649 -11593892.79549  21987668.2974   21987674.8904
 95  1  8 16 16 59.9970000  0  7  1 21 31 28 25 23 15
  19878619.010    -3591092.19249  -2792874.70049  19878620.1004   19878626.5264
  20397319.589    -3711137.87049  -2887024.16349  20397317.7704   20397323.2684
  22675449.165    -1877225.23349  -1460535.86549  22675449.9084   22675455.9714
  23232347.339     1891045.55349   1468215.10349  23232333.9164   23232340.6614
  21179499.392   -14259685.35649 -11087074.10649  21179498.4254   21179503.3074
  23391039.632     -192340.39149   -152859.35549  23391051.7054   23391058.8964
  21955802.218   -15093192.27949 -11724376.58949  21955802.9374   21955808.9694
 95  1  8 16 17 29.9970000  0  6  1 21 31 25 23 15
  19872590.485    -3622786.17949  -2817571.32349  19872589.3664   19872595.2204
  20389876.629    -3750242.59849  -2917495.38849  20389876.1044   20389881.3944
  22673053.154    -1889785.84049  -1470323.37549  22673059.6674   22673065.9244
  21149971.145   -14414852.89549 -11207983.89549  21149970.8574   21149975.1944
  23389900.613     -198333.01049   -157528.95749  23389910.8984   23389919.1754
  21923966.323   -15260463.00049 -11854717.40949  21923971.0394   21923978.1634
 95  1  8 16 17 59.9970000  0  6  1 21 31 25 23 15
  19866599.842    -3654244.74749  -2842084.50149  19866602.7614   19866608.6194
  20382473.319    -3789162.62149  -2947822.69249  20382469.5734   20382476.3584
  22670715.088    -1902114.42849  -1479930.06649  22670713.9584   22670719.4934
  21120498.356   -14569743.12149 -11328677.55049  21120496.0584   21120501.8674
  23388777.532     -204259.63949   -162147.16549  23388783.7804   23388791.3404
  21892186.157   -15427510.41649 -11984884.22549  21892185.7594   21892190.8174
 95  1  8 16 18 29.9970000  0  6  1 21 31 25 23 15
  19860658.781    -3685505.05249  -2866443.19349  19860654.2544   19860660.1494
  20375092.725    -3827923.82949  -2978026.23749  20375093.8654   20375100.0804
  22668408.994    -1914227.12249  -1489368.56049  22668409.3964   22668415.4634
  21091068.954   -14724373.47549 -11449168.72749  21091071.4934   21091075.4864
  23387672.974     -210130.76649   -166722.12149  23387666.1594   23387674.2464
  21860433.712   -15594359.90649 -12114896.82749  21860434.6864   21860439.4234
 95  1  8 16 18 59.9970000  0  7  1 21 31 28 25 23 15
  19854754.356    -3716514.21749  -2890606.18349  19854753.4804   19854759.4274
  20367761.217    -3866467.21849  -3008060.05849  20367759.2364   20367766.4814
  22666159.613    -1926069.18049  -1498596.15149  22666155.8754   22666161.3204
  23245149.632       16537.25619
  21061704.024   -14878698.77549 -11569422.18249  21061704.1734   21061709.5294
  23386567.020     -215880.86149   -171202.76649  23386570.5254   23386578.4414
  21828729.984   -15760950.32549 -12244707.51049  21828732.6124   21828738.4854
 95  1  8 16 19 29.9970000  0  7  1 21 31 28 25 23 15
  19848889.249    -3747329.99349  -2914618.48549  19848889.5604   19848895.4044
  20360453.880    -3904844.22049  -3037964.22949  20360456.4314   20360462.2844
  22663950.279    -1937691.46149  -1507652.50249  22663944.5234   22663950.9384
  23248328.455       33245.48659     21872.48259  23248326.5214   23248334.3244
  21032381.366   -15032786.60749 -11689490.62049  21032382.3164   21032386.8764
  23385472.392     -221576.60749   -175641.05849  23385487.5704   23385496.4024
  21797071.203   -15927340.98449 -12374362.59549  21797070.1714   21797075.9554
 95  1  8 16 19 59.9970000  0  7  1 21 31 28 25 23 15
  19843070.571    -3777898.63749  -2938438.21449  19843072.2104   19843078.2044
  20353192.975    -3943000.97749  -3067696.77949  20353196.0334   20353201.6794
  22661784.643    -1949051.56649  -1516504.57649  22661783.2064   22661788.2804
  23251504.909       49916.17649     34862.59049  23251499.4684   23251507.2794
  21002168.952      -66549.41819
  23384420.674     -227165.95449   -179996.44049  23384426.4194   23384431.6604
  21765453.726   -16093487.41649 -12503827.31349  21765453.3514   21765458.8564
 95  1  8 16 20 29.9960000  0  7  1 21 31 28 25 23 15
  19837307.179    -3808188.08849  -2962040.38849  19837308.3984   19837314.2994
  20345980.823    -3980915.18649  -3097240.34249  20345980.6204   20345986.4234
  22659677.198    -1960141.89649  -1525146.41849  22659673.2904   22659678.0494
  23254665.783       66559.65349     47831.51049  23254667.0104   23254673.4414
  20970897.928     -230887.62259   -163519.31359  20970894.4404   20970900.4934
  23383374.019     -232624.18949   -184249.64649  23383387.3254   23383392.9464
  21733887.452   -16259367.06549 -12633084.17849  21733887.0674   21733893.8284
 95  1  8 16 20 59.9960000  0  7  1 21 31 28 25 23 15
  19831588.171    -3838257.69749  -2985471.25749  19831586.4344   19831592.5164
  20338800.347    -4018645.08849  -3126640.27449  20338800.6464   20338807.0164
  22657602.549    -1971028.93149  -1533629.86249  22657600.5584   22657606.2974
  23257821.954       83115.63549     60732.22349  23257816.9774   23257823.7844
  20939663.898     -394998.41049   -291397.81749  20939665.3544   20939670.9894
  23382364.294     -238025.59349   -188458.58949  23382356.3684   23382364.9524
  21702361.673   -16425046.29549 -12762184.85449  21702360.4334   21702365.3634
 95  1  8 16 21 29.9960000  0  7  1 21 31 28 25 23 15
  19825918.155    -3868059.15549  -3008693.17749  19825915.2714   19825921.5234
  20331665.427    -4056141.40849  -3155858.20049  20331664.4974   20331672.1114
  22655582.028    -1981669.31349  -1541921.08749  22655576.9454   22655580.9864
  23260958.680       99628.24149     73599.15249  23260959.5384   23260966.5464
  20908492.939     -558811.15549   -419044.08449  20908492.8464   20908498.2914
  23381349.841     -243336.13149   -192596.74049  23381348.4744   23381354.5144
  21670879.764   -16590469.29749 -12891085.89249  21670880.1454   21670886.4774
 95  1  8 16 21 59.9960000  0  6  1 21 31 28 23 15
  19820298.454    -3897579.94049  -3031696.39149  19820298.0604   19820303.7334
  20324573.186    -4093395.95949  -3184887.72849  20324576.3524   20324582.3764
  22653602.035    -1992067.02449  -1550023.21649  22653598.4344   22653602.1844
  23264095.309      116102.95549     86436.52049  23264094.6594   23264101.8654
  23380351.871                                    23380354.818    23380359.1814
  21639450.114   -16755624.98949 -13019778.61549  21639451.8324   21639459.0984
 95  1  8 16 22 29.9960000  0  6  1 21 31 28 25 15
  19814726.808    -3926875.80949  -3054524.34749  19814723.1824   19814728.9824
  20317520.095    -4130458.36149  -3213767.53749  20317523.6124   20317529.5504
  22651660.518    -2002269.78949  -1557973.45449  22651656.7984   22651661.6584
  23267213.281      132489.49049     99205.20949  23267213.0244   23267219.4074
  20848285.787     -152163.28659    -81315.84159  20848283.2244   20848288.1644
  21608066.569   -16920557.82149 -13148297.72449  21608067.2494   21608072.6754
 95  1  8 16 22 59.9960000  0  6  1 21 31 28 25 15
  19809201.935    -3955902.22649  -3077142.33949  19809199.6684   19809205.6544
  20310513.818    -4167284.82349  -3242463.49849  20310515.6264   20310521.9674
  22649763.982    -2012242.15649  -1565744.13549  22649758.9224   22649763.9574
  23270328.354      148833.79249    111940.95849  23270324.0284   23270330.4774
  20819045.295     -305788.30949   -201023.63349  20819047.9604   20819054.5064
  21576737.543   -17085215.93549 -13276602.72449  21576733.0574   21576739.8114
 95  1  8 16 23 29.9960000  0  6  1 21 31 28 25 15
  19803729.953    -3984648.00749  -3099541.66149  19803729.5404   19803735.5604
  20303552.595    -4203876.99049  -3270976.88549  20303552.1684   20303558.7814
  22647903.270    -2021978.09849  -1573330.62149  22647904.5724   22647910.3894
  23273429.111      165137.65549    124645.21349  23273425.2994   23273433.4364
  20790009.851     -458368.14949   -319916.97149  20790013.5614   20790019.1614
  21545450.326   -17249591.86149 -13404687.85649  21545453.5224   21545461.0314
 95  1  8 16 23 59.9960000  0  6  1 21 31 28 25 15
  19798300.761    -4013158.98749  -3121758.01449  19798303.8254   19798309.9944
  20296621.887    -4240281.66449  -3299344.17749  20296624.1084   20296630.6484
  22646089.254    -2031521.76849  -1580767.30549  22646089.0434   22646093.8374
  23276506.167      181350.84949    137278.74749  23276512.2164   23276518.1524
  20761135.365     -610110.10549   -438157.46049  20761138.3334   20761143.9964
  21514220.017   -17413729.91649 -13532587.63449  21514219.2814   21514224.8014
 95  1  8 16 24 29.9960000  0  6  1 21 31 28 25 15
  19792923.109    -4041421.89849  -3143781.06749  19792925.3514   19792931.3524
  20289733.688    -4276484.18949  -3327553.95549  20289736.1164   20289741.1154
  22644310.135    -2040848.61749  -1588035.02949  22644314.2424   22644319.7724
  23279578.537      197496.15149    149859.48949  23279585.3734   23279590.2434
  20732365.775     -761308.78949   -555974.59449  20732365.6224   20732371.2994
  21483033.685   -17577601.26649 -13660279.58949  21483035.4754   21483041.0944
 95  1  8 16 24 59.9960000  0  6  1 21 31 28 25 15
  19787602.528    -4069418.43949  -3165596.55549  19787597.9434   19787604.0784
  20282889.393    -4312461.44449  -3355588.18849  20282889.1574   20282895.3994
  22642580.029    -2049934.20749  -1595114.72649  22642585.7794   22642592.6544
  23282649.598      213598.73149    162406.80549  23282648.2244   23282655.6584
  20703672.685     -912101.87349   -673475.68949  20703671.6034   20703676.5604
  21451904.701   -17741175.47949 -13787740.01449  21451908.0254   21451914.6844
 95  1  8 16 25 29.9960000  0  6  1 21 31 28 25 15
  19782314.464    -4097170.15249  -3187221.27149  19782316.9684   19782323.4254
  20276084.088    -4348220.65549  -3383452.52149  20276083.7224   20276091.3654
  22640893.498    -2058779.18649  -1602006.95149  22640903.5344   22640908.8214
  23285708.620      229649.70849    174913.95549  23285702.3624   23285708.1714
  20675041.147    -1062556.50349   -790713.04749  20675040.2624   20675045.4874
  21420840.784   -17904455.32849 -13914971.05849  21420836.8704   21420843.8144
 95  1  8 16 25 59.9960000  0  6  1 21 31 28 25 15
  19777077.400    -4124703.73449  -3208676.01549  19777077.7314   19777083.8684
  20269311.627    -4383770.63849  -3411153.81549  20269319.3694   20269325.9724
  22639256.834    -2067424.10049  -1608743.29949  22639256.7304   22639262.6254
  23288751.964      245629.04849    187365.33649  23288744.2794   23288750.5604
  20646469.890    -1212704.46049   -907711.43649  20646468.1364   20646474.2394
  21389816.077   -18067454.95849 -14041983.76449  21389819.6184   21389826.1514
 95  1  8 16 26 29.9960000  0  6  1 21 31 28 25 15
  19771875.103    -4152038.33549  -3229975.71049  19771876.1894   19771881.9904
  20262596.416    -4419126.08149  -3438703.55649  20262592.5494   20262598.1924
  22637652.871    -2075889.61749  -1615339.83749  22637646.4824   22637651.8704
  23291762.337      261521.79749    199749.19349  23291769.3984   23291774.4504
  20617956.957    -1362549.60349  -1024473.87349  20617954.0204   20617959.5784
  21358855.787   -18230183.73249 -14168785.39249  21358853.0904   21358859.1164
 95  1  8 16 26 59.9960000  0  6  1 21 31 28 25 15
  19766731.166    -4179092.66249  -3251057.00449  19766728.0654   19766733.7384
  20255916.475    -4454215.36349  -3466045.85449  20255914.3204   20255921.1044
  22636080.116    -2084106.91949  -1621742.94249  22636083.8844   22636088.8394
  23294782.028      277395.27449    212118.06249  23294788.8294   23294793.1824
  20589510.825    -1512012.41349  -1140938.40149  20589511.1684   20589517.1464
  21327953.397   -18392568.51449 -14295318.98649  21327952.7244   21327959.0814
 95  1  8 16 27 29.9960000  0  6  1 21 31 28 25 15
  19761618.819    -4205949.94849  -3271984.75949  19761617.4054   19761623.1534
  20249276.240    -4489123.22349  -3493246.80049  20249270.8154   20249279.5374
  22634546.514    -2092179.90949  -1628033.61149  22634547.7124   22634553.4224
  23297785.664      293155.45149    224398.61749  23297787.2754   23297793.5494
  20561127.384    -1661165.52849  -1257161.59249  20561129.6404   20561134.5044
  21297101.392   -18554697.73749 -14421653.46649  21297100.0324   21297107.1364
 95  1  8 16 27 59.9960000  0  6  1 21 31 28 25 15
  19756558.510    -4232544.57549  -3292707.84949  19756556.2804   19756562.3064
  20242677.513    -4523784.17249  -3520255.36249  20242676.3904   20242682.4454
  22633050.630    -2100048.18049  -1634164.77849  22633049.2464   22633056.3674
  23300775.473      308860.41549    236636.18549  23300775.2114   23300782.7524
  20532819.717    -1809930.17149  -1373082.08549  20532819.7484   20532825.8254
  21266308.205   -18716507.43049 -14547738.90549  21266308.7294   21266315.2554
 95  1  8 16 28 29.9960000  0  6  1 21 31 28 25 15
  19751539.565    -4258896.48049  -3313241.80549  19751541.6654   19751547.9004
  20236120.985    -4558218.20849  -3547087.10449  20236123.8534   20236130.4574
  22631594.257    -2107710.74249  -1640135.64049  22631591.0104   22631596.2764
  23303747.345      324492.59349    248817.02249  23303749.4404   23303757.8734
  20504583.851    -1958326.37549  -1488715.48249  20504580.8834   20504586.9344
  21235577.181   -18878009.45449 -14673584.64949  21235576.0344   21235581.0884
 95  1  8 16 28 59.9960000  0  6  1 21 31 28 25 15
  19746568.323    -4285040.78949  -3333613.99649  19746566.6364   19746572.9874
  20229604.870    -4592448.03949  -3573759.70149  20229609.9274   20229616.5094
  22630168.532    -2115201.11249  -1645972.32649  22630166.0214   22630171.7004
  23306703.823      340016.51449    260913.53149  23306704.1864   23306711.4804
  20476405.873    -2106392.76649  -1604091.89449  20476405.2974   20476411.6244
  21204896.265   -19039233.33449 -14799213.62649  21204896.2394   21204902.3524
 95  1  8 16 29 29.9960000  0  6  1 21 31 28 25 15
  19741635.610    -4310949.37949  -3353802.51549  19741636.5824   19741642.1834
  20223149.654    -4626419.59549  -3600231.07449  20223145.8964   20223152.1784
  22628785.584    -2122481.33749  -1651645.24849  22628781.5764   22628785.5424
  23309645.717      355469.00249    272954.36349  23309645.2874   23309652.9644
  20448297.774    -2254098.28949  -1719187.07749  20448297.0504   20448301.5684
  21174279.789   -19200136.97549 -14924593.06149  21174276.7944   21174283.6534
 95  1  8 16 29 59.9960000  0  6  1 21 31 28 25 15
  19736750.490    -4336612.44449  -3373799.70849  19736753.0664   19736759.0004
  20216729.575    -4660133.21249  -3626501.43449  20216729.1744   20216735.3244
  22627438.999    -2129549.44049  -1657152.89049  22627436.2944   22627441.3244
  23312575.746      370845.07849    284935.62749  23312570.7664   23312578.7284
  20420253.542    -2401456.37149  -1834011.57649  20420256.1774   20420262.9434
  21143721.757   -19360719.39049 -15049722.23149  21143719.3584   21143726.1244
 95  1  8 16 30 29.9960000  0  6  1 21 31 28 25 15
  19731916.996    -4362021.27649  -3393598.80249  19731918.0344   19731924.1794
  20210363.631    -4693580.96149  -3652564.62749  20210365.3144   20210371.5034
  22626130.625    -2136396.89649  -1662488.57749  22626133.1114   22626139.7034
  23315481.975      386141.10049    296854.52449  23315481.5414   23315489.6894
  20392281.764    -2548469.79749  -1948567.47049  20392280.6114   20392285.1154
  21113225.737   -19520978.70749 -15174599.60949  21113222.8054   21113229.2834
 95  1  8 16 30 59.9950000  0  6  1 21 31 28 25 15
  19727130.562    -4387162.74349  -3413189.55849  19727133.7034   19727139.6224
  20204054.299    -4726762.64749  -3678420.52449  20204050.6664   20204057.1654
  22624868.948    -2143038.63749  -1667664.04049  22624869.0124   22624874.1424
  23318376.514      401349.89549    308705.47649  23318375.8214   23318384.1304
  20364372.000    -2695125.45649  -2062844.58749  20364372.7214   20364378.6864
  21082792.226   -19680910.13549 -15299221.47649  21082789.7874   21082795.3064
 95  1  8 16 31 29.9950000  0  6  1 21 31 28 25 15
  19722404.733    -4412023.45949  -3432561.55249  19722402.9764   19722408.7284
  20197789.480    -4759690.61249  -3704078.68049  20197785.6524   20197789.9814
  22623646.450    -2149485.24949  -1672687.42149  22623642.6844   22623649.0284
  23321248.802      416468.00449    320485.75749  23321252.9574   23321261.0104
  20336537.016    -2841415.22649  -2176836.62349  20336535.6654   20336540.1144
  21052415.849   -19840523.47649 -15423595.50349  21052416.3474   21052421.9184
 95  1  8 16 31 59.9950000  0  6  1 21 31 28 25 15
  19717727.361    -4436601.27449  -3451713.10349  19717726.1924   19717731.8184
  20191563.864    -4792377.58449  -3729549.07449  20191564.2734   20191572.5624
  22622451.539    -2155728.72149  -1677552.50149  22622454.3024   22622458.8744
  23324112.610      431495.24249    332195.18049  23324113.0054   23324121.1764
  20308773.132    -2987310.92749  -2290521.55549  20308771.5234   20308777.5334
  21022103.855   -19999807.47549 -15547712.87149  21022105.9744   21022110.6224
 95  1  8 16 32 29.9950000  0  6  1 21 31 28 25 15
  19713099.475    -4460918.15449  -3470661.32649  19713098.6534   19713104.1904
  20185389.206    -4824824.85749  -3754832.67549  20185390.2984   20185395.5944
  22621305.992    -2161771.08749  -1682260.87349  22621303.9324   22621310.9574
  23326960.763      446432.81749    343834.75449  23326956.4274   23326963.3254
  20281086.025    -3132804.25149  -2403892.96249  20281085.6244   20281090.1324
  20991859.059   -20158755.22349 -15671568.25949  20991858.9444   20991863.3974
 95  1  8 16 32 59.9950000  0  5  1 21 31 25 15
  19708519.886    -4484990.14449  -3489418.72849  19708518.1174   19708523.4674
  20179260.043    -4857041.39349  -3779936.46449  20179259.5184   20179265.3214
  22620189.521    -2167634.25449  -1686829.60749  22620188.3484   22620194.9974
  20253470.859    -3277896.02849  -2516951.47649  20253473.7554   20253480.6294
  20961672.245   -20317360.30549 -15795156.61649  20961676.2524   20961682.9754
 95  1  8 16 33 29.9950000  0  5  1 21 31 25 15
  19703976.341    -4508839.22849  -3508002.43749  19703979.6054   19703985.6414
  20173168.107    -4889019.27349  -3804854.31449  20173174.4164   20173181.9614
  22619114.918    -2173307.31049  -1691250.17449  22619109.0634   22619113.8654
  20225937.009    -3422599.82949  -2629707.69049  20225938.9434   20225943.9204
  20931562.031   -20475615.47149 -15918472.31949  20931561.2464   20931568.3514
 95  1  8 16 33 59.9950000  0  5  1 21 31 25 15
  19699478.371    -4532497.10549  -3526437.15849  19699477.6674   19699483.5544
  20167134.510    -4920753.29649  -3829582.13849  20167135.6444   20167141.3304
  22618065.219    -2178796.55249  -1695527.52649  22618064.7894   22618071.1774
  20198473.737    -3566931.57149  -2742173.91049  20198474.9014   20198479.6584
  20901513.952   -20633520.78549 -16041515.40749  20901512.7864   20901519.6504
 95  1  8 16 34 29.9950000  0  5  1 21 31 25 15
  19695016.041    -4555963.24849  -3544722.46749  19695012.3164   19695018.1224
  20161143.754    -4952233.41749  -3854112.11849  20161145.2294   20161150.8354
  22617054.694    -2184124.50449  -1699679.19949  22617051.1064   22617054.3964
  20171078.444    -3710896.33449  -2854354.26349  20171077.8274   20171083.2444
  20871529.370   -20791075.42349 -16164285.25949  20871531.8044   20871538.2264
 95  1  8 16 34 59.9950000  0  5  1 21 31 25 15
  19690587.440    -4579212.16049  -3562838.51649  19690588.0974   19690594.2354
  20155205.107    -4983452.62949  -3878438.78549  20155205.0954   20155211.5834
  22616066.605    -2189290.81849  -1703704.87449  22616066.4444   22616072.9314
  20143754.917    -3854487.22049  -2966243.24949  20143753.6944   20143758.1064
  20841619.871   -20948271.71649 -16286775.89649  20841618.4204   20841624.8344
 95  1  8 16 35 29.9950000  0  5  1 21 31 25 15
  19686207.352    -4602231.41349  -3580775.60949  19686207.6874   19686213.2654
  20149311.832    -5014413.14349  -3902563.87949  20149312.0694   20149318.6694
  22615109.439    -2194297.27749  -1707606.03549  22615115.4954   22615121.9134
  20116499.370    -3997689.24349  -3077829.22249  20116503.6894   20116508.6584
  20811776.534   -21105106.81249 -16408985.05249  20811773.7964   20811780.3934
 95  1  8 16 35 59.9950000  0  5  1 21 31 25 15
  19681872.194    -4625012.74349  -3598527.29849  19681872.1104   19681878.1254
  20143466.397    -5045118.26949  -3926489.96749  20143470.4284   20143474.8914
  22614189.862    -2199161.28349  -1711396.19449  22614189.2824   22614195.2214
  20089328.727    -4140472.51349  -3189088.88149  20089332.7324   20089338.1214
  20781999.666   -21261575.64349 -16530908.79849  20781998.7834   20782004.5334
 95  1  8 16 36 29.9950000  0  5  1 21 31 25 15
  19677587.672    -4647539.40749  -3616080.55649  19677585.7104   19677591.5174
  20137670.677    -5075578.25449  -3950225.02149  20137673.1384   20137679.7314
  22613293.664    -2203876.57249  -1715070.47949  22613292.9194   22613297.0254
  20062238.314    -4282848.54649  -3300031.25449  20062238.3034   20062243.9144
  20752294.381   -21417676.69349 -16652545.99749  20752293.2844   20752299.9544
 95  1  8 16 36 59.9950000  0  5  1 21 31 25 15
  19673345.301    -4669817.50449  -3633440.12449  19673345.9754   19673351.8874
  20131917.539    -5105791.32349  -3973767.69149  20131923.8174   20131930.6364
  22612424.580    -2208434.78449  -1718622.35349  22612424.5774   22612430.0854
  20035224.081    -4424816.90449  -3410655.92949  20035224.1744   20035228.0294
  20722660.480   -21573402.68549 -16773890.92849  20722660.3384   20722665.5094
 95  1  8 16 37 29.9950000  0  5  1 21 31 25 15
  19669149.153    -4691882.94549  -3650633.98449  19669147.2914   19669153.0014
  20126224.104    -5135770.17249  -3997127.85149  20126219.6454   20126225.0744
  22611591.439    -2212841.17549  -1722055.93149  22611586.2404   22611591.4994
  20008280.712    -4566397.41649  -3520978.37849  20008282.1744   20008287.4134
  20693091.676   -21728770.54449 -16894956.80649  20693094.5534   20693099.9694
 95  1  8 16 37 59.9950000  0  5  1 21 31 25 15
  19664994.894    -4713727.35649  -3667655.61749  19664990.8404   19664996.3384
  20120564.579    -5165487.87749  -4020284.50649  20120564.1294   20120570.8734
  22610781.544    -2217063.95149  -1725346.46349  22610783.1394   22610790.0094
  19981417.819    -4707584.63749  -3630994.38949  19981414.7354   19981419.8574
  20663598.298   -21883762.35749 -17015729.64249  20663600.4934   20663605.7634
 95  1  8 16 38 29.9950000  0  5  1 21 31 25 15
  19660871.525    -4735359.56849  -3684511.90449  19660874.0424   19660880.4734
  20114955.837    -5194955.76049  -4043246.51649  20114957.1134   20114962.8714
  22610013.155    -2221108.84949  -1728498.36049  22610014.1414   22610019.2124
  19954613.802    -4848404.18949  -3740723.89449  19954617.1494   19954622.9444
  20634175.909   -22038391.92349 -17136220.21549  20634175.2864   20634181.9554
 95  1  8 16 38 59.9950000  0  5  1 21 31 25 15
  19656801.283    -4756787.13049  -3701208.71549  19656796.7954   19656802.4834
  20109402.339    -5224151.75549  -4065996.66649  20109400.7394   20109407.8674
  22609271.791    -2224969.37149  -1731506.61349  22609278.7604   22609283.5444
  19927899.443    -4988824.94649  -3850142.64949  19927897.0994   19927902.1234
  20604822.857   -22192644.86249 -17256417.31549  20604822.0994   20604827.8244
 95  1  8 16 39 29.9950000  0  5  1 21 31 25 15
  19652755.037    -4778012.81649  -3717748.22049  19652757.5394   19652762.8984
  20103896.363    -5253076.39449  -4088535.34549  20103897.1194   20103903.0314
  22608573.616    -2228643.20349  -1734369.38249  22608580.7344   22608585.3314
  19901250.606    -5128843.07549  -3959247.68949  19901251.5324   19901256.8394
  20575543.149   -22346517.77049 -17376318.28449  20575541.7944   20575546.4724
 95  1  8 16 39 59.9950000  0  5  1 21 31 25 15
  19648749.457    -4799075.31249  -3734160.57249  19648749.6674   19648755.3214
  20098437.898    -5281763.87649  -4110889.25749  20098437.2884   20098445.3104
  22607913.201    -2232187.26549  -1737131.03149  22607906.8494   22607910.5184
  19874677.730    -5268481.84749  -4068057.10649  19874678.9994   19874685.2244
  20546323.615   -22500037.06349 -17495943.69749  20546327.5534   20546332.8164
 95  1  8 16 40 29.9950000  0  4  1 21 25 15
  19644776.388    -4819943.72549  -3750421.68449  19644778.6834   19644784.1344
  20093024.647    -5310182.64049  -4133033.74849  20093029.4704   20093036.2614
  19848182.504    -5407706.12349  -4176543.54449  19848185.9544   19848190.9194
  20517190.104   -22653167.26549 -17615265.92749  20517187.7214   20517193.0224
 95  1  8 16 40 59.9950000  0  4  1 21 25 15
  19640838.884    -4840634.31549  -3766544.23849  19640841.0804   19640846.8824
  20087675.482    -5338342.58149  -4154976.57749  20087671.5894   20087676.8764
  19821770.857    -5546519.04049  -4284709.42349  19821770.2444   19821775.3564
  20488120.998   -22805917.93849 -17734292.41349  20488120.1124   20488126.5394
 95  1  8 16 41 29.9940000  0  4  1 21 25 15
  19636943.640    -4861108.93849  -3782498.51249  19636945.3054   19636951.1244
  20082364.820    -5366225.09849  -4176703.22049  20082364.9844   20082371.9034
  19795433.560    -5684898.12549  -4392537.29549  19795437.6404   19795443.8614
  20459128.055   -22958262.78949 -17853002.67349  20459129.6154   20459135.5474
 95  1  8 16 41 59.9940000  0  4  1 21 25 15
  19633095.166    -4881353.50449  -3798273.50549  19633093.0474   19633097.9194
  20077106.790    -5393834.98449  -4198217.44749  20077110.9124   20077117.6784
  19769188.486    -5822846.79349  -4500029.74749  19769187.3034   19769192.0974
  20430215.621   -23110212.51249 -17971405.03749  20430214.1364   20430220.1364
 95  1  8 16 42 29.9940000  0  4  1 21 25 15
  19629282.726    -4901392.88949  -3813888.62449  19629279.6124   19629285.0494
  20071904.698    -5421210.86649  -4219549.32949  20071901.9924   20071907.2944
  19743012.106    -5960392.72149  -4607208.37249  19743012.7294   19743018.2754
  20401367.625   -23261799.88749 -18089525.05049  20401368.8954   20401374.4674
 95  1  8 16 42 59.9940000  0  4  1 21 25 15
  19625508.010    -4921206.62549  -3829327.90749  19625508.5584   19625515.0844
  20066744.133    -5448323.97249  -4240676.44049  20066742.0324   20066748.9024
  19716925.822    -6097485.74749  -4714034.10449  19716925.3944   19716930.2384
  20372595.391   -23412986.30949 -18207332.63249  20372599.0024   20372605.0104
 95  1  8 16 43 29.9940000  0  5  1 21 31 25 15
  19621780.412    -4940803.79749  -3844598.44249  19621779.0174   19621785.2144
  20061635.447    -5475183.95749  -4261606.31549  20061630.1074   20061638.3564
  22603869.624       -1835.08319
  19690922.304    -6234126.86549  -4820507.70149  19690923.4024   19690929.5284
  20343902.317   -23563763.38449 -18324821.25149  20343906.7894   20343913.0714
 95  1  8 16 43 59.9940000  0  5  1 21 31 25 15
  19618085.967    -4960208.81649  -3859719.24849  19618087.3234   19618092.6744
  20056570.598    -5501791.27849  -4282339.32949  20056568.7754   20056572.9284
  22603384.074       -4366.24059     -2950.23159  22603386.2084   22603396.2104
  19665005.777    -6370313.03249  -4926626.78349  19665007.8164   19665012.6844
  20315292.758   -23714125.27349 -18441986.34749  20315294.3994   20315300.8234
 95  1  8 16 44 29.9940000  0  5  1 21 31 25 15
  19614426.476    -4979442.35449  -3874706.42549  19614427.2434   19614433.0584
  20051554.532    -5528153.28449  -4302881.17049  20051551.0714   20051557.5744
  22602927.907       -6777.60149     -4829.30949  22602928.3024   22602935.0984
  19639177.192    -6506057.83749  -5032401.93849  19639177.0014   19639181.5154
  20286762.072   -23864075.05349 -18558830.31749  20286759.0134   20286765.7964
 95  1  8 16 44 59.9940000  0  5  1 21 31 25 15
  19610793.597    -4998514.95849  -3889568.20449  19610797.1794   19610803.4354
  20046583.870    -5554278.30349  -4323238.35449  20046580.3434   20046586.8984
  22602489.761       -9092.89649     -6633.47549  22602488.1984   22602494.2244
  19613427.415    -6641380.61149  -5137848.25149  19613425.5554   19613431.3054
  20258299.529   -24013621.33249 -18675359.87849  20258301.3014   20258307.1104
 95  1  8 16 45 29.9940000  0  5  1 21 31 25 15
  19607205.920    -5017398.87949  -3904282.95649  19607203.7474   19607209.5884
  20041655.336    -5580151.15549  -4343399.04549  20041657.2114   20041663.2724
  22602068.644      -11300.20249     -8353.49249  22602068.9454   22602075.6044
  19587757.337    -6776272.66049  -5242958.93449  19587756.1064   19587760.6824
  20229922.054   -24162754.84949 -18791567.80449  20229922.4934   20229928.1864
 95  1  8 16 45 59.9940000  0  5  1 21 31 25 15
  19603650.004    -5036079.30049  -3918839.13149  19603649.1874   19603654.8374
  20036791.358    -5605751.34549  -4363347.28349  20036785.5554   20036791.0604
  22601671.895      -13395.47749     -9986.19049  22601669.3734   22601674.8804
  19562173.387    -6910718.10449  -5347721.59949  19562172.3614   19562177.5824
  20201622.994   -24311471.79249 -18907451.13149  20201622.8204   20201627.9844
 95  1  8 16 46 29.9940000  0  5  1 21 31 25 15
  19600136.477    -5054531.42449  -3933217.42549  19600138.0064   19600143.8644
  20031965.563    -5631078.93149  -4383083.06549  20031965.7564   20031971.8534
  22601293.059      -15369.76749    -11524.59849  22601293.1494   22601299.3154
  19536676.076    -7044720.37049  -5452138.94849  19536671.9904   19536677.5594
  20173402.091   -24459765.88249 -19023004.95949  20173403.3844   20173409.0334
 95  1  8 16 46 59.9940000  0  5  1 21 31 25 15
  19596669.640    -5072758.77149  -3947420.55949  19596669.7224   19596674.6164
  20027197.064    -5656121.27349  -4402596.61149  20027200.2584   20027206.7084
  22600944.616      -17218.15549    -12964.91749  22600941.9624   22600948.4494
  19511258.748    -7178270.60249  -5556204.05049  19511257.6984   19511263.8274
  20145266.395   -24607632.08049 -19138225.37249  20145265.2034   20145270.5044
 95  1  8 16 47 29.9940000  0  5  1 21 31 25 15
  19593247.082    -5090777.49849  -3961461.12349  19593240.7514   19593246.2534
  20022492.019    -5680880.70749  -4421889.71349  20022488.4104   20022494.6424
  22600611.407      -18948.49549    -14313.27949  22600612.4544   22600618.5414
  19485924.653    -7311371.62949  -5659919.13949  19485929.9554   19485936.1494
  20117209.837   -24755071.29749 -19253113.06949  20117208.2714   20117215.0804
 95  1  8 16 47 59.9940000  0  5  1 21 31 25 15
  19589849.837    -5108602.20349  -3975350.51249  19589848.6774   19589854.4154
  20017833.221    -5705359.22749  -4440963.91249  20017830.3104   20017837.5154
  22600303.741      -20581.53649    -15585.77349  22600301.8604   22600308.6644
  19460682.501    -7444033.45849  -5763291.96349  19460685.9004   19460690.4734
  20089232.192   -24902081.45149 -19367666.43249  20089233.6114   20089239.8764
 95  1  8 16 48 29.9940000  0  5  1 21 31 25 15
  19586491.022    -5126240.91649  -3989094.97649  19586492.3584   19586497.7524
  20013222.846    -5729560.76349  -4459822.28149  20013226.2164   20013231.6224
  22600007.144      -22118.17549    -16783.19649  22600008.6874   22600015.8474
  19435525.140    -7576263.12149  -5866328.06749  19435523.4624   19435527.9464
  20061339.272   -25048656.34949 -19481880.62649  20061341.2104   20061346.9714
 95  1  8 16 48 59.9940000  0  5  1 21 31 25 15
  19583165.897    -5143712.70649  -4002709.36049  19583167.2304   19583173.0584
  20008679.051    -5753480.59849  -4478461.15149  20008673.4644   20008680.4854
  22599736.498      -23567.89549    -17912.86449  22599733.3724   22599739.1004
  19410448.096    -7708033.27249  -5969006.09549  19410447.7324   19410454.1734
  20033529.383   -25194790.38649 -19595751.30849  20033533.0284   20033538.5794
 95  1  8 16 49 29.9940000  0  5  1 21 31 25 15
  19579874.089    -5161017.20849  -4016193.39749  19579874.6334   19579880.4954
  20004169.004    -5777149.86449  -4496904.75349  20004169.0694   20004175.7034
  22599476.768      -24933.03249    -18976.61949  22599474.1364   22599479.3324
  19385464.952    -7839338.43749  -6071321.78849  19385461.6434   19385466.3474
  20005808.008   -25340486.72749 -19709280.91149  20005807.2754   20005813.5764
 95  1  8 16 49 59.9940000  0  5  1 21 31 25 15
  19576616.863    -5178147.09949  -4029541.38049  19576615.6104   19576620.5064
  19999713.218    -5800577.50049  -4515160.09849  19999711.4394   19999716.8714
  22599236.355      -26214.38049    -19975.10149  22599229.0924   22599236.9944
  19360563.327    -7970172.52949  -6173270.42849  19360564.6144   19360569.1724
  19978164.884   -25485742.89449 -19822467.52849  19978166.3884   19978171.6994
 95  1  8 16 50 29.9940000  0  5  1 21 31 25 15
  19573389.510    -5195093.02049  -4042746.01049  19573390.6394   19573395.3584
  19995302.596    -5823761.02049  -4533225.18549  19995300.0374   19995306.0774
  22599011.779      -27403.12849    -20901.39149  22599003.2144   22599008.6844
  19335758.085    -8100525.45849  -6274844.12849  19335759.0594   19335764.8264
  19950611.494   -25630548.47749 -19935303.04349  19950611.0254   19950616.2784
 95  1  8 16 50 59.9940000  0  5  1 21 31 25 15
  19570197.505    -5211846.53849  -4055800.71249  19570202.4524   19570208.0594
  19990938.001    -5846698.06349  -4551098.25849  19990935.2134   19990940.2754
  22598805.924                                    22598795.430    22598799.8494
  19311043.230    -8230401.95349  -6376046.57549  19311044.5584   19311050.3244
  19923140.999   -25774906.43449 -20047789.76149  19923140.6984   19923145.5394
 95  1  8 16 51 29.9940000  0  4  1 21 25 15
  19567054.591    -5228389.99149  -4068691.72649  19567054.3864   19567060.0154
  19986629.083    -5869372.65749  -4568766.77549  19986620.7564   19986626.2014
  19286419.059    -8359816.03449  -6476888.70749  19286419.3554   19286422.7924
  19895753.083   -25918808.94349 -20159921.58049  19895756.6514   19895762.1674
 95  1  8 16 51 59.9940000  0  4  1 21 25 15
  19563942.280    -5244743.48749  -4081434.73249  19563942.1554   19563947.2994
  19982365.266    -5891768.56749  -4586218.18549  19982358.7574   19982365.1184
  19261873.801    -8488794.41349  -6577391.33949  19261874.4734   19261878.8964
  19868458.091   -26062260.98349 -20271702.38349  19868458.8514   19868464.4644
 95  1  8 16 52 29.9930000  0  4  1 21 25 15
  19560864.663    -5260912.59549  -4094034.04749  19560865.5624   19560871.1574
  19978153.167    -5913865.45249  -4603436.55049  19978153.5724   19978159.8954
  19237415.960    -8617322.21049  -6677542.84649  19237415.7984   19237421.9774
  19841248.730   -26205249.55849 -20383122.04249  19841248.4254   19841254.3914
 95  1  8 16 52 59.9930000  0  4  1 21 25 15
  19557821.589    -5276900.33149  -4106492.02949  19557823.3564   19557828.6614
  19973999.203    -5935655.10049  -4620415.53649  19974006.7274   19974013.0804
  19213045.114    -8745376.15249  -6777325.14049  19213048.3054   19213052.3954
  19814124.962   -26347774.54849 -20494180.46549  19814126.9954   19814133.3084
 95  1  8 16 53 29.9930000  0  4  1 21 25 15
  19554814.275    -5292726.53049  -4118824.15849  19554811.1594   19554816.5894
  19969913.666    -5957150.28049  -4637165.05849  19969916.9394   19969923.1124
  19188770.949    -8872951.86849  -6876734.76949  19188771.1174   19188776.2694
  19787097.580   -26489828.95249 -20604872.19049  19787094.9544   19787101.1534
 95  1  8 16 53 59.9930000  0  4  1 21 25 15
  19551831.159    -5308398.65049  -4131036.21749  19551829.7204   19551834.6914
  19965872.622    -5978367.39149  -4653697.89749  19965879.3574   19965885.3204
  19164587.421    -9000044.47049  -6975767.95949  19164587.8094   19164591.5984
  19760155.289   -26631413.21649 -20715197.58049  19760152.3004   19760158.7834
 95  1  8 16 54 29.9930000  0  4  1 21 25 15
  19548882.104    -5323918.78649  -4143129.84949  19548876.0074   19548880.9794
  19961887.091    -5999317.16249  -4670022.41849  19961892.3714   19961899.3084
  19140495.698    -9126634.26649  -7074409.35149  19140497.7264   19140502.3944
  19733301.324   -26772528.66849 -20825157.66849  19733299.2214   19733304.9114
 95  1  8 16 54 59.9930000  0  4  1 21 25 15
  19545953.963    -5339285.81449  -4155104.17949  19545951.3084   19545957.1624
  19957956.817    -6020014.17849  -4686150.00049  19957953.2654   19957960.0474
  19116500.256    -9252733.13849  -7172668.20149  19116501.2424   19116507.3684
  19706537.244   -26913176.70249 -20934753.52749  19706535.2164   19706540.2414
 95  1  8 16 55 29.9930000  0  4  1 21 25 15
  19543057.448    -5354494.61449  -4166955.21049  19543057.2474   19543063.2574
  19954064.602    -6040448.58449  -4702072.93149  19954064.8664   19954071.3684
  19092597.430    -9378349.59049  -7270551.14549  19092597.6504   19092602.4354
  19679861.062   -27053350.63349 -21043979.97849  19679860.2734   19679866.1214
 95  1  8 16 55 59.9930000  0  4  1 21 25 15
  19540189.759    -5369549.37549  -4178686.21749  19540192.6664   19540197.5874
  19950230.822    -6060613.41049  -4717785.80049  19950228.6424   19950234.7524
  19068785.565    -9503482.10549  -7368056.99049  19068786.1524   19068789.8504
  19653272.296   -27193050.99449 -21152837.40249  19653276.3844   19653281.9214
 95  1  8 16 56 29.9930000  0  4  1 21 25 15
  19537357.577    -5384451.27849  -4190298.10349  19537356.9664   19537362.4814
  19946445.468    -6080496.63849  -4733279.24149  19946445.0764   19946451.6944
  19045061.309    -9628141.57749  -7465194.22549  19045063.7184   19045068.3704
  19626781.070   -27332280.69649 -21261328.07849  19626781.7244   19626787.1084
 95  1  8 16 56 59.9930000  0  4  1 21 25 15
  19534552.244    -5399189.89449  -4201782.76449  19534552.4624   19534557.7024
  19942718.295    -6100086.58649  -4748544.17349  19942717.7514   19942723.9264
  19021434.536    -9752332.39949  -7561966.29449  19021430.9284   19021436.0004
  19600379.260   -27471033.17449 -21369446.90049  19600378.4294   19600383.5054
 95  1  8 16 57 29.9930000  0  4  1 21 25 15
  19531781.731    -5413757.25149  -4213133.97349  19531780.5794   19531785.4624
  19939048.764    -6119375.29549  -4763574.37449  19939047.0134   19939052.7054
  18997888.962    -9876040.31149  -7658362.06549  18997889.7054   18997894.9864
  19574068.862   -27609298.13149 -21477185.82849  19574067.1114   19574072.8764
 95  1  8 16 57 59.9930000  0  5  1 21 31 25 15
  19529041.310    -5428144.97049  -4224345.20349  19529042.4014   19529047.8824
  19935428.994    -6138370.48549  -4778375.81949  19935431.5654   19935438.2754
  22597528.336         -61.20019
  18974444.411    -9999256.05849  -7754374.33249  18974443.2664   18974447.9854
  19547850.775   -27747074.45549 -21584544.00849  19547849.5134   19547854.6374
 95  1  8 16 58 29.9930000  0  5  1 21 31 25 15
  19526340.752    -5442338.60049  -4235405.18549  19526341.4034   19526347.0184
  19931875.644    -6157073.21949  -4792949.39549  19931873.7084   19931880.2984
  22597509.998        -133.26259       -89.58259  22597510.3974   22597518.8924
  18951097.485   -10121964.63449  -7849991.40149  18951092.5194   18951097.3164
  19521727.244   -27884362.15249 -21691521.44049  19521724.0444   19521729.4434
 95  1  8 16 58 59.9930000  0  5  1 21 31 25 15
  19523671.755    -5456343.02949  -4246317.75749  19523676.6204   19523681.7124
  19928365.531    -6175503.77349  -4807310.90249  19928364.8194   19928372.4484
  22597503.934        -176.66949      -123.42549  22597502.6164   22597510.2604
  18927841.803   -10244146.61249  -7945198.12349  18927842.5984   18927846.9334
  19495692.974   -28021157.36649 -21798115.11549  19495693.0254   19495698.4344
 95  1  8 16 59 29.9930000  0  5  1 21 31 25 15
  19521046.700    -5470171.35249  -4257093.07649  19521044.8674   19521050.8694
  19924908.369    -6193673.88549  -4821469.48549  19924908.3274   19924914.4964
  22597499.155        -202.81049      -143.82749  22597497.4194   22597504.8354
  18904692.730   -10365802.58049  -8039994.98649  18904692.0794   18904696.5234
  19469758.727   -28157461.72949 -21904326.30249  19469755.2524   19469760.8384
 95  1  8 16 59 59.9930000  0  5  1 21 31 25 15
  19518447.529    -5483828.06649  -4267734.70449  19518446.7194   19518451.7994
  19921501.201    -6211580.25549  -4835422.49849  19921500.4974   19921507.6594
  22597494.814        -196.76449      -139.15349  22597499.4524   22597506.0244
  18881645.899   -10486929.24349  -8134379.39249  18881642.1874   18881646.3414
  19443914.018   -28293269.01449 -22010150.16349  19443912.1824   19443917.5724
 95  1  8 17  0 29.9930000  0  5  1 21 31 25 15
  19515880.531    -5497329.30849  -4278255.16549  19515877.0624   19515882.1774
  19918147.185    -6229224.88449  -4849171.59849  19918143.0714   19918149.6024
  22597509.300        -144.33349       -98.34349  22597509.7744   22597516.1964
  18858685.997   -10607542.82249  -8228363.99749  18858690.3094   18858694.4324
  19418164.017   -28428575.65849 -22115583.90449  19418163.6644   19418169.7514
 95  1  8 17  0 59.9930000  0  5  1 21 31 25 15
  19513329.762    -5510714.96349  -4288685.55349  19513330.1084   19513335.8554
  19914834.586    -6246627.06949  -4862731.75849  19914832.1374   19914838.5694
  22597524.415         -58.79949       -31.71349  22597525.1904   22597531.7484
  18835825.082   -10727682.26649  -8321979.15249  18835828.4884   18835833.4774
  19392511.358   -28563396.11049 -22220638.80449  19392508.2994   19392514.1684
 95  1  8 17  1 29.9930000  0  5  1 21 31 25 15
  19510808.123    -5523974.56949  -4299017.74249  19510807.1224   19510811.5944
  19911572.174    -6263761.84849  -4876083.57049  19911570.4274   19911577.0784
  22597550.497          73.37049        71.26149  22597549.9324   22597557.6064
  18813056.266   -10847354.75749  -8415230.44549  18813055.2774   18813059.9634
  19366955.103   -28697714.48449 -22325302.47349  19366948.8534   19366954.1544
 95  1  8 17  1 59.9930000  0  5  1 21 31 25 15
  19508310.453    -5537098.97749  -4309244.56549  19508308.7014   19508315.0604
  19908363.436    -6280616.00549  -4889216.71449  19908363.8144   19908369.8594
  22597585.763         252.72649       210.91649  22597585.0764   22597591.7854
  18790369.680   -10966549.28149  -8508109.29449  18790372.7384   18790377.5324
  19341485.881   -28831524.91249 -22429570.33749  19341485.3164   19341490.9464
 95  1  8 17  2 29.9930000  0  5  1 21 31 25 15
  19505836.737    -5550083.41049  -4319362.32049  19505838.5134   19505843.0864
  19905214.399    -6297165.74949  -4902112.65049  19905214.4044   19905220.6584
  22597625.616         464.52349       375.97849  22597625.2194   22597633.1894
  18767777.758   -11085255.00249  -8600607.26049  18767784.3254   18767788.8634
  19316120.646   -28964821.75749 -22533438.01049  19316119.8024   19316125.6424
 95  1  8 17  2 59.9920000  0  5  1 21 31 25 15
  19503401.154    -5562918.40149  -4329363.63549  19503396.8284   19503401.9904
  19902121.406    -6313403.48049  -4914765.46249  19902123.6554   19902131.1024
  22597669.937         702.57949       561.43949  22597670.1194   22597677.8704
  18745298.635   -11203445.28849  -8692703.58049  18745293.2694   18745298.5824
  19290851.491   -29097598.64849 -22636900.52349  19290852.8484   19290859.1054
 95  1  8 17  3 29.9920000  0  5  1 21 31 25 15
  19500983.229    -5575605.67249  -4339249.83949  19500981.8204   19500986.3504
  19899087.760    -6329339.74649  -4927183.34549  19899092.0774   19899097.8984
  22597718.189         953.54849       756.99649  22597717.0384   22597724.2624
  18722900.183   -11321129.67649  -8784405.70249  18722898.7664   18722903.7414
  19265683.822   -29229869.76249 -22739968.91849  19265682.4904   19265688.5774
 95  1  8 17  3 59.9920000  0  5  1 21 25 14 15
  19498587.880    -5588151.90849  -4349026.13449  19498593.4714   19498600.2234
  19896114.139    -6344974.41649  -4939366.25449  19896116.5744   19896123.0684
  18700603.029   -11438298.40949  -8875706.01649  18700602.5274   18700607.4844
  22488186.166     -491657.78359   -357231.88359  22488186.2394   22488192.1734
  19240614.673   -29361629.25049 -22842638.65549  19240610.1144   19240615.2454
 95  1  8 17  4 29.9920000  0  5  1 21 25 14 15
  19496233.678    -5600564.33549  -4358698.16449  19496232.8034   19496237.2184
  19893191.055    -6360319.58149  -4951323.54949  19893196.5554   19893202.7664
  18678402.662   -11554967.22449  -8966616.78049  18678401.6924   18678405.8094
  22457832.736     -651171.74949   -481528.46049  22457831.8954   22457838.9434
  19215636.909   -29492872.39649 -22944906.04549  19215635.1584   19215640.5824
 95  1  8 17  4 59.9920000  0  5  1 21 25 14 15
  19493898.297    -5612843.69249  -4368266.53349  19493896.0234   19493901.7584
  19890325.106    -6375409.16049  -4963081.68749  19890325.3024   19890331.9464
  18656293.460   -11671139.82249  -9057140.87949  18656294.0924   18656298.6024
  22427464.778     -810762.08849   -605884.55149  22427463.3024   22427469.6164
  19190754.882   -29623599.04249 -23046770.96049  19190758.1464   19190764.2494
 95  1  8 17  5 29.9920000  0  5  1 21 25 14 15
  19491584.622    -5624999.03349  -4377738.20649  19491581.6984   19491587.7604
  19887503.454    -6390251.17549  -4974646.94649  19887500.7734   19887507.3304
  18634274.843   -11786836.25649  -9147293.94749  18634277.6454   18634282.5034
  22397076.126     -970438.01749   -730307.31649  22397077.8644   22397083.7554
  19165977.292   -29753813.07649 -23148236.43549  19165979.4524   19165985.2504
 95  1  8 17  5 59.9920000  0  5  1 21 25 14 15
  19489294.326    -5637020.19249  -4387105.37849  19489296.3224   19489301.1694
  19884724.580    -6404849.02149  -4986021.89849  19884722.7224   19884729.3384
  18612353.692   -11902032.90549  -9237057.56149  18612356.2414   18612361.2864
  22366676.027    -1130196.90549   -854794.72849  22366676.4394   22366683.2464
  19141299.214   -29883508.81949 -23249298.05849  19141299.4444   19141304.8564
 95  1  8 17  6 29.9920000  0  5  1 21 25 14 15
  19487036.702    -5648891.95449  -4396356.09849  19487036.1274   19487040.6214
  19881989.974    -6419201.78649  -4997205.92749  19881991.6954   19881998.3204
  18590535.735   -12016703.84649  -9326411.53849  18590535.2204   18590539.8334
  22336263.969    -1290008.85649   -979323.49049  22336265.2714   22336271.6914
  19116716.862   -30012678.32949 -23349949.63149  19116719.5834   19116724.9574
 95  1  8 17  6 59.9920000  0  5  1 21 25 14 15
  19484806.713    -5660625.58449  -4405499.19249  19484802.8724   19484809.0604
  19879307.316    -6433312.72249  -5008201.49949  19879306.2574   19879312.6594
  18568818.001   -12130848.16149  -9415355.15149  18568814.6544   18568818.8304
  22305847.774    -1449870.86749  -1103891.24849  22305844.6044   22305851.1514
  19092237.423   -30141330.38449 -23450197.98649  19092237.4984   19092243.1554
 95  1  8 17  7 29.9920000  0  5  1 21 25 14 15
  19482601.565    -5672212.90249  -4414528.27749  19482598.9144   19482602.9754
  19876674.813    -6447160.83649  -5018992.25549  19876671.5714   19876677.2444
  18547193.616   -12244462.60249  -9503885.88349  18547195.1184   18547199.1324
  22275418.648    -1609766.15849  -1228484.94849  22275417.1454   22275423.6204
  19067855.070   -30269459.79049 -23550039.09149  19067855.5124   19067860.7564
 95  1  8 17  7 59.9920000  0  5  1 21 25 14 15
  19480423.918    -5683658.98249  -4423447.32749  19480419.9454   19480426.1964
  19874086.913    -6460734.76349  -5029569.38249  19874088.3944   19874093.7064
  18525675.437   -12357525.82149  -9591987.09349  18525678.7774   18525684.4544
  22244986.626    -1769690.65949  -1353101.39049  22244985.0754   22244991.3664
  19043576.440   -30397060.27749 -23649468.04549  19043573.6444   19043579.3764
 95  1  8 17  8 29.9920000  0  5  1 21 25 14 15
  19478265.647    -5694986.27049  -4432273.77949  19478264.4974   19478269.3234
  19871559.497    -6474027.85649  -5039927.67949  19871559.3084   19871565.1294
  18504269.699   -12470062.37249  -9679677.90149  18504264.1774   18504269.4954
  22214545.113    -1929654.37749  -1477748.41349  22214544.4444   22214551.2074
  19019396.329   -30524135.56749 -23748487.75549  19019391.6504   19019398.1954
 95  1  8 17  8 59.9920000  0  5  1 21 25 14 15
  19476129.598    -5706204.45549  -4441015.23049  19476130.5964   19476135.3714
  19869082.268    -6487035.87349  -5050063.80449  19869083.4154   19869089.5924
  18482946.149   -12582092.85449  -9766974.37949  18482946.7254   18482949.9184
  22184094.428    -2089674.69549  -1602439.54649  22184093.3694   22184100.3054
  18995311.874   -30650688.77449 -23847100.64149  18995310.3504   18995315.8284
 95  1  8 17  9 29.9920000  0  5  1 21 25 14 15
  19474009.812    -5717319.54749  -4449676.34549  19474014.0114   19474020.2144
  19866663.942    -6499751.00449  -5059971.73749  19866664.1874   19866669.7904
  18461726.827   -12693615.18149  -9853874.87949  18461724.2604   18461728.1414
  22153629.898    -2249758.19549  -1727179.92549  22153630.3194   22153636.9404
  18971326.034   -30776719.25349 -23945306.21249  18971327.0724   18971332.8924
 95  1  8 17  9 59.9920000  0  5  1 21 25 14 15
  19471919.391    -5728341.69949  -4458265.04049  19471917.7144   19471922.7104
  19864300.658    -6512177.40349  -5069654.65749  19864298.9534   19864306.2244
  18440604.225   -12804622.34749  -9940373.95749  18440599.7814   18440604.6634
  22123152.035    -2409914.13749  -1851976.78149  22123153.6754   22123160.5964
  18947439.949   -30902220.99349 -24043099.77649  18947444.9514   18947450.5454
 95  1  8 17 10 29.9920000  0  5  1 21 25 14 15
  19469837.728    -5739263.84149  -4466775.82049  19469838.9184   19469843.8654
  19861993.087    -6524316.08249  -5079113.44849  19861990.9004   19861995.4884
  18419570.451   -12915127.09349 -10026481.54949  18419571.0824   18419575.8244
  22092660.514    -2570137.40049  -1976826.08549  22092664.5064   22092670.9094
  18923659.213   -31027190.10049 -24140478.29949  18923663.7424   18923669.8564
 95  1  8 17 10 59.9920000  0  5  1 21 25 14 15
  19467785.974    -5750072.76449  -4475198.35349  19467781.8734   19467788.2844
  19859728.929    -6536177.68549  -5088356.27149  19859732.4364   19859737.6384
  18398643.980   -13025127.08649 -10112195.81649  18398638.9124   18398643.8314
  22062165.055    -2730421.44949  -2101722.74149  22062163.7294   22062169.8054
  18899986.520   -31151623.97449 -24237439.75549  18899985.2534   18899990.9114
 95  1  8 17 11 29.9920000  0  5  1 21 25 14 15
  19465747.985    -5760764.27949  -4483529.43149  19465747.8904   19465752.5444
  19857528.486    -6547774.54949  -5097392.83249  19857526.2434   19857532.4624
  18377804.326   -13134618.91049 -10197514.11249  18377803.5894   18377807.8274
  22031651.431    -2890759.87249  -2226661.73149  22031651.3404   22031658.7774
  18876410.079   -31275520.85049 -24333982.76849  18876408.5144   18876413.9834
 95  1  8 17 11 59.9920000  0  5  1 21 25 14 15
  19463735.144    -5771335.89349  -4491767.05249  19463734.9964   19463741.6564
  19855361.745    -6559127.38849  -5106239.23449  19855365.2994   19855371.1464
  18357061.299   -13243614.21749 -10282445.51949  18357062.2384   18357066.8804
  22001126.676    -3051160.72349  -2351649.37349  22001128.0644   22001135.5124
  18852934.395   -31398883.37149 -24430109.41749  18852933.5854   18852938.3734
 95  1  8 17 12 29.9920000  0  5  1 21 25 14 15
  19461748.783    -5781788.01449  -4499911.58249  19461747.1934   19461752.1954
  19853253.553    -6570236.00549  -5114895.33849  19853251.0974   19853257.1934
  18336407.618   -13352112.77349 -10366989.84249  18336415.6724   18336420.9424
  21970596.346    -3211609.12949  -2476674.09049  21970596.2364   21970602.7694
  18829562.063   -31521715.13749 -24525822.47949  18829559.1204   18829564.6334
 95  1  8 17 12 59.9920000  0  5  1 21 25 14 15
  19459781.569    -5792112.98449  -4507957.02349  19459780.8674   19459788.0504
  19851186.208    -6581100.70149  -5123361.38749  19851183.5924   19851190.2684
  18315865.445   -13460093.75049 -10451130.85649  18315867.3244   18315872.7394
  21940060.950    -3372093.37649  -2601726.73849  21940057.5914   21940063.2204
  18806285.831   -31644004.43949 -24621112.83349  18806288.1844   18806293.9704
 95  1  8 17 13 29.9910000  0  5  1 21 25 14 15
  19457840.098    -5802333.36549  -4515920.97849  19457837.5454   19457842.5894
  19849158.850    -6591722.46949  -5131638.12349  19849162.9904   19849168.9214
  18295422.283   -13567543.92149 -10534858.25449  18295420.1674   18295424.8434
  21909513.373    -3532621.36249  -2726813.44149  21909509.4194   21909515.5884
  18783119.142   -31765751.77949 -24715980.89449  18783120.9684   18783126.5374
 95  1  8 17 13 59.9910000  0  5  1 21 25 14 15
  19455911.814    -5812466.15849  -4523816.67749  19455909.1864   19455914.4844
  19847183.836    -6602092.12449  -5139718.41549  19847189.8034   19847195.8404
  18275069.189   -13674460.19949 -10618169.62949  18275074.8134   18275079.7274
  21878948.251    -3693205.87249  -2851944.16149  21878951.4204   21878958.4134
  18760055.871   -31886960.97849 -24810429.62149  18760055.5604   18760061.2274
 95  1  8 17 14 29.9910000  0  5  1 21 25 14 15
  19453996.709    -5822520.36849  -4531651.13949  19453995.4384   19454001.1154
  19845265.814    -6612201.33749  -5147595.75949  19845266.4114   19845271.7134
  18254832.365   -13780832.97649 -10701057.50149  18254833.0754   18254838.1244
  21848386.079    -3853848.88349  -2977120.46749  21848382.7914   21848388.3644
  18737094.201   -32007627.11849 -24904455.18349  18737093.3354   18737099.2824
 95  1  8 17 14 59.9910000  0  5  1 21 25 14 15
  19452097.834    -5832509.98849  -4539435.27949  19452095.0914   19452100.2624
  19843395.934    -6622059.50849  -5155277.47449  19843390.5714   19843396.5294
  18234684.394   -13886684.31849 -10783539.07749  18234690.5004   18234694.7474
  21817796.046    -4014576.75249  -3102362.94249  21817797.4754   21817802.5004
  18714234.551   -32127758.95549 -24998064.40949  18714232.9154   18714238.5634
 95  1  8 17 15 29.9910000  0  5  1 21 25 14 15
  19450208.918    -5842436.19849  -4547169.99749  19450205.5994   19450212.1974
  19841565.902    -6631647.68149  -5162748.83249  19841565.0744   19841571.4104
  18214650.614   -13992008.88349 -10865610.15649  18214647.1554   18214652.3784
  21787197.976    -4175379.79949  -3227664.02049  21787197.0094   21787203.2924
  18691474.070   -32247352.11849 -25091253.89649  18691475.1754   18691480.6324
 95  1  8 17 15 59.9910000  0  5  1 21 25 14 15
  19448328.790    -5852294.62149  -4554851.91749  19448330.2874   19448335.1174
  19839794.484    -6640965.55449  -5170009.52449  19839791.8364   19839799.0834
  18194700.086   -14096826.09849 -10947285.89649  18194701.7914   18194706.1104
  21756582.877    -4336252.21549  -3353019.12149  21756584.3244   21756590.5904
  18668818.368   -32366405.00949 -25184022.38249  18668820.0774   18668825.7794
 95  1  8 17 16 29.9910000  0  5  1 21 25 14 15
  19446467.842    -5862075.47949  -4562473.35849  19446468.3924   19446474.9224
  19838067.757    -6650009.83349  -5177057.05749  19838070.6374   19838078.1314
  18174849.598   -14201146.16749 -11028574.26049  18174849.8044   18174854.7464
  21725965.356    -4497185.05349  -3478421.31649  21725960.1584   21725965.5724
  18646267.471   -32484912.25449 -25276365.69049  18646268.7744   18646274.9194
 95  1  8 17 16 59.9910000  0  5  1 21 25 14 15
  19444624.857    -5871779.26649  -4570034.78149  19444621.7384   19444627.3384
  19836403.517    -6658777.28049  -5183888.89549  19836403.4434   19836409.5564
  18155094.795   -14304968.27549 -11109474.60249  18155093.3154   18155098.5994
  21695319.759    -4658162.89249  -3603858.59549  21695326.6074   21695332.3784
  18623823.499   -32602866.67149 -25368278.22649  18623822.8734   18623828.7924
 95  1  8 17 17 29.9910000  0  5  1 21 25 14 15
  19442787.459    -5881411.37849  -4577540.32649  19442789.3954   19442794.3744
  19834785.658    -6667277.06049  -5190512.13949  19834785.3284   19834791.8704
  18135433.577   -14408291.86049 -11189986.48649  18135431.2754   18135436.4624
  21664677.208    -4819202.23749  -3729343.76249  21664681.3184   21664688.0374
  18601478.815   -32720273.39049 -25459763.98649  18601481.0084   18601487.1614
 95  1  8 17 17 59.9910000  0  5  1 21 25 14 15
  19440968.859    -5890972.65749  -4584990.68549  19440970.4314   19440975.4344
  19833218.605    -6675519.71749  -5196935.02049  19833216.7034   19833223.1424
  18115862.220   -14511124.55949 -11270115.85549  18115863.1314   18115867.9544
  21634023.794    -4980314.97649  -3854886.11449  21634023.0174   21634028.8214
  18579241.236   -32837132.96649 -25550823.40249  18579243.8484   18579249.5474
 95  1  8 17 18 29.9910000  0  5  1 21 25 14 15
  19439164.106    -5900457.37049  -4592381.37149  19439165.1224   19439170.1914
  19831696.320    -6683506.12349  -5203158.24449  19831697.0044   19831703.8064
  18096392.911   -14613446.18249 -11349846.98649  18096392.0014   18096396.7634
  21603348.490    -5141497.92549  -3980483.21149  21603350.7954   21603357.2794
  18557112.032   -32953445.75749 -25641456.75849  18557110.1754   18557115.7414
 95  1  8 17 18 59.9910000  0  5  1 21 25 14 15
  19437373.364    -5909871.29149  -4599716.91449  19437373.7004   19437379.1964
  19830223.553    -6691246.44849  -5209189.71449  19830223.9604   19830231.3564
  18077020.442   -14715246.23849 -11429171.71249  18077020.0234   18077025.1394
  21572665.166    -5302763.79949  -4106144.92449  21572662.9574   21572669.2324
  18535077.305   -33069220.59649 -25731670.92149  18535078.3524   18535084.3974
 95  1  8 17 19 29.9910000  0  5  1 21 25 14 15
  19435599.767    -5919198.36049  -4606984.77549  19435598.7614   19435603.8334
  19828795.256    -6698742.98149  -5215031.20649  19828796.9484   19828804.2274
  18057745.381   -14816521.53749 -11508087.51449  18057747.6564   18057752.9164
  21541958.823    -5464102.70849  -4231863.58149  21541961.0424   21541967.6554
  18513151.467   -33184455.58549 -25821464.43049  18513150.0354   18513156.2574
 95  1  8 17 19 59.9910000  0  5  1 21 25 14 15
  19433840.808    -5928441.92349  -4614187.54549  19433839.9114   19433844.9554
  19827415.091    -6706013.21449  -5220696.36249  19827414.8694   19827420.8034
  18038575.473   -14917284.11249 -11586603.80149  18038573.9704   18038578.1414
  21511251.462    -5625497.49249  -4357625.77949  21511248.7594   21511255.0494
  18491323.782   -33299156.46349 -25910841.73849  18491323.5424   18491329.7064
 95  1  8 17 20 29.9910000  0  5  1 21 25 14 15
  19432095.984    -5937600.04849  -4621323.76349  19432096.8474   19432102.4074
  19826075.617    -6713053.40549  -5226182.25349  19826075.1164   19826081.5764
  18019499.376   -15017525.29249 -11664713.80649  18019497.8114   18019503.0804
  21480532.170    -5786947.29849  -4483430.81449  21480526.0434   21480532.7644
  18469601.597   -33413318.43149 -25999799.11349  18469599.4124   18469605.1214
 95  1  8 17 20 59.9910000  0  5  1 21 25 14 15
  19430373.999    -5946684.93749  -4628402.90049  19430368.7804   19430373.6394
  19824775.438    -6719868.15749  -5231492.51049  19824777.5904   19824784.4404
  18000515.807   -15117272.34049 -11742438.76549  18000516.9084   18000522.1404
  21449795.746    -5948455.71049  -4609281.51749  21449792.0394   21449798.1354
  18447979.512   -33526938.87649 -26088334.53149  18447978.0974   18447983.5634
 95  1  8 17 21 29.9910000  0  5  1 21 25 14 15
  19428653.438    -5955703.95549  -4635430.71449  19428652.5244   19428657.3734
  19823525.990    -6726464.95949  -5236632.90649  19823521.9964   19823528.7254
  17981628.205   -15216544.84149 -11819793.95249  17981626.1584   17981630.8314
  21419047.440    -6110024.17149  -4735179.04449  21419046.4644   21419052.1024
  18426462.602   -33640021.65349 -26176450.99049  18426459.0264   18426464.3464
 95  1  8 17 21 59.9910000  0  5  1 21 25 14 15
  19426940.662    -5964690.30749  -4642433.08149  19426942.0534   19426947.3614
  19822312.029    -6732847.72849  -5241606.51049  19822307.9304   19822314.7254
  17962823.088   -15315342.30449 -11896778.97749  17962825.2584   17962830.3704
  21388280.865    -6271679.87149  -4861144.52649  21388284.3364   21388290.7274
  18405044.148   -33752577.10549 -26264156.54349  18405040.6084   18405046.1254
 95  1  8 17 22 29.9910000  0  5  1 21 25 14 15
  19425235.182    -5973654.98849  -4649418.55149  19425236.3764   19425241.5644
  19821135.058    -6739004.40249  -5246403.95449  19821136.5144   19821143.1094
  17944120.057   -15413664.03149 -11973393.29649  17944115.4514   17944120.5434
  21357503.461    -6433435.71549  -4987188.03649  21357503.3114   21357509.4324
  18383721.555   -33864609.63249 -26351454.61349  18383721.6664   18383727.0954
 95  1  8 17 22 59.9910000  0  5  1 21 25 14 15
  19423532.008    -5982602.37449  -4656390.54649  19423533.7124   19423537.8194
  19820004.456    -6744929.91449  -5251021.29749  19820008.1034   19820015.1444
  17925493.974   -15511513.34249 -12049639.50149  17925495.5924   17925500.4534
  21326707.241    -6595278.25949  -5113299.10649  21326706.1694   21326711.7074
  18362504.105   -33976116.85249 -26438343.36349  18362502.5794   18362507.9344
 95  1  8 17 23 29.9910000  0  5  1 21 25 14 15
  19421841.667    -5991511.10049  -4663332.39549  19421838.9654   19421843.6784
  19818930.510    -6750607.54649  -5255445.47449  19818928.3994   19818935.0734
  17906974.306   -15608849.91349 -12125486.16449  17906972.9714   17906977.8214
  21295891.220    -6757195.64549  -5239468.48949  21295893.6944   21295900.0784
  18341390.922   -34087078.49849 -26524806.99449  18341387.1004   18341392.9184
 95  1  8 17 23 59.9900000  0  5  1 21 25 14 15
  19420142.109    -6000408.81249  -4670265.70149  19420144.6434   19420151.0234
  19817893.654    -6756059.42749  -5259693.67749  19817891.3674   19817896.9964
  17888546.087   -15705688.75849 -12200944.99949  17888545.3764   17888549.6764
  21265060.131    -6919206.84549  -5365710.95149  21265063.2554   21265070.4174
  18320370.141   -34197508.16749 -26610856.08549  18320372.7994   18320378.9204
 95  1  8 17 24 29.9900000  0  5  1 21 25 14 15
  19418459.416    -6009282.16349  -4677180.01749  19418457.5354   19418462.0934
  19816890.634    -6761300.59049  -5263777.73249  19816893.9464   19816901.1464
  17870204.564   -15802047.49949 -12276029.72049  17870208.2994   17870213.4164
  21234219.129    -7081320.10649  -5492032.94849  21234215.6964   21234221.3604
  18299460.275   -34307405.18149 -26696490.13149  18299460.3874   18299465.9664
 95  1  8 17 24 59.9900000  0  5  1 21 25 14 15
  19416770.359    -6018131.61049  -4684075.71149  19416771.7754   19416777.7994
  19815928.400    -6766346.38949  -5267709.60549  19815934.4774   19815939.9724
  17851967.873   -15897918.00349 -12350734.00149  17851964.8984   17851969.7684
  21203348.231    -7243534.91749  -5618434.08849  21203346.8474   21203353.0584
  18278654.178   -34416761.98849 -26781703.23849  18278650.1014   18278655.7084
 95  1  8 17 25 29.9900000  0  5  1 21 25 14 15
  19415101.782    -6026939.48749  -4690939.01049  19415097.5454   19415101.9584
  19815009.256    -6771191.80449  -5271485.24549  19815012.1624   19815018.1424
  17833817.677   -15993283.14049 -12425044.49249  17833817.6114   17833822.4644
  21172458.633    -7405846.05849  -5744910.26349  21172459.5804   21172466.1934
  18257943.889   -34525566.99949 -26866486.36149  18257945.1044   18257951.4974
 95  1  8 17 25 59.9900000  0  5  1 21 25 14 15
  19413423.730    -6035716.82849  -4697778.47949  19413426.3464   19413431.7904
  19814129.234    -6775837.01349  -5275104.95749  19814128.3184   19814134.3464
  17815760.148   -16088159.50549 -12498974.12049  17815763.4064   17815768.4914
  21141550.543    -7568254.40149  -5871462.22349  21141554.6684   21141560.5714
  18237343.484   -34633830.86949 -26950847.82449  18237343.6924   18237349.2174
 95  1  8 17 26 29.9900000  0  5  1 21 25 14 15
  19411761.388    -6044457.52549  -4704589.44649  19411762.6174   19411768.8514
  19813282.328    -6780265.45249  -5278555.70349  19813285.8084   19813291.2424
  17797806.785   -16182534.83149 -12572513.32349  17797804.2124   17797809.1144
  21110636.379    -7730743.16249  -5998076.80249  21110634.4504   21110640.2324
  18216847.992   -34741549.67849 -27034784.56549  18216845.5444   18216850.6584
 95  1  8 17 26 59.9900000  0  5  1 21 25 14 15
  19410106.367    -6053167.71049  -4711376.62049  19410105.8984   19410111.4034
  19812486.368    -6784455.55649  -5281820.77549  19812488.1634   19812494.2204
  17779941.388   -16276404.90649 -12645658.83449  17779941.3494   17779945.9794
  21079704.102    -7893286.06949  -6124733.56249  21079703.4004   21079709.1424
  18196450.876   -34848724.22449 -27118297.20549  18196451.0044   18196456.2774
 95  1  8 17 27 29.9900000  0  5  1 21 25 14 15
  19408452.793    -6061850.76449  -4718142.67349  19408453.2784   19408458.5834
  19811736.374    -6788407.57849  -5284900.27049  19811735.8284   19811742.1454
  17762177.082   -16369768.15049 -12718409.40749  17762174.9674   17762179.7494
  21048761.374    -8055869.90149  -6251422.28449  21048764.3334   21048770.3954
  18176161.401   -34955355.00849 -27201386.13049  18176159.2604   18176165.5754
 95  1  8 17 27 59.9900000  0  5  1 21 25 14 15
  19406807.468    -6070506.00549  -4724887.02549  19406806.2004   19406811.9834
  19811038.564    -6792116.73849  -5287790.59449  19811030.1464   19811036.3864
  17744503.897   -16462615.69249 -12790758.13449  17744506.6604   17744511.3544
  21017819.792    -8218481.96149  -6378132.98149  21017820.4284   21017826.0374
  18155974.573   -35061432.02349 -27284043.55249  18155973.3724   18155979.5804
 95  1  8 17 28 29.9900000  0  5  1 21 25 14 15
  19405166.475    -6079148.85949  -4731621.73349  19405161.3714   19405166.2604
  19810368.995    -6795618.76849  -5290519.50949  19810364.1554   19810370.1964
  17726930.965   -16554967.53849 -12862720.61149  17726932.4164   17726937.3724
  20986862.863    -8381138.62449  -6504878.41749  20986868.1394   20986872.6994
  18135886.522   -35166971.51449 -27366282.12649  18135890.0904   18135895.9164
 95  1  8 17 28 59.9900000  0  5  1 21 25 14 15
  19403526.062    -6087761.65249  -4738333.00349  19403522.6704   19403527.8224
  19809739.903    -6798913.33249  -5293086.71649  19809736.4604   19809742.9124
  17709452.064   -16646815.30849 -12934290.29749  17709454.4134   17709459.5074
  20955909.591    -8543832.46849  -6631652.84949  20955907.8314   20955914.2744
  18115916.202   -35271954.21449 -27448086.83749  18115912.9254   18115918.6414
 95  1  8 17 29 29.9900000  0  5  1 21 25 14 15
  19401889.742    -6096355.42349  -4745029.48449  19401886.9264   19401893.5324
  19809146.560    -6802015.96149  -5295504.35749  19809146.0914   19809153.0274
  17692075.760   -16738164.20949 -13005471.25749  17692071.8064   17692076.4374
  20924933.922    -8706594.05649  -6758480.01949  20924934.7024   20924941.9454
  18096044.071   -35376384.95149 -27529461.44449  18096040.5584   18096046.0214
 95  1  8 17 29 59.9900000  0  5  1 21 25 14 15
  19400253.937    -6104938.64349  -4751717.74749  19400254.4944   19400259.5694
  19808594.423    -6804921.31449  -5297768.33649  19808593.6404   19808599.6764
  17674778.954   -16829034.00849 -13076278.88949  17674779.5924   17674784.1064
  20893950.179    -8869442.84549  -6885375.15449  20893946.0544   20893952.8934
  18076273.791   -35480273.54749 -27610413.60149  18076270.9194   18076276.6424
 95  1  8 17 30 29.9900000  0  5  1 21 25 14 15
  19398621.313    -6113511.64549  -4758398.03049  19398622.3924   19398628.1044
  19808085.521    -6807609.38449  -5299862.97949  19808081.2994   19808089.1294
  17657584.545   -16919408.73349 -13146700.74349  17657581.9814   17657586.7084
  20862938.884    -9032373.90649  -7012334.38349  20862941.7704   20862947.7164
  18056606.413   -35583609.72249 -27690935.30449  18056606.8714   18056612.2354
 95  1  8 17 30 59.9900000  0  5  1 21 25 14 15
  19396992.169    -6122069.78049  -4765066.72549  19396993.8684   19396999.7334
  19807621.396    -6810059.95249  -5301772.57549  19807616.7104   19807622.3644
  17640481.322   -17009268.37449 -13216721.24049  17640482.1434   17640487.0674
  20831929.297    -9195386.49749  -7139357.20249  20831921.7664   20831927.0654
  18037047.996   -35686386.23249 -27771020.90349  18037049.3134   18037054.9514
 95  1  8 17 31 29.9900000  0  5  1 21 25 14 15
  19395370.645    -6130608.96249  -4771720.66349  19395368.8674   19395374.6154
  19807195.356    -6812267.45349  -5303492.74249  19807196.0464   19807200.9124
  17623484.345   -17098605.16549 -13286334.32649  17623482.0204   17623486.3154
  20800884.369    -9358481.36749  -7266444.10149  20800885.9694   20800891.3574
  18017600.312   -35788603.70449 -27850670.88149  18017597.7104   18017603.6454
 95  1  8 17 31 59.9900000  0  5  1 21 25 14 15
  19393747.774    -6139122.77249  -4778354.83549  19393748.8454   19393754.7224
  19806825.386    -6814237.09249  -5305027.51949  19806820.4214   19806827.1254
  17606583.926   -17187415.21449 -13355536.96249  17606581.9284   17606586.4784
  20769836.253    -9521650.75849  -7393589.08749  20769835.2384   20769841.0324
  17998256.144   -35890262.00649 -27929885.14449  17998252.6394   17998258.7564
 95  1  8 17 32 29.9900000  0  5  1 21 25 14 15
  19392132.983    -6147606.19049  -4784965.32149  19392134.6844   19392140.6314
  19806489.972    -6815979.89449  -5306385.63549  19806489.3044   19806496.1884
  17589781.206   -17275697.36449 -13424328.24149  17589782.1864   17589787.3174
  20738775.608    -9684892.77849  -7520790.61649  20738771.7064   20738776.9914
  17979016.841   -35991360.54449 -28008663.22849  17979014.4654   17979019.9164
 95  1  8 17 32 59.9900000  0  6  1 21 25 14 29 15
  19390531.339    -6156047.80449  -4791543.22049  19390528.4984   19390533.6784
  19806199.170    -6817520.70249  -5307586.30849  19806196.6794   19806203.4014
  17573077.704   -17363480.37649 -13492730.58949  17573077.7764   17573082.4694
  20707690.669    -9848204.81349  -7648046.74249  20707694.4894   20707699.9814
  21756998.695    -3690468.37759  -2856837.74959  21756999.6464   21757005.5514
  17959884.999   -36091905.80849 -28087010.19449  17959881.3074   17959886.6364
 95  1  8 17 33 29.9900000  0  6  1 21 25 14 29 15
  19388935.810    -6164434.83249  -4798078.58949  19388932.3384   19388937.9954
  19805943.456    -6818845.81149  -5308618.86749  19805943.5014   19805951.1354
  17556466.133   -17450770.11149 -13560748.56149  17556466.8664   17556471.6414
  20676611.859   -10011558.09149  -7775334.96149  20676608.5854   20676614.8654
  21728416.401    -3840641.42549  -2973855.64349  21728422.6844   21728428.2524
  17940858.291   -36191881.59449 -28164913.41149  17940856.7284   17940862.0464
 95  1  8 17 33 59.9890000  0  6  1 21 25 14 29 15
  19387340.050    -6172794.82149  -4804592.87849  19387341.5214   19387346.9244
  19805738.462    -6819966.45249  -5309492.17549  19805730.0274   19805737.9574
  17539946.358   -17537588.45249 -13628399.21449  17539946.2424   17539950.7514
  20645518.796   -10174954.66049  -7902656.92249  20645516.6214   20645521.9074
  21699859.474    -3990739.89749  -3090815.43249  21699859.1114   21699865.5194
  17921943.066   -36291297.50349 -28242380.36349  17921938.3774   17921943.8954
 95  1  8 17 34 29.9890000  0  6  1 21 25 14 29 15
  19385752.477    -6181148.67649  -4811102.41549  19385751.2804   19385757.2024
  19805558.882    -6820889.87849  -5310211.83749  19805554.9054   19805561.9554
  17523507.681   -17623961.67449 -13695703.02049  17523509.8354   17523514.6334
  20614412.889   -10338410.49849  -8030025.15149  20614411.7824   20614417.2884
  21671310.244    -4140792.17549  -3207739.27149  21671306.5664   21671311.5384
  17903121.306   -36390166.49849 -28319421.14349  17903124.1824   17903129.8084
 95  1  8 17 34 59.9890000  0  6  1 21 25 14 29 15
  19384157.257    -6189521.39049  -4817626.62849  19384158.3404   19384164.3564
  19805415.505    -6821627.72849  -5310786.79749  19805415.1424   19805421.6864
  17507160.942   -17709883.18449 -13762654.84449  17507159.5184   17507164.7014
  20583292.489   -10501927.99849  -8157441.37349  20583295.0434   20583301.4054
  21642765.339    -4290801.14849  -3324629.31449  21642760.9014   21642766.3514
  17884411.625   -36488490.56649 -28396037.29949  17884413.8544   17884419.3274
 95  1  8 17 35 29.9890000  0  6  1 21 25 14 29 15
  19382560.254    -6197928.49349  -4824177.63049  19382558.6664   19382564.6984
  19805314.955    -6822151.39449  -5311194.88949  19805314.4144   19805322.1064
  17490897.801   -17795327.26249 -13829234.64549  17490900.3944   17490904.7154
  20552168.441   -10665503.58049  -8284902.78249  20552167.2104   20552173.6044
  21614227.776    -4440755.06649  -3441476.47849  21614225.5504   21614231.3464
  17865808.817   -36586255.70549 -28472217.93349  17865809.7214   17865815.5014
 95  1  8 17 35 59.9890000  0  6  1 21 25 14 29 15
  19380949.916    -6206383.04149  -4830765.60749  19380949.6684   19380955.8064
  19805253.110    -6822466.10649  -5311440.17549  19805255.1384   19805262.7714
  17474733.231   -17880283.41249 -13895434.24349  17474733.3874   17474738.0674
  20521025.145   -10829160.60149  -8412427.76849  20521024.6044   20521030.2454
  21585702.538    -4590656.89749  -3558283.08349  21585699.4944   21585704.7874
  17847312.120   -36683462.78449 -28547963.71549  17847312.0644   17847317.5174
 95  1  8 17 36 29.9890000  0  6  1 21 25 14 29 15
  19379328.540    -6214877.36549  -4837384.60549  19379333.0284   19379339.4504
  19805230.411    -6822575.71949  -5311525.67449  19805234.2954   19805241.7624
  17458658.418   -17964744.44049 -13961248.02349  17458660.9844   17458665.8894
  20489866.606   -10992889.53449  -8540008.77349  20489867.4664   20489874.3354
  21557185.698    -4740485.40649  -3675032.52549  21557189.0624   21557193.7694
  17828923.424   -36780104.71549 -28623269.12149  17828921.5204   17828927.2444
 95  1  8 17 36 59.9890000  0  6  1 21 25 14 29 15
  19377713.024    -6223390.55549  -4844018.28849  19377713.2074   19377719.2524
  19805259.914    -6822459.45749  -5311435.10149  19805257.0694   19805263.1394
  17442686.765   -18048696.38849 -14026665.12349  17442685.3394   17442690.1944
  20458701.658   -11156670.20949  -8667630.03749  20458700.8044   20458708.2244
  21528689.844    -4890219.39349  -3791708.30349  21528695.5424   21528701.0134
  17810645.250   -36876168.74749 -28698124.22049  17810641.0914   17810647.0214
 95  1  8 17 37 29.9890000  0  6  1 21 25 14 29 15
  19376088.257    -6231921.27549  -4850665.62349  19376090.5704   19376095.5314
  19805328.299    -6822111.66049  -5311164.12049  19805322.9664   19805330.5654
  17426799.567   -18132169.23949 -14091708.89549  17426801.0124   17426805.8464
  20427527.893   -11320504.00749  -8795292.70049  20427525.4394   20427531.4304
  21500219.552    -5039871.80649  -3908320.49849  21500218.0944   21500222.3074
  17792474.398   -36971666.20549 -28772537.82349  17792468.7464   17792474.5294
 95  1  8 17 37 59.9890000  0  6  1 21 25 14 29 15
  19374467.109    -6240439.57249  -4857303.28049  19374469.3894   19374475.1324
  19805433.250    -6821539.81149  -5310718.61649  19805431.6604   19805439.0624
  17411008.438   -18215161.39849 -14156378.10549  17411008.3464   17411012.9904
  20396343.201   -11484373.29149  -8922983.04149  20396341.7074   20396347.3614
  21471747.023    -5189452.53849  -4024876.88549  21471752.2834   21471759.1074
  17774405.213   -37066593.11249 -28846506.84849  17774404.7244   17774410.1344
 95  1  8 17 38 29.9890000  0  6  1 21 25 14 29 15
  19372856.998    -6248918.13149  -4863909.97649  19372856.4134   19372861.9084
  19805584.596    -6820740.22949  -5310095.62849  19805583.7684   19805590.9974
  17395311.296   -18297657.73849 -14220660.96349  17395310.0634   17395314.5964
  20365151.538   -11648253.84349  -9050682.14249  20365155.5494   20365161.7324
  21443310.065    -5338953.00149  -4141370.66649  21443305.8964   21443309.6434
  17756455.722   -37160941.07649 -28920024.75149  17756451.0984   17756456.0364
 95  1  8 17 38 59.9890000  0  6  1 21 25 14 29 15
  19371250.396    -6257357.91149  -4870486.45649  19371250.6204   19371255.2264
  19805780.234    -6819710.22549  -5309293.04349  19805779.7244   19805786.9794
  17379705.935   -18379650.54449 -14284551.45349  17379707.0004   17379712.0524
  20333971.118   -11812169.40149  -9178408.52249  20333964.4624   20333970.3574
  21414872.334    -5488384.74349  -4257810.92349  21414867.4704   21414873.6924
  17738606.137   -37254717.71449 -28993097.46049  17738605.9624   17738611.2344
 95  1  8 17 39 29.9890000  0  6  1 21 25 14 29 15
  19369657.365    -6265756.17549  -4877030.59849  19369651.8554   19369657.8344
  19806021.194    -6818467.34049  -5308324.60149  19806016.5584   19806023.7494
  17364203.524   -18461128.59649 -14348040.84149  17364202.4454   17364206.9174
  20302764.540   -11976133.96149  -9306173.06849  20302762.9064   20302769.1844
  21386448.320    -5637754.04949  -4374202.55049  21386443.5374   21386449.6254
  17720865.531   -37347926.98449 -29065728.06249  17720868.4384   17720874.3544
 95  1  8 17 39 59.9890000  0  6  1 21 25 14 29 15
  19368065.283    -6274118.96249  -4883547.10649  19368059.9414   19368066.5824
  19806289.636    -6817036.25349  -5307209.54849  19806288.8454   19806295.7914
  17348800.062   -18542072.22049 -14411113.78549  17348799.0974   17348803.6324
  20271549.160   -12140161.78449  -9433986.96749  20271549.3834   20271554.1114
  21358034.115    -5787050.49749  -4490537.38249  21358033.0354   21358039.1444
  17703239.004   -37440568.83049 -29137916.51849  17703239.4594   17703245.0674
 95  1  8 17 40 29.9890000  0  6  1 21 25 14 29 15
  19366474.393    -6282470.80049  -4890055.06149  19366471.6914   19366475.8894
  19806602.680    -6815413.39949  -5305945.02149  19806598.0964   19806604.1904
  17333498.844   -18622484.16849 -14473772.44449  17333497.6954   17333502.0254
  20240325.122   -12304260.43549  -9561856.05649  20240323.1794   20240328.2034
  21329635.698    -5936273.66249  -4606815.08849  21329638.2794   21329642.2974
  17685717.749   -37532645.27749 -29209664.40249  17685717.9044   17685723.8864
 95  1  8 17 40 59.9890000  0  6  1 21 25 14 29 15
  19364884.085    -6290823.58449  -4896563.73649  19364882.0664   19364887.2974
  19806952.606    -6813582.46349  -5304518.35649  19806946.2274   19806953.1034
  17318294.302   -18702374.86149 -14536024.93049  17318295.0224   17318299.4564
  20209081.081   -12468426.34949  -9689777.50449  20209082.6384   20209088.6354
  21301247.458    -6085434.88549  -4723044.58049  21301252.0204   21301258.2634
  17668308.204   -37624151.70049 -29280968.10949  17668304.6894   17668310.4994
 95  1  8 17 41 29.9890000  0  6  1 21 25 14 29 15
  19363283.848    -6299192.60649  -4903085.04649  19363288.6044   19363294.5534
  19807337.026    -6811557.31049  -5302940.38049  19807331.8494   19807338.3694
  17303189.153   -18781764.62449 -14597887.08149  17303187.5014   17303191.9824
  20177835.081   -12632643.45549  -9817738.82749  20177832.7294   20177838.8914
  21272880.247    -6234535.95849  -4839227.13549  21272880.5114   21272885.2364
  17650999.251   -37715091.39449 -29351830.21949  17650999.5184   17651005.3344
 95  1  8 17 41 59.9890000  0  6  1 21 25 14 29 15
  19361692.969    -6307579.67749  -4909620.47149  19361692.9014   19361698.7614
  19807762.332    -6809320.78149  -5301197.65149  19807757.7574   19807763.4964
  17288172.619   -18860659.20149 -14659363.37349  17288174.4394   17288178.6634
  20146574.378   -12796891.43349  -9945724.27349  20146577.7034   20146583.1594
  21244524.488    -6383561.49349  -4955350.87549  21244520.4514   21244526.1564
  17633802.711   -37805451.86149 -29422240.97949  17633804.5164   17633810.3044
 95  1  8 17 42 29.9890000  0  6  1 21 25 14 29 15
  19360099.006    -6315964.89349  -4916154.44649  19360097.2484   19360103.7164
  19808234.497    -6806845.24649  -5299268.68349  19808228.7464   19808234.3594
  17273254.111   -18939059.35749 -14720454.39949  17273255.0174   17273259.9304
  20115322.968   -12961147.99349 -10073716.39849  20115320.5934   20115326.9064
  21216179.989    -6532510.23249  -5071414.75649  21216175.0744   21216181.7984
  17616721.693   -37895220.45049 -29492190.53649  17616722.1044   17616728.2034
 95  1  8 17 42 59.9890000  0  6  1 21 25 14 29 15
  19358508.418    -6324332.59049  -4922674.77249  19358504.6934   19358510.8094
  19808744.506    -6804139.56149  -5297160.41949  19808743.4354   19808749.4084
  17258434.156   -19016965.74049 -14781160.67449  17258430.3974   17258434.6254
  20084063.477   -13125411.89749 -10201714.19149  20084062.3534   20084068.4934
  21187849.699    -6681370.41849  -5187409.69649  21187848.4304   21187855.5214
  17599754.765   -37984396.50149 -29561678.38149  17599752.4954   17599758.2564
 95  1  8 17 43 29.9890000  0  6  1 21 25 14 29 15
  19356918.582    -6332684.77649  -4929183.01649  19356915.7144   19356922.3374
  19809303.538    -6801235.71149  -5294897.74649  19809296.6364   19809302.3604
  17243700.899   -19094371.27749 -14841476.68249  17243700.2714   17243704.8324
  20052802.071   -13289695.25449 -10329727.22349  20052800.2864   20052805.1814
  21159537.912    -6830140.48649  -5303334.37149  21159538.6924   21159545.0394
  17582896.796   -38072988.58949 -29630711.18349  17582893.7414   17582899.4494
 95  1  8 17 43 59.9890000  0  6  1 21 25 14 29 15
  19355326.356    -6341022.22649  -4935679.75149  19355328.9824   19355335.1564
  19809886.531    -6798128.14049  -5292476.32249  19809887.6384   19809893.8184
  17229063.067   -19171281.12049 -14901406.42349  17229064.8754   17229069.4454
  20021532.649   -13454002.25449 -10457758.63549  20021532.9204   20021539.5834
  21131245.849    -6978834.76649  -5419200.06349  21131243.4614   21131249.6674
  17566150.357   -38160999.23449 -29699290.91749  17566146.1324   17566151.7974
 95  1  8 17 44 29.9880000  0  6  1 21 25 14 29 15
  19353749.875    -6349350.50549  -4942169.35349  19353744.6154   19353750.7944
  19810519.456    -6794814.39849  -5289894.24249  19810517.6664   19810524.4624
  17214529.660   -19247678.31749 -14960936.71349  17214527.3654   17214531.4944
  19990266.216   -13618329.03949 -10585805.44849  19990262.8684   19990269.3544
  21102965.510    -7127458.86449  -5535011.00949  21102961.8104   21102967.9394
  17549513.118   -38248426.84049 -29767416.32149  17549509.3564   17549514.9424
 95  1  8 17 44 59.9880000  0  6  1 21 25 14 29 15
  19352163.228    -6357678.15149  -4948658.46949  19352159.7684   19352165.8144
  19811191.145    -6791300.72549  -5287156.38749  19811187.1934   19811192.6774
  17200087.203   -19323568.22949 -15020071.71149  17200085.7234   17200090.0714
  19958987.001   -13782686.23749 -10713875.96949  19958987.3354   19958992.5204
  21074687.556    -7276009.82949  -5650765.00949  21074693.5904   21074699.1364
  17532984.628   -38335267.44549 -29835084.33049  17532984.3424   17532989.7384
 95  1  8 17 45 29.9880000  0  6  1 21 25 14 29 15
  19350573.831    -6366029.76549  -4955166.26849  19350570.7274   19350576.4454
  19811893.549    -6787590.11049  -5284265.07749  19811893.4564   19811899.2184
  17185732.880   -19398980.74249 -15078834.70549  17185734.9634   17185739.5634
  19927703.825   -13947075.96549 -10841971.89849  19927705.0904   19927710.8474
  21046434.001    -7424502.31649  -5766473.43549  21046435.6414   21046441.5364
  17516569.270   -38421529.85949 -29902301.80549  17516569.0314   17516574.1954
 95  1  8 17 45 59.9880000  0  6  1 21 25 14 29 15
  19348977.681    -6374409.84049  -4961696.22049  19348975.6064   19348981.8804
  19812641.859    -6783655.84549  -5281199.48849  19812641.0864   19812647.8264
  17171482.369   -19473902.07049 -15137214.95849  17171478.0284   17171482.4304
  19896415.735   -14111490.17149 -10970086.81349  19896417.2744   19896423.4824
  21018189.386    -7572932.18349  -5882133.06549  21018190.4614   21018195.6524
  17500265.647   -38507206.11549 -29969062.53049  17500265.0614   17500270.5214
 95  1  8 17 46 29.9880000  0  6  1 21 25 14 29 15
  19347378.111    -6382821.77649  -4968251.00549  19347374.7844   19347381.0294
  19813423.293    -6779516.49349  -5277974.09949  19813429.0334   19813435.7614
  17157312.262   -19548332.73649 -15195212.87549  17157314.5514   17157319.1514
  19865120.759   -14275950.68849 -11098237.83449  19865121.5054   19865127.5874
  20989962.391    -7721300.58749  -5997744.81949  20989956.7364   20989962.8564
  17484071.718   -38592304.57749 -30035373.02249  17484071.3714   17484076.9194
 95  1  8 17 46 59.9880000  0  6  1 21 25 14 29 15
  19345770.007    -6391260.45449  -4974826.64049  19345769.3644   19345775.9484
  19814255.442    -6775182.07249  -5274596.68849  19814253.5784   19814260.6904
  17143239.902   -19622293.97749 -15252845.00349  17143240.1954   17143244.2774
  19833816.991   -14440458.06249 -11226425.41349  19833817.4274   19833822.2194
  20961739.180    -7869603.71549  -6113305.68149  20961735.3024   20961741.5714
  17467991.351   -38676826.72049 -30101234.43849  17467987.5844   17467993.0624
 95  1  8 17 47 29.9880000  0  6  1 21 25 14 29 15
  19344164.002    -6399711.56949  -4981411.95749  19344161.5274   19344167.1114
  19815112.658    -6770643.39749  -5271060.12249  19815117.4704   19815124.1774
  17129255.318   -19695772.82549 -15310101.24749  17129257.2744   17129261.8504
  19802505.619   -14605003.69149 -11354642.73949  19802505.1614   19802511.4094
  20933527.565    -8017849.15649  -6228821.61249  20933525.4904   20933531.6044
  17452011.562   -38760777.28549 -30166650.46849  17452012.2954   17452017.9654
 95  1  8 17 47 59.9880000  0  6  1 21 25 14 29 15
  19342555.149    -6408149.73449  -4987987.21249  19342555.2114   19342561.7704
  19816023.631    -6765884.76649  -5267352.15649  19816023.2674   19816030.0164
  17115374.338   -19768730.70249 -15366951.53349  17115374.0934   17115378.7124
  19771192.581   -14769565.11249 -11482872.40249  19771190.8254   19771196.2694
  20905332.941    -8166016.50249  -6344276.67349  20905330.3054   20905335.5124
  17436151.561   -38844133.38949 -30231603.28649  17436149.7794   17436155.7624
 95  1  8 17 48 29.9880000  0  6  1 21 25 14 29 15
  19340955.112    -6416563.69649  -4994543.59249  19340953.5574   19340960.5694
  19816967.078    -6760924.69849  -5263487.23049  19816967.5744   19816973.5384
  17101584.366   -19841195.58749 -15423417.67949  17101584.5994   17101589.0114
  19739871.877   -14934142.22349 -11611114.32849  19739872.6574   19739878.0534
  20877155.521    -8314109.82349  -6459674.06549  20877149.1414   20877154.4374
  17420400.242   -38926900.89349 -30296097.44449  17420399.6674   17420405.7334
 95  1  8 17 48 59.9880000  0  6  1 21 25 14 29 15
  19339357.780    -6424954.04649  -5001081.58149  19339357.7124   19339363.1134
  19817954.145    -6755755.89349  -5259459.62649  19817950.9354   19817957.0294
  17087888.425   -19913168.70049 -15479500.61649  17087888.0524   17087893.0484
  19708556.492   -15098711.64449 -11739350.21349  19708555.8604   19708562.1704
  20848984.968    -8462120.92549  -6575007.36549  20848983.5454   20848989.1644
  17404762.613   -39009075.26749 -30360129.42449  17404762.9964   17404768.5934
 95  1  8 17 49 29.9880000  0  6  1 21 25 14 29 15
  19337761.992    -6433334.66049  -5007611.95849  19337764.0704   19337769.5154
  19818974.051    -6750371.28549  -5255263.84449  19818975.7014   19818981.9654
  17074287.416   -19984630.26349 -15535184.94749  17074289.8404   17074294.0064
  19677241.790   -15263272.72349 -11867579.62549  19677241.0164   19677246.8894
  20820830.651    -8610049.52049  -6690276.37349  20820834.0484   20820839.2384
  17389239.555   -39090658.12849 -30423700.49049  17389238.5034   17389243.6734
 95  1  8 17 49 59.9880000  0  6  1 21 25 14 29 15
  19336165.360    -6441723.24649  -5014148.56049  19336167.3054   19336172.9364
  19820040.811    -6744776.49749  -5250904.28149  19820040.0714   19820046.8954
  17060787.496   -20055583.64649 -15590473.28849  17060787.9034   17060792.3674
  19645929.594   -15427826.78849 -11995803.55049  19645926.9214   19645932.9454
  20792696.829    -8757892.81449  -6805478.91349  20792700.2204   20792705.5174
  17373826.498   -39171646.81749 -30486808.56249  17373826.2864   17373832.0774
 95  1  8 17 50 29.9880000  0  6  1 21 25 14 29 15
  19334565.128    -6450137.55849  -5020705.20649  19334565.8204   19334571.6854
  19821146.010    -6738982.55449  -5246389.53749  19821143.1704   19821150.2574
  17047381.056   -20126044.43549 -15645377.79549  17047379.6254   17047384.2934
  19614611.174   -15592382.63049 -12124028.86749  19614613.3084   19614619.5204
  20764582.180    -8905653.65549  -6920617.22349  20764583.1084   20764587.5254
  17358522.559   -39252052.69649 -30549462.49749  17358525.3244   17358531.3384
 95  1  8 17 50 59.9880000  0  6  1 21 25 14 29 15
  19332960.829    -6458579.58349  -5027283.44449  19332959.1864   19332965.7404
  19822287.653    -6732969.60749  -5241704.20549  19822287.7814   19822294.4784
  17034065.955   -20195993.22549 -15699883.33949  17034068.7484   17034073.2574
  19583302.228   -15756929.66349 -12252247.30649  19583301.0354   19583306.8504
  20736481.309    -9053326.99949  -7035687.31549  20736480.9104   20736486.5064
  17343339.867   -39331865.24849 -30611654.09949  17343337.9274   17343343.5884
 95  1  8 17 51 29.9880000  0  6  1 21 25 14 29 15
  19331353.399    -6467044.67249  -5033879.67049  19331348.4794   19331354.6544
  19823470.512    -6726738.47349  -5236848.89349  19823473.1354   19823479.7894
  17020856.517   -20265421.54549 -15753983.32849  17020856.6184   17020861.1754
  19551986.391   -15921475.70449 -12380464.98849  19551989.5974   19551995.4694
  20708393.788    -9200921.14249  -7150695.70749  20708394.2754   20708400.3074
  17328262.485   -39411080.39249 -30673380.19249  17328264.0884   17328269.0874
 95  1  8 17 51 59.9880000  0  6  1 21 25 14 29 15
  19329736.248    -6475505.94149  -5040472.91249  19329738.0144   19329744.7584
  19824706.479    -6720280.02849  -5231816.42949  19824702.3884   19824708.7174
  17007742.027   -20334337.66149 -15807684.19149  17007742.5684   17007746.8624
  19520673.552   -16086010.62049 -12508673.97449  19520679.2384   19520685.3594
  20680320.242    -9348432.03049  -7265639.24149  20680324.5964   20680330.0374
  17313305.083   -39489685.94049 -30734631.27149  17313305.7794   17313311.1714
 95  1  8 17 52 29.9880000  0  6  1 21 25 14 29 15
  19328131.960    -6483964.67749  -5047064.18049  19328128.5744   19328134.6734
  19825979.181    -6713604.92849  -5226615.10649  19825973.0684   19825979.5224
  16994719.356   -20402763.62049 -15861003.11849  16994721.8834   16994726.3524
  19489368.748   -16250545.84649 -12636883.23049  19489369.8624   19489374.9044
  20652268.139    -9495867.46749  -7380523.95349  20652268.4904   20652273.4084
  17298460.081   -39567691.90249 -30795415.13949  17298461.8714   17298467.2144
 95  1  8 17 52 59.9880000  0  6  1 21 25 14 29 15
  19326520.638    -6492439.68349  -5053668.10949  19326515.4164   19326523.0574
  19827281.727    -6706745.61449  -5221270.25349  19827277.7884   19827284.9374
  16981788.757   -20470727.44749 -15913961.94649  16981788.6744   16981792.8684
  19458052.163   -16415109.16549 -12765114.39449  19458053.1654   19458059.4624
  20624218.844    -9643266.96349  -7495380.67349  20624219.7614   20624224.5914
  17283726.617   -39645128.70149 -30855755.50749  17283725.5814   17283731.6184
 95  1  8 17 53 29.9880000  0  6  1 21 25 14 29 15
  19324899.852    -6500930.73049  -5060284.57649  19324900.4834   19324905.8594
  19828608.973    -6699705.67349  -5215784.63749  19828617.1504   19828624.0844
  16968944.112   -20538226.92749 -15966558.94249  16968944.1314   16968947.9694
  19426733.356   -16579695.12149 -12893363.12549  19426734.7694   19426740.2924
  20596174.979    -9790618.40149  -7610199.95349  20596179.3334   20596184.8794
  17269098.742   -39721993.59549 -30915650.22949  17269098.7954   17269104.4164
 95  1  8 17 53 59.9880000  0  6  1 21 25 14 29 15
  19323290.874    -6509418.95749  -5066898.81649  19323285.1754   19323291.0204
  19829994.745    -6692468.59949  -5210145.41949  19829994.7854   19830001.3824
  16956192.157   -20605242.36749 -16018778.76049  16956191.0874   16956195.7074
  19395416.259   -16744275.36149 -13021607.46649  19395415.3004   19395421.0854
  20568149.236    -9937887.97149  -7724955.44549  20568154.7504   20568159.9584
  17254586.950   -39798271.40449 -30975087.49049  17254583.6934   17254589.4054
 95  1  8 17 54 29.9870000  0  6  1 21 25 14 29 15
  19321675.965    -6517897.19149  -5073505.28149  19321672.1174   19321678.4334
  19831415.343    -6685022.72949  -5204343.51349  19831411.5374   19831418.1604
  16943536.128   -20671743.10649 -16070597.51549  16943536.4794   16943540.9724
  19364102.034   -16908828.24049 -13149830.47149  19364102.7554   19364107.5684
  20540152.482   -10085046.41949  -7839624.36249  20540150.9104   20540156.0334
  17240182.856   -39873944.31149 -31034053.40049  17240183.8674   17240189.7164
 95  1  8 17 54 59.9870000  0  6  1 21 25 14 29 15
  19320060.673    -6526378.29649  -5080113.96149  19320057.9594   19320064.1824
  19832870.043    -6677372.87849  -5198382.63849  19832867.1984   19832874.4774
  16930985.845   -20737712.53149 -16122002.26549  16930983.4994   16930987.2994
  19332783.227   -17073366.41849 -13278042.03249  19332790.4524   19332796.5734
  20512164.088   -10232112.45749  -7954221.27749  20512164.8334   20512170.5774
  17225898.954   -39949026.90549 -31092559.32349  17225895.9564   17225902.2024
 95  1  8 17 55 29.9870000  0  6  1 21 25 14 29 15
  19318445.571    -6534875.78349  -5086735.42249  19318440.6604   19318447.5444
  19834368.620    -6669514.86449  -5192259.56749  19834361.9154   19834369.6024
  16918529.911   -20803144.37849 -16172988.11649  16918531.5774   16918536.1094
  19301488.308   -17237888.86149 -13406241.30449  19301484.0144   19301489.9404
  20484207.327   -10379078.81049  -8068740.53149  20484198.9534   20484204.3314
  17211722.887   -40023513.75149 -31150601.03049  17211721.9614   17211727.6524
 95  1  8 17 55 59.9870000  0  6  1 21 25 14 29 15
  19316829.195    -6543370.76249  -5093354.93049  19316824.4244   19316831.0144
  19835898.749    -6661436.55149  -5185964.82949  19835899.4254   19835906.6154
  16906186.941   -20868028.37049 -16223547.07249  16906184.9644   16906189.4574
  19270186.591   -17402387.53849 -13534422.07449  19270181.0274   19270186.6634
  20456259.162   -10525931.08349  -8183170.86249  20456253.5804   20456259.3504
  17197666.784   -40097387.67749 -31208165.14249  17197664.3194   17197669.6964
 95  1  8 17 56 29.9870000  0  6  1 21 25 14 29 15
  19315210.315    -6551864.27149  -5099973.30249  19315207.5894   19315214.4564
  19837473.364    -6653138.03149  -5179498.50549  19837479.2694   19837486.3674
  16893940.035   -20932379.46949 -16273690.78949  16893939.5134   16893943.6894
  19238876.411   -17566869.68949 -13662589.96649  19238881.2304   19238886.7174
  20428323.024   -10672687.32349  -8297526.37949  20428326.7974   20428332.1884
  17183723.347   -40170650.69049 -31265253.22049  17183722.3674   17183728.2034
 95  1  8 17 56 59.9870000  0  6  1 21 25 14 29 15
  19313588.837    -6560371.23549  -5106602.15449  19313588.9604   19313595.0914
  19839102.521    -6644639.22849  -5172876.11849  19839096.3924   19839103.5874
  16881786.592   -20996235.33549 -16323448.60749  16881787.7984   16881792.0244
  19207580.353   -17731348.27749 -13790755.08749  19207580.5724   19207587.3204
  20400407.485   -10819379.84949  -8411832.22549  20400411.8294   20400417.7184
  17169890.019   -40243324.82049 -31321882.42049  17169893.0854   17169898.9304
 95  1  8 17 57 29.9870000  0  6  1 21 25 14 29 15
  19311976.487    -6568839.53249  -5113200.88949  19311977.6674   19311985.2244
  19840756.911    -6635904.45949  -5166069.85849  19840758.0504   19840765.7604
  16869733.701   -21059592.53949 -16372817.86049  16869731.0714   16869735.7604
  19176289.174   -17895776.48049 -13918880.93049  19176292.0334   19176297.9984
  20372512.056   -10965971.88949  -8526059.77349  20372516.5574   20372522.6644
  17156183.836   -40315371.72349 -31378022.87249  17156183.0314   17156188.8344
 95  1  8 17 57 59.9870000  0  6  1 21 25 14 29 15
  19310376.858    -6577247.87049  -5119752.90149  19310378.2424   19310384.4094
  19842462.646    -6626936.23549  -5159081.69849  19842465.4734   19842472.3204
  16857766.485   -21122463.67449 -16421808.36249  16857766.8714   16857771.5424
  19145017.926   -18060134.10449 -14046951.81149  19145015.4254   19145021.2574
  20344638.365   -11112458.44149  -8640205.13249  20344641.5344   20344647.3184
  17142593.466   -40386790.27849 -31433673.70349  17142592.4794   17142598.3784
 95  1  8 17 58 29.9870000  0  6  1 21 25 14 29 15
  19308790.427    -6585597.70649  -5126259.30349  19308789.6924   19308795.3964
  19844219.178    -6617731.14649  -5151908.96549  19844217.6134   19844224.9884
  16845895.033   -21184840.77349 -16470413.89849  16845896.9204   16845901.7824
  19113755.628   -18224404.39149 -14174954.62749  19113756.7034   19113761.4204
  20316778.091   -11258859.63349  -8754283.97349  20316782.6284   20316787.5444
  17129122.685   -40457581.63149 -31488835.81049  17129121.4024   17129127.1744
 95  1  8 17 58 59.9870000  0  6  1 21 25 14 29 15
  19307207.240    -6593907.87049  -5132734.80449  19307207.7284   19307214.2224
  19846012.852    -6608295.26549  -5144556.39249  19846012.8504   19846020.0504
  16834123.668   -21246715.39549 -16518627.89649  16834123.3114   16834127.3374
  19082518.234   -18388580.20749 -14302883.83449  19082514.2754   19082519.2854
  20288940.732   -11405167.11049  -8868289.80349  20288940.6584   20288946.6454
  17115772.586   -40527744.33949 -31543508.06649  17115769.7584   17115775.3874
 95  1  8 17 59 29.9870000  0  6  1 21 25 14 29 15
  19305632.371    -6602183.52049  -5139183.40249  19305632.2884   19305638.7134
  19847847.776    -6598639.46349  -5137032.42249  19847851.1014   19847860.2544
  16822450.955   -21308072.01949 -16566438.25749  16822447.1724   16822451.7724
  19051292.040   -18552663.53049 -14430740.95749  19051291.1214   19051296.4074
  20261122.550   -11551362.42349  -8982208.20249  20261120.5334   20261125.7984
  17102540.790   -40597274.95649 -31597687.77849  17102538.0234   17102544.1584
 95  1  8 17 59 59.9870000  0  6  1 21 25 14 29 15
  19304060.344    -6610453.19249  -5145627.34949  19304060.0974   19304065.2044
  19849732.848    -6588766.39849  -5129339.18349  19849728.5184   19849734.8884
  16810874.675   -21368884.23649 -16613824.40849  16810875.3554   16810879.6514
  19020078.512   -18716675.55249 -14558542.52949  19020080.1374   19020086.4304
  20233323.165   -11697436.49949  -9096032.14449  20233322.7774   20233329.5824
  17089427.762   -40666173.21849 -31651374.74549  17089427.5554   17089433.4114
 95  1  8 18  0 29.9870000  0  6  1 21 25 14 29 15
  19302479.973    -6618728.91449  -5152075.99249  19302484.1944   19302490.5884
  19851650.946    -6578664.54149  -5121467.65149  19851651.5984   19851658.7244
  16799408.064   -21429143.01249 -16660779.31349  16799408.3684   16799412.5364
  18988883.818   -18880619.34549 -14686290.92049  18988882.2434   18988889.1404
  20205556.466   -11843380.36449  -9209754.64649  20205550.5124   20205556.4334
  17076438.734   -40734436.63349 -31704567.03449  17076437.6214   17076443.3814
 95  1  8 18  0 59.9870000  0  6  1 21 25 14 29 15
  19300902.918    -6627024.21849  -5158539.92549  19300905.9044   19300912.2424
  19853619.145    -6568338.35849  -5113421.32749  19853617.6984   19853622.0084
  16788038.454   -21488876.48249 -16707324.87849  16788041.2174   16788045.5434
  18957697.555   -19044507.71249 -14813996.12649  18957696.1104   18957701.5364
  20177810.196   -11989179.86149  -9323364.63649  20177805.7304   20177812.0844
  17063567.471   -40802077.54049 -31757274.24549  17063565.4064   17063571.6324
 95  1  8 18  1 29.9870000  0  6  1 21 25 14 29 15
  19299325.935    -6635331.88949  -5165013.46849  19299325.7734   19299331.6644
  19855632.920    -6557786.38049  -5105199.11649  19855623.9004   19855629.2664
  16776769.903   -21548103.13849 -16753475.52449  16776770.9334   16776775.6244
  18926516.659   -19208352.92949 -14941667.75649  18926516.6294   18926522.3554
  20150085.916   -12134848.07849  -9436872.33149  20150086.6474   20150092.5564
  17050812.980   -40869109.36149 -31809506.84849  17050810.5344   17050816.0854
 95  1  8 18  1 59.9870000  0  6  1 21 25 14 29 15
  19297742.983    -6643651.01249  -5171495.95349  19297742.1984   19297748.9614
  19857687.458    -6546985.41259  -5096782.82049  19857680.1374   19857685.8814
  16765596.049   -21606826.77549 -16799234.21349  16765595.9544   16765600.4674
  18895345.467   -19372149.59549 -15069301.48949  18895347.5634   18895353.2754
  20122388.600   -12280405.83549  -9550293.95349  20122387.3014   20122393.4684
  17038170.344   -40935534.29049 -31861266.54549  17038169.9254   17038175.7914
 95  1  8 18  2 29.9870000  0  6  1 21 25 14 29 15
  19296169.672    -6651943.08149  -5177957.35749  19296164.4394   19296170.3814
  19859786.904    -6535926.80658                                  19859783.8634
  16754519.856   -21665043.79949 -16844598.13549  16754517.6084   16754522.4594
  18864192.480   -19535867.45949 -15196873.84549  18864192.6484   18864198.0994
  20094714.719   -12425860.89549  -9663635.56249  20094708.3174   20094714.4994
  17025644.565   -41001343.37249 -31912546.35249  17025646.9734   17025652.6334
 95  1  8 18  2 59.9870000  0  5  1 25 14 29 15
  19294596.443    -6660203.93049  -5184394.41149  19294592.9504   19294599.1604
  16743538.133   -21722756.02549 -16889568.71249  16743535.3704   16743540.1454
  18833054.303   -19699523.34549 -15324397.91649  18833050.2754   18833055.5414
  20067046.892   -12571226.01849  -9776907.06449  20067047.4434   20067052.5634
  17013243.881   -41066539.07349 -31963348.21549  17013240.6324   17013246.1334
 95  1  8 18  3 29.9870000  0  5  1 25 14 29 15
  19293029.641    -6668427.39149  -5190802.36049  19293028.0324   19293034.4844
  16732654.185   -21779943.68349 -16934130.53049  16732653.3054   16732657.4384
  18801920.427   -19863126.68149 -15451881.02149  18801917.7354   18801923.8524
  20039397.349   -12716512.60349  -9890117.37349  20039399.2884   20039405.0134
  17000951.516   -41131117.00449 -32013668.69449  17000951.6374   17000957.5494
 95  1  8 18  3 59.9870000  0  5  1 25 14 29 15
  19291470.955    -6676613.03749  -5197180.83849  19291469.9834   19291476.4884
  16721876.983   -21836592.80649 -16978272.71649  16721872.8834   16721877.5804
  18770798.437   -20026665.17949 -15579313.61049  18770796.7594   18770803.3454
  20011768.083   -12861711.15149 -10003259.07549  20011768.5654   20011775.9414
  16988784.261   -41195066.32349 -32063499.33449  16988782.9614   16988788.6414
 95  1  8 18  4 29.9860000  0  5  1 25 14 29 15
  19289920.781    -6684765.68049  -5203533.56449  19289919.0854   19289925.1404
  16711195.011   -21892720.95949 -17022008.95449  16711192.2494   16711196.7504
  18739688.935   -20190136.93149 -15706694.19349  18739688.9484   18739695.9814
  19984160.816   -13006803.82549 -10116318.27949  19984159.4404   19984164.6974
  16976732.448   -41258389.17349 -32112841.82849  16976732.9714   16976738.6174
 95  1  8 18  4 59.9860000  0  5  1 25 14 29 15
  19288369.250    -6692916.31149  -5209884.73449  19288367.3074   19288373.8104
  16700608.976   -21948337.66749 -17065346.65949  16700608.8634   16700613.1424
  18708593.238   -20353561.68549 -15834038.15149  18708590.5834   18708596.3474
  19956567.582   -13151792.85649 -10229296.70449  19956568.5924   19956574.4294
  16964802.705   -41321093.98349 -32161702.73449  16964800.6074   16964806.5364
 95  1  8 18  5 29.9860000  0  5  1 25 14 29 15
  19286815.360    -6701070.12049  -5216238.39649  19286815.0484   19286822.3884
  16690116.715   -22003450.78549 -17108291.95549  16690120.6264   16690125.1694
  18677510.683   -20516903.94049 -15961317.83149  18677508.4364   18677513.1294
  19928995.936   -13296658.41849 -10342178.95449  19929000.8714   19929007.5214
  16952987.350   -41383179.75849 -32210081.26449  16952986.3074   16952992.1624
 95  1  8 18  5 59.9860000  0  5  1 25 14 29 15
  19285271.802    -6709194.72049  -5222569.31649  19285269.2714   19285276.4714
  16679730.892   -22058056.18349 -17150841.63049  16679730.0534   16679734.4364
  18646449.335   -20680122.35149 -16088501.00049  18646448.2564   18646454.1644
  19901461.426   -13441369.28649 -10454940.64749  19901463.7654   19901469.4804
  16941294.774   -41444631.53449 -32257965.77249  16941292.3684   16941298.0774
 95  1  8 18  6 29.9860000  0  5  1 25 14 29 15
  19283725.182    -6717302.38249  -5228887.02049  19283727.2304   19283733.0974
  16669428.836   -22112176.42749 -17193013.26849  16669431.2874   16669435.6914
  18615412.433   -20843227.79149 -16215596.12549  18615411.4434   18615416.9614
  19873953.276   -13585940.45549 -10567593.47749  19873951.9634   19873957.9704
  16929716.450   -41505469.13649 -32305371.70149  16929715.3434   16929720.4674
 95  1  8 18  6 59.9860000  0  5  1 25 14 29 15
  19282191.789    -6725383.36949  -5235183.91949  19282189.4404   19282195.8374
  16659228.019   -22165798.37849 -17234796.62249  16659227.3824   16659231.7194
  18584396.746   -21006206.47149 -16342592.48949  18584396.8234   18584403.0844
  19846468.985   -13730378.95249 -10680142.94949  19846466.4534   19846472.2444
  16918257.115   -41565689.75649 -32352296.86549  16918255.7104   16918261.0854
 95  1  8 18  7 29.9860000  0  5  1 25 14 29 15
  19280657.794    -6733407.65049  -5241436.63949  19280661.9234   19280669.2514
  16649120.584   -22218921.47749 -17276191.26049  16649118.5234   16649122.7314
  18553404.190   -21169043.38149 -16469478.36549  18553410.4264   18553415.4674
  19819010.483   -13874681.33149 -10792586.35449  19819006.8594   19819012.5804
  16906915.428   -41625284.58649 -32398734.40049  16906914.7374   16906920.8094
 95  1  8 18  7 59.9860000  0  5  1 25 14 29 15
  19279138.426    -6741390.79249  -5247657.30949  19279142.7884   19279149.9174
  16639103.954   -22271558.64149 -17317207.25149  16639102.0704   16639106.2214
  18522447.380   -21331771.29149 -16596279.35149  18522443.9214   18522448.9894
  19791568.614   -14018878.92049 -10904948.08249  19791567.6364   19791573.3174
  16895690.348   -41684263.25249 -32444691.81049  16895691.7924   16895697.6884
 95  1  8 18  8 29.9860000  0  5  1 25 14 29 15
  19277624.854    -6749372.68449  -5253877.00349  19277624.7924   19277630.3524
  16629178.474   -22323712.12849 -17357846.34749  16629177.2464   16629182.0594
  18491489.902   -21494421.58449 -16723019.82249  18491492.0154   18491499.0914
  19764137.802   -14163003.35849 -11017252.82849  19764141.3174   19764147.4804
  16884582.761   -41742638.91649 -32490179.35449  16884583.2494   16884589.0414
 95  1  8 18  8 59.9860000  0  5  1 25 14 29 15
  19276106.677    -6757347.52849  -5260091.19049  19276107.2024   19276113.7114
  16619344.350   -22375362.66849 -17398093.53249  16619348.4704   16619353.1294
  18460559.533   -21657001.85549 -16849705.72349  18460555.3234   18460560.3094
  19736732.114   -14307046.19749 -11129493.99149  19736730.6484   19736736.9634
  16873591.763   -41800398.55349 -32535186.87349  16873592.0094   16873597.9464
 95  1  8 18  9 29.9860000  0  5  1 25 14 29 15
  19274593.904    -6765309.91449  -5266295.69049  19274591.4604   19274597.9204
  16609622.049   -22426479.17549 -17437924.58549  16609621.4964   16609626.2044
  18429630.313   -21819516.97749 -16976340.89649  18429628.3834   18429634.1414
  19709339.320   -14450978.81949 -11241649.27249  19709341.9944   19709346.8364
  16862720.427   -41857531.67249 -32579706.20149  16862719.6524   16862725.9724
 95  1  8 18  9 59.9860000  0  5  1 25 14 29 15
  19273076.566    -6773273.55649  -5272501.17349  19273076.3624   19273082.6604
  16599993.634   -22477057.91849 -17477336.60449  16599996.6094   16600001.3634
  18398716.631   -21981968.07349 -17102926.13549  18398715.5164   18398721.5554
  19681975.848   -14594793.35449 -11353712.53849  19681974.8194   19681980.5064
  16851968.659   -41914044.26749 -32623742.00049  16851966.0294   16851972.0184
 95  1  8 18 10 29.9860000  0  5  1 25 14 29 15
  19271559.311    -6781236.86149  -5278706.38749  19271561.0634   19271567.5584
  16590474.549   -22527098.92449 -17516329.60649  16590474.4224   16590478.7764
  18367810.200   -22144339.26949 -17229449.15049  18367817.9834   18367823.0104
  19654633.716   -14738478.90549 -11465675.27449  19654631.4474   19654637.7704
  16841332.578   -41969939.79149 -32667296.96449  16841329.6644   16841335.1664
 95  1  8 18 10 59.9860000  0  5  1 25 14 29 15
  19270046.486    -6789171.84449  -5284889.54849  19270050.9744   19270057.7754
  16581051.090   -22576600.85249 -17554902.55149  16581054.1814   16581058.7124
  18336940.125   -22306603.39149 -17355888.72049  18336939.5274   18336944.9044
  19627318.560   -14882027.78549 -11577531.53149  19627315.4754   19627321.7434
  16830813.540   -42025214.51049 -32710368.19049  16830811.0894   16830816.8094
 95  1  8 18 11 29.9860000  0  5  1 25 14 29 15
  19268546.242    -6797084.12149  -5291054.98449  19268545.4264   19268552.0034
  16571734.164   -22625594.63349 -17593079.53049  16571731.1254   16571735.4544
  18306088.363   -22468724.97949 -17482217.23149  18306088.6974   18306093.1004
  19600021.771   -15025448.49349 -11689287.90149  19600022.6294   19600029.5864
  16820410.439   -42079871.94849 -32752958.42049  16820410.2994   16820415.6964
 95  1  8 18 11 59.9860000  0  5  1 25 14 29 15
  19267044.344    -6804987.79049  -5297213.73149  19267041.5944   19267047.7104
  16562496.786   -22674115.34849 -17630887.89149  16562498.0584   16562502.4984
  18275267.315   -22630701.37649 -17608432.62549  18275265.8554   18275271.6254
  19572754.964   -15168775.38649 -11800971.16249  19572748.6594   19572754.7834
  16810125.185   -42133924.51949 -32795077.31349  16810124.3824   16810130.0324
 95  1  8 18 12 29.9860000  0  5  1 25 14 29 15
  19265540.098    -6812887.25249  -5303369.19049  19265537.7994   19265544.4794
  16553356.020   -22722175.52449 -17668337.38949  16553352.4154   16553357.0144
  18244469.499   -22792549.27749 -17734547.85049  18244466.8714   18244471.5204
  19545488.225   -15312032.05649 -11912599.71849  19545488.6534   19545493.7294
  16799952.597   -42187379.95649 -32836730.91449  16799951.9814   16799957.5764
 95  1  8 18 12 59.9860000  0  5  1 25 14 29 15
  19264038.984    -6820783.50449  -5309522.13449  19264036.0654   19264042.5084
  16544286.262   -22769789.66849 -17705439.33249  16544291.9504   16544296.4634
  18213690.647   -22954282.72349 -17860573.94449  18213690.1154   18213696.1144
  19518242.361   -15455216.25049 -12024171.81949  19518241.3514   19518247.5654
  16789892.951   -42240241.13749 -32877921.45549  16789892.7914   16789898.3024
 95  1  8 18 13 29.9860000  0  5  1 25 14 29 15
  19262538.404    -6828681.28749  -5315676.27149  19262532.6384   19262539.3774
  16535318.123   -22816951.74149 -17742189.01249  16535317.1394   16535321.7574
  18182933.278   -23115918.82249 -17986524.13249  18182930.9514   18182937.0264
  19491012.997   -15598299.11649 -12135664.95849  19491013.8244   19491019.0784
  16779952.968   -42292498.38149 -32918641.40049  16779949.0934   16779954.5784
 95  1  8 18 13 59.9860000  0  5  1 25 14 29 15
  19261035.891    -6836572.26649  -5321825.13049  19261031.1894   19261037.6184
  16526436.551   -22863637.52549 -17778567.55649  16526433.2314   16526437.9864
  18152187.931   -23277484.62349 -18112419.57649  18152187.3064   18152192.8164
  19463813.637   -15741259.66149 -12247062.80949  19463809.1014   19463814.9544
  16770118.770   -42344147.62449 -32958887.57849  16770120.6074   16770126.3534
 95  1  8 18 14 29.9850000  0  5  1 25 14 29 15
  19259530.313    -6844463.78549  -5327974.37749  19259529.0074   19259536.3444
  16517636.732   -22909847.94549 -17814575.69249  16517639.7264   16517644.3804
  18121451.569   -23438979.20949 -18238259.50549  18121454.9694   18121461.0624
  19436634.140   -15884081.08249 -12358352.22549  19436631.2824   19436637.0874
  16760407.967   -42395192.07549 -32998662.48949  16760406.8684   16760412.3634
 95  1  8 18 14 59.9850000  0  5  1 25 14 29 15
  19258030.475    -6852361.75149  -5334128.69049  19258026.1164   19258033.5224
  16508934.903   -22955585.23749 -17850215.15549  16508936.1244   16508940.5014
  18090740.812   -23600396.79149 -18364039.45749  18090739.1584   18090744.5024
  19409477.375   -16026761.09049 -12469531.44149  19409479.0544   19409485.6894
  16750805.421   -42445636.62449 -33037969.94249  16750807.6414   16750813.2614
 95  1  8 18 15 29.9850000  0  5  1 25 14 29 15
  19256522.708    -6860271.29349  -5340292.02649  19256521.2634   19256527.6124
  16500322.375   -23000836.54349 -17885475.92249  16500325.2344   16500329.7104
  18060041.692   -23761707.07749 -18489735.79349  18060041.8204   18060047.6464
  19382351.201   -16169305.81849 -12580605.24749  19382355.0314   19382360.7784
  16741322.972   -42495483.32749 -33076811.54549  16741321.9744   16741328.1814
 95  1  8 18 15 59.9850000  0  5  1 25 14 29 15
  19255017.273    -6868178.05449  -5346453.15249  19255016.5654   19255023.4754
  16491808.366   -23045591.97949 -17920350.30249  16491808.3674   16491813.0384
  18029375.831   -23922867.13449 -18615315.06549  18029374.4924   18029380.7534
  19355251.829   -16311724.41249 -12691580.77249  19355253.1364   19355259.4954
  16731948.355   -42544731.08349 -33115186.43349  16731950.3904   16731956.5814
 95  1  8 18 16 29.9850000  0  5  1 25 14 29 15
  19253514.749    -6876072.97649  -5352605.04649  19253514.1634   19253521.4744
  16483384.949   -23089848.26749 -17954835.73649  16483386.6574   16483391.3714
  17998740.887   -24083849.77349 -18740756.09149  17998740.5424   17998746.2114
  19328166.921   -16454028.28649 -12802466.88949  19328173.1954   19328179.9744
  16722688.785   -42593380.05849 -33153094.74749  16722693.3664   16722698.5914
 95  1  8 18 16 59.9850000  0  5  1 25 14 29 15
  19252014.632    -6883938.95449  -5358734.43649  19252017.7684   19252024.8284
  16475061.299   -23133592.22049 -17988921.95349  16475062.8584   16475067.0724
  17968144.915   -24244637.65449 -18866045.33749  17968143.7634   17968149.4314
  19301118.670   -16596220.82049 -12913266.26749  19301115.3504   19301121.4094
  16713552.124   -42641424.99149 -33190532.37449  16713550.4584   16713556.0864
 95  1  8 18 17 29.9850000  0  5  1 25 14 29 15
  19250527.069    -6891776.07049  -5364841.30449  19250526.1354   19250532.9514
  16466832.678   -23176830.37849 -18022614.04149  16466834.8884   16466839.2984
  17937581.035   -24405240.40949 -18991190.35649  17937581.2674   17937587.2724
  19274074.500   -16738316.99049 -13023990.55449  19274075.5624   19274080.9214
  16704521.042   -42688873.10749 -33227504.94449  16704521.0384   16704527.1454
 95  1  8 18 17 59.9850000  0  5  1 25 14 29 15
  19249041.561    -6899571.85349  -5370915.95249  19249042.8764   19249050.1624
  16458701.410   -23219562.60049 -18055911.89449  16458703.1114   16458707.7574
  17907052.132   -24565681.69249 -19116209.54149  17907051.7444   17907056.6914
  19247050.192   -16880322.44949 -13134644.15949  19247052.6864   19247058.3164
  16695611.393   -42735722.47749 -33264010.96349  16695606.1874   16695612.0354
 95  1  8 18 18 29.9850000  0  5  1 25 14 29 15
  19247573.049    -6907314.52749  -5376949.20149  19247568.9734   19247575.9604
  16450667.491   -23261785.58249 -18088812.93749  16450668.5114   16450672.9074
  17876550.477   -24725975.18349 -19241113.56549  17876548.0784   17876554.2884
  19220044.549   -17022231.47049 -13245222.62749  19220048.4984   19220054.1044
  16686809.278   -42781959.71249 -33300039.99249  16686807.5004   16686813.4114
 95  1  8 18 18 59.9850000  0  5  1 25 14 29 15
  19246103.901    -6915031.38449  -5382962.36749  19246100.2194   19246108.1614
  16442723.874   -23303536.20449 -18121345.90549  16442723.5384   16442728.0644
  17846065.091   -24886156.75449 -19365930.36849  17846066.9704   17846072.1844
  19193055.978   -17164066.45249 -13355743.40149  19193058.1344   19193063.4254
  16678122.241   -42827605.83549 -33335608.41649  16678121.5064   16678127.0964
 95  1  8 18 19 29.9850000  0  6  1 22 25 14 29 15
  19244635.539    -6922729.35349  -5388960.81649  19244636.1504   19244642.5984
  19230404.858     -519699.02659   -352963.17559  19230407.3934   19230413.3134
  16434869.026   -23344821.21049 -18153516.05849  16434867.2104   16434871.5484
  17815604.197   -25046243.85449 -19490673.56649  17815603.0374   17815608.2954
  19166086.589   -17305819.45149 -13466200.28549  19166082.9934   19166089.0604
  16669552.492   -42872661.78549 -33370716.96649  16669547.9354   16669553.1494
 95  1  8 18 19 59.9850000  0  6  1 22 25 14 29 15
  19243173.222    -6930399.32749  -5394937.43149  19243176.2564   19243183.3624
  19198219.189     -688820.66349   -484746.15949  19198224.4564   19198231.6784
  16427100.593   -23385637.07649 -18185320.64449  16427100.0364   16427104.5474
  17785158.139   -25206227.59649 -19615336.22049  17785159.0124   17785165.3144
  19139127.521   -17447468.33849 -13576576.05049  19139128.3664   19139133.7764
  16661084.219   -42917115.89349 -33405356.54449  16661088.2634   16661093.8984
 95  1  8 18 20 29.9850000  0  6  1 22 25 14 29 15
  19241716.716    -6938066.02549  -5400911.50949  19241717.0524   19241724.3444
  19166048.095     -857877.07649   -616478.33649  19166053.8894   19166060.6524
  16419419.029   -23426008.01949 -18216778.53949  16419418.0804   16419422.4274
  17754737.397   -25366097.38049 -19739910.06349  17754738.0064   17754742.4364
  19112196.709   -17589003.94049 -13686863.53949  19112195.1804   19112200.6244
  16652743.769   -42960980.23349 -33439536.56549  16652741.1174   16652746.8984
 95  1  8 18 20 59.9850000  0  6  1 22 25 14 29 15
  19240263.317    -6945721.53949  -5406876.87249  19240259.9964   19240266.5884
  19133906.848    -1026850.66449   -748145.98049  19133899.2844   19133905.8794
  16411825.449   -23465914.42149 -18247874.44949  16411824.0084   16411828.6174
  17724341.553   -25525822.57049 -19864371.24649  17724342.0864   17724348.2274
  19085287.835   -17730397.96949 -13797040.69449  19085288.4924   19085294.6174
  16644509.377   -43004247.16849 -33473251.07449  16644507.7814   16644513.6074
 95  1  8 18 21 29.9850000  0  6  1 22 25 14 29 15
  19238810.011    -6953356.96849  -5412826.56949  19238807.7084   19238815.1164
  19101761.216    -1195733.29149   -879742.74349  19101761.9534   19101768.3644
  16404319.033   -23505338.14349 -18278594.24749  16404321.4944   16404326.4024
  17693979.822   -25685378.38149 -19988700.45549  17693979.4574   17693984.9534
  19058415.986   -17871636.16649 -13907096.43749  19058412.0524   19058417.4214
  16636388.046   -43046911.51949 -33506496.03849  16636388.7934   16636394.9024
 95  1  8 18 21 59.9850000  0  6  1 22 25 14 29 15
  19237362.135    -6960966.99949  -5418756.48649  19237359.9744   19237366.2874
  19069645.406    -1364524.58849  -1011268.35849  19069642.5834   19069648.5444
  16396908.965   -23544280.01149 -18308938.58149  16396911.4924   16396915.9184
  17663653.349   -25844746.71649 -20112883.54349  17663653.0744   17663660.0634
  19031558.984   -18012730.08849 -14017039.73749  19031562.1304   19031568.1964
  16628384.512   -43088979.00649 -33539275.91849  16628383.8164   16628389.7934
 95  1  8 18 22 29.9850000  0  6  1 22 25 14 29 15
  19235913.042    -6968541.60549  -5424658.82849  19235917.5974   19235923.9214
  19037544.209    -1533226.59449  -1142724.39949  19037539.2184   19037545.0874
  16389596.698   -23582726.48749 -18338896.89149  16389595.6134   16389599.8014
  17633363.449   -26003918.46249 -20236913.47949  17633363.3714   17633368.9454
  19004741.475   -18153679.95549 -14126870.78149  19004740.5324   19004746.3074
  16620492.628   -43130449.04949 -33571590.25649  16620492.0824   16620498.2794
 95  1  8 18 22 59.9850000  0  6  1 22 25 14 29 15
  19234487.531    -6976074.69449  -5430528.80149  19234483.4184   19234491.6634
  19005454.238    -1701855.34949  -1274123.35349  19005450.5734   19005456.4754
  16382373.129   -23620680.94249 -18368471.80549  16382373.0334   16382377.2964
  17603112.388   -26162906.65549 -20360800.35549  17603109.4724   17603115.6194
  18977941.805   -18294507.56949 -14236606.58649  18977941.7104   18977947.2514
  16612708.634   -43171333.99549 -33603448.67549  16612711.9864   16612718.0874
 95  1  8 18 23 29.9850000  0  6  1 22 25 14 29 15
  19233061.228    -6983557.48349  -5436359.59049  19233060.8164   19233067.5614
  18973375.736    -1870397.57749  -1405454.90349  18973378.2254   18973384.1524
  16375241.473   -23658153.81049 -18397671.46449  16375241.9854   16375246.7584
  17572882.496   -26321723.45549 -20484553.72849  17572886.8424   17572892.8184
  18951169.822   -18435214.41849 -14346248.28449  18951167.2034   18951172.0174
  16605046.631   -43211627.70349 -33634846.38849  16605044.3464   16605050.5084
 95  1  8 18 23 59.9850000  0  6  1 22 25 14 29 15
  19231639.585    -6991044.90249  -5442193.90649  19231636.7094   19231642.9074
  18941319.487    -2038894.00949  -1536750.78149  18941314.2824   18941319.6834
  16368190.143   -23695211.33749 -18426547.47949  16368190.1254   16368194.5504
  17542684.971   -26480426.86149 -20608218.69749  17542686.6044   17542693.2174
  18924404.133   -18575854.61749 -14455838.06949  18924403.4944   18924408.5834
  16597478.800   -43251386.44849 -33665827.24249  16597478.4094   16597484.6084
 95  1  8 18 24 29.9840000  0  6  1 22 25 14 29 15
  19230215.438    -6998520.76549  -5448019.28249  19230214.7164   19230220.8914
  18909267.565    -2207305.50949  -1667980.46849  18909266.1684   18909272.1964
  16361222.591   -23731830.48449 -18455081.88949  16361221.8524   16361226.4604
  17512512.866   -26638989.77849 -20731774.22249  17512514.1404   17512519.8494
  18897657.056   -18716384.53149 -14565341.90649  18897660.9424   18897667.3424
  16590019.991   -43290582.02849 -33696369.27549  16590019.6484   16590025.7964
 95  1  8 18 24 59.9840000  0  6  1 22 25 14 29 15
  19228793.042    -7005995.11249  -5453843.51849  19228791.1274   19228798.8304
  18877247.358    -2375607.48349  -1799124.80749  18877239.9874   18877245.5564
  16354337.922   -23768011.60749 -18483274.99049  16354337.3444   16354341.6534
  17482368.995   -26797409.73449 -20855218.33449  17482366.9994   17482372.8764
  18870936.429   -18856809.24449 -14674763.76149  18870939.6994   18870944.9574
  16582673.031   -43329207.68449 -33726467.20449  16582669.8234   16582676.0544
 95  1  8 18 25 29.9840000  0  6  1 22 25 14 29 15
  19227365.770    -7013509.20149  -5459698.70249  19227361.4644   19227369.1054
  18845232.776    -2543802.15949  -1930185.54249  18845233.7924   18845239.2874
  16347532.631   -23803777.14449 -18511144.26249  16347530.8194   16347535.7984
  17452243.172   -26955694.40949 -20978557.04349  17452246.1394   17452252.8454
  18844236.611   -18997141.53049 -14784113.58649  18844234.9574   18844240.7304
  16575426.220   -43367280.26249 -33756134.16649  16575424.9134   16575431.0734
 95  1  8 18 25 59.9840000  0  6  1 22 25 14 29 15
  19225926.134    -7021070.49949  -5465590.69349  19225922.6734   19225929.5144
  18813256.997    -2711882.62549  -2061157.30049  18813249.3614   18813254.1584
  16340807.899   -23839117.54749 -18538682.25749  16340806.0184   16340810.7264
  17422155.478   -27113817.28649 -21101769.68149  17422156.9404   17422162.3584
  18817548.553   -19137382.54949 -14893392.32149  18817547.9504   18817553.3044
  16568288.570   -43404800.82549 -33785370.99349  16568284.7264   16568290.6114
 95  1  8 18 26 29.9840000  0  6  1 22 25 14 29 15
  19224475.048    -7028695.93849  -5471532.57649  19224471.8214   19224477.6074
  18781277.489    -2879862.22149  -2192050.44249  18781283.9674   18781288.3494
  16334162.818   -23874035.38349 -18565890.98749  16334161.5494   16334165.9664
  17392096.553   -27271791.12049 -21224866.16649  17392095.5884   17392101.2764
  18790874.664   -19277555.05749 -15002617.67849  18790874.4904   18790879.5304
  16561245.385   -43441782.20049 -33814187.67549  16561247.6044   16561253.2834
 95  1  8 18 26 59.9840000  0  6  1 22 25 14 29 15
  19223014.850    -7036349.55749  -5477496.44349  19223015.5684   19223022.3254
  18749343.961    -3047718.78149  -2322847.74649  18749342.3124   18749346.8294
  16327604.286   -23908506.37049 -18592751.51949  16327601.6814   16327606.3584
  17362063.510   -27429597.08049 -21347831.85849  17362065.4694   17362071.7554
  18764212.750   -19417646.59049 -15111779.92149  18764215.2464   18764221.3514
  16554316.367   -43478204.37049 -33842568.60549  16554316.6214   16554322.7554
 95  1  8 18 27 29.9840000  0  6  1 22 25 14 29 15
  19221557.364    -7044019.58049  -5483473.13549  19221555.9094   19221563.2594
  18717417.726    -3215470.81749  -2453563.61449  18717419.8254   18717425.0354
  16321128.187   -23942536.51649 -18619268.54049  16321126.3054   16321130.1634
  17332067.596   -27587237.14949 -21470668.27749  17332068.4064   17332074.1344
  18737573.129   -19557658.82749 -15220880.37549  18737572.5624   18737577.7224
  16547493.873   -43514073.61649 -33870518.68849  16547490.8644   16547497.0534
 95  1  8 18 27 59.9840000  0  6  1 22 25 14 29 15
  19220099.346    -7051692.68949  -5489452.20349  19220095.8674   19220102.5084
  18685517.415    -3383124.80449  -2584203.08949  18685516.3934   18685521.6654
  16314731.152   -23976135.32749 -18645449.45349  16314732.6504   16314736.9734
  17302099.234   -27744727.15349 -21593387.75549  17302098.7734   17302104.1404
  18710942.363   -19697599.09049 -15329924.74749  18710942.6484   18710948.3954
  16540768.643   -43549397.18849 -33898043.57249  16540768.9234   16540774.9104
 95  1  8 18 28 29.9840000  0  6  1 22 25 14 29 15
  19218636.236    -7059353.93149  -5495422.05249  19218637.3214   19218644.9204
  18653635.731    -3550682.53549  -2714767.58249  18653630.7514   18653636.2174
  16308417.538   -24009312.37449 -18671301.71749  16308418.8104   16308423.3804
  17272158.682   -27902073.31749 -21715995.15749  17272156.9974   17272162.5694
  18684327.799   -19837460.79349 -15438907.90049  18684327.6924   18684333.5154
  16534150.010   -43584175.74049 -33925143.76649  16534150.9714   16534156.9414
 95  1  8 18 28 59.9840000  0  6  1 22 25 14 29 15
  19217184.800    -7066994.24749  -5501375.57149  19217184.3914   19217191.0284
  18621765.835    -3718140.26349  -2845254.15249  18621764.3604   18621770.5964
  16302182.722   -24042073.91949 -18696830.21449  16302184.5734   16302189.4434
  17242246.028   -28059262.48149 -21838480.22349  17242244.5934   17242250.8124
  18657733.402   -19977228.75749 -15547818.00849  18657730.6204   18657736.3814
  16527638.869   -43618406.76249 -33951817.31449  16527637.1544   16527643.3504
 95  1  8 18 29 29.9840000  0  6  1 22 25 14 29 15
  19215728.932    -7074668.56749  -5507355.56749  19215724.1504   19215729.8114
  18589914.783    -3885540.31349  -2975695.78849  18589909.3754   18589915.7144
  16296020.327   -24074461.89849 -18722067.61349  16296021.5164   16296026.2994
  17212360.706   -28216319.58949 -21960862.37049  17212357.5044   17212363.1884
  18631150.209   -20116945.24349 -15656688.01949  18631144.2894   18631149.1824
  16521216.734   -43652138.67849 -33978101.94349  16521218.1924   16521224.1804
 95  1  8 18 29 59.9840000  0  6  1 22 25 14 29 15
  19214263.886    -7082348.62349  -5513340.05149  19214262.2684   19214269.0324
  18558071.615    -4052842.09349  -3106060.82849  18558072.5304   18558079.5244
  16289939.943   -24106449.49949 -18746993.04549  16289934.4054   16289939.3354
  17182502.902   -28373214.73149 -22083118.32449  17182501.3744   17182507.6284
  18604571.940   -20256576.47549 -15765491.57649  18604571.9794   18604578.0444
  16514900.870   -43685348.28649 -34003979.59549  16514898.7544   16514904.4514
 95  1  8 18 30 29.9840000  0  6  1 22 25 14 29 15
  19212802.545    -7090030.34649  -5519325.85549  19212799.9804   19212807.9284
  18526259.682    -4220029.77549  -3236336.94849  18526257.6934   18526264.3614
  16283924.771   -24138033.17449 -18771603.71849  16283924.5004   16283929.2224
  17152679.258   -28529915.07049 -22205222.48949  17152682.2564   17152687.6374
  18578018.291   -20396114.11749 -15874222.20849  18578019.7734   18578025.2624
  16508676.464   -43718030.10549 -34029445.97349  16508679.5394   16508685.2664
 95  1  8 18 30 59.9840000  0  6  1 22 25 14 29 15
  19211332.076    -7097731.78049  -5525327.01249  19211333.7524   19211341.7534
  18494461.758    -4387110.84549  -3366529.97949  18494462.7704   18494470.0364
  16277991.189   -24169215.26049 -18795901.46549  16277990.5424   16277995.2744
  17122898.817   -28686428.16149 -22327180.73849  17122898.8694   17122904.8224
  18551485.880   -20535569.14149 -15982888.45549  18551482.5064   18551487.5974
  16502561.274   -43750198.27149 -34054512.10649  16502558.2694   16502564.0464
 95  1  8 18 31 29.9840000  0  6  1 22 25 14 29 15
  19209866.152    -7105420.72449  -5531318.39049  19209871.0014   19209878.4474
  18462699.520    -4554045.03549  -3496608.54949  18462696.3344   18462703.2514
  16272137.930   -24199969.21949 -18819865.59149  16272138.5304   16272142.8664
  17093156.688   -28842738.52649 -22448981.01049  17093154.3944   17093160.1864
  18524965.676   -20674917.35849 -16091471.50249  18524965.3084   18524971.2394
  16496535.790   -43781830.11249 -34079160.32749  16496539.5404   16496545.0004
 95  1  8 18 31 59.9840000  0  6  1 22 25 14 29 15
  19208410.191    -7113099.76349  -5537302.11449  19208409.7954   19208418.4274
  18430955.941    -4720834.30549  -3626574.16949  18430957.6384   18430964.0374
  16266366.202   -24230303.44549 -18843502.65849  16266366.1224   16266370.4444
  17063448.084   -28998864.28549 -22570637.45149  17063444.2474   17063450.0634
  18498467.366   -20814166.22749 -16199977.09249  18498467.3324   18498472.5354
  16490618.742   -43812931.43449 -34103395.15649  16490620.6374   16490626.5684
 95  1  8 18 32 29.9840000  0  6  1 22 25 14 29 15
  19206954.843    -7120734.02949  -5543250.98449  19206956.9884   19206964.0514
  18399255.532    -4887440.72349  -3756397.29149  18399252.8484   18399260.1564
  16260683.024   -24260176.92449 -18866780.70549  16260681.2014   16260685.8034
  17033779.299   -29154770.45949 -22692122.77749  17033775.7784   17033782.0044
  18471998.232   -20953279.46549 -16308376.99849  18471995.3854   18472000.4104
  16484813.243   -43843459.15649 -34127183.01749  16484811.4884   16484817.3854
 95  1  8 18 32 59.9840000  0  6  1 22 25 14 29 15
  19205496.879    -7128381.26349  -5549209.85349  19205501.0814   19205509.4134
  18367573.849    -5053919.69449  -3886121.09349  18367573.2884   18367579.8734
  16255071.081   -24289649.23249 -18889746.14449  16255072.6414   16255077.1314
  17004130.298   -29310549.02149 -22813508.66949  17004132.1424   17004138.6624
  18445532.326   -21092319.21249 -16416719.65449  18445536.5174   18445541.7164
  16479097.483   -43873473.60149 -34150570.93149  16479099.5664   16479105.4964
 95  1  8 18 33 29.9840000  0  6  1 22 25 14 29 15
  19204047.975    -7136048.17149  -5555184.16049  19204043.1084   19204050.3984
  18335920.174    -5220272.88049  -4015746.88349  18335917.2954   18335923.6334
  16249538.037   -24318718.62849 -18912397.62249  16249540.8274   16249545.7624
  16974512.196   -29466205.37649 -22934799.34149  16974512.6694   16974518.2304
  18419093.286   -21231292.05949 -16525010.17049  18419090.4774   18419096.3094
  16473484.283   -43902971.88449 -34173556.63549  16473486.6114   16473492.3294
 95  1  8 18 33 59.9840000  0  6  1 22 25 14 29 15
  19202582.158    -7143709.05049  -5561153.71149  19202585.6414   19202591.5194
  18304288.028    -5386469.06849  -4145250.34849  18304290.5634   18304297.6824
  16244091.597   -24347341.47849 -18934701.14249  16244093.9884   16244098.7764
  16944926.206   -29621685.52349 -23055952.69549  16944925.4634   16944931.3074
  18392669.730   -21370147.69749 -16633209.36449  18392668.3914   18392673.0824
  16467979.617   -43931907.43549 -34196103.85249  16467979.9354   16467986.3874
 95  1  8 18 34 29.9830000  0  6  1 22 25 14 29 15
  19201123.066    -7151396.36149  -5567143.83449  19201121.9364   19201130.0874
  18272688.764    -5552533.14749  -4274650.87849  18272689.8724   18272696.2904
  16238727.595   -24375555.11649 -18956685.80149  16238725.7674   16238730.0524
  16915370.021   -29777000.48849 -23176977.34649  16915369.6274   16915375.7854
  18366264.545   -21508904.96649 -16741331.90449  18366263.2014   18366268.3014
  16462576.490   -43960312.23049 -34218237.49149  16462574.6394   16462580.8664
 95  1  8 18 34 59.9830000  0  6  1 22 25 14 29 15
  19199658.270    -7159115.65549  -5573158.94549  19199653.8004   19199660.4784
  18241111.279    -5718481.15749  -4403960.95749  18241110.8074   18241117.6284
  16233431.648   -24403379.33449 -18978367.00949  16233430.7134   16233435.2604
  16885848.547   -29932147.33649 -23297870.99749  16885846.4794   16885852.2964
  18339871.770   -21647582.53149 -16849392.33449  18339873.3564   18339878.8484
  16457268.056   -43988203.26649 -34239970.79649  16457267.7154   16457273.6424
 95  1  8 18 35 29.9830000  0  6  1 22 25 14 29 15
  19198192.498    -7166834.45949  -5579173.59649  19198185.4334   19198192.9144
  18209564.607    -5884262.93749  -4533141.49249  18209563.7204   18209570.3374
  16228216.905   -24430786.36449 -18999723.14449  16228215.1344   16228219.6284
  16856368.751   -30087050.16449 -23418574.49049  16856369.9124   16856375.8224
  18313509.938   -21786130.19149 -16957351.54949  18313508.7044   18313514.3754
  16452062.434   -44015551.22449 -34261280.92449  16452063.1964   16452069.5144
 95  1  8 18 35 59.9830000  0  6  1 22 25 14 29 15
  19196716.462    -7174548.82549  -5585184.86149  19196716.8914   19196723.6154
  18178050.401    -6049866.57949  -4662183.21449  18178050.1904   18178057.0874
  16223076.744   -24457788.58749 -19020763.85049  16223077.2204   16223081.5404
  16826939.156   -30241699.34849 -23539080.35049  16826940.2544   16826946.0954
  18287170.549   -21924566.61449 -17065224.09949  18287165.5864   18287170.0274
  16446959.420   -44042374.88649 -34282182.50849  16446959.1014   16446964.9934
 95  1  8 18 36 29.9830000  0  6  1 22 25 14 29 15
  19195246.960    -7182261.54349  -5591194.81749  19195249.1044   19195256.6194
  18146575.441    -6215279.94149  -4791076.66249  18146573.2204   18146580.1974
  16218010.951   -24484391.37849 -19041493.30749  16218014.3724   16218019.0474
  16797554.278   -30396114.26449 -23659403.65049  16797556.2104   16797562.2894
  18260839.533   -22062928.74149 -17173038.76649  18260836.2464   18260841.4814
  16441949.435   -44068697.75249 -34302693.86149  16441949.9544   16441956.0554
 95  1  8 18 36 59.9830000  0  6  1 22 25 14 29 15
  19193777.874    -7189962.75849  -5597195.78149  19193785.1244   19193790.5004
  18115143.259    -6380476.07449  -4919800.86149  18115137.2104   18115143.7564
  16213033.454   -24510577.97049 -19061898.44649  16213031.4744   16213036.2844
  16768218.816   -30550290.62649 -23779541.07649  16768217.8424   16768223.3964
  18234521.810   -22201211.38649 -17280791.47949  18234520.1514   18234526.4854
  16437038.363   -44094507.07249 -34322805.05249  16437038.5054   16437044.8514
 95  1  8 18 37 29.9830000  0  6  1 22 25 14 29 15
  19192318.841    -7197654.66849  -5603189.52049  19192320.6214   19192327.6334
  18083744.903    -6545451.30849  -5048352.94749  18083743.3794   18083750.1644
  16208130.315   -24536337.80549 -19081971.05249  16208129.0654   16208134.3374
  16738927.518   -30704231.95949 -23899495.35049  16738923.9884   16738930.0014
  18208216.625   -22339418.05649 -17388484.98149  18208220.9994   18208227.6084
  16432230.054   -44119799.08749 -34342513.15049  16432225.7084   16432231.9724
 95  1  8 18 37 59.9830000  0  6  1 22 25 14 29 15
  19190854.298    -7205367.13549  -5609199.27149  19190853.4274   19190859.2664
  18052385.188    -6710245.38649  -5176763.88249  18052384.2784   18052390.4604
  16203302.366   -24561704.63349 -19101737.43049  16203302.2874   16203307.0304
  16709663.821   -30857987.97649 -24019305.22949  16709665.3674   16709670.1414
  18181933.371   -22477585.46849 -17496147.93149  18181928.3554   18181934.3984
  16427507.415   -44144601.32749 -34361839.60649  16427506.0374   16427512.3164
 95  1  8 18 38 29.9830000  0  6  1 22 25 14 29 15
  19189378.083    -7213107.23249  -5615230.50949  19189380.5824   19189386.6544
  18021058.356    -6874876.13749  -5305047.52949  18021056.2714   18021062.7584
  16198552.178   -24586696.13549 -19121211.34449  16198546.6494   16198550.8804
  16680441.778   -31011565.51849 -24138976.02449  16680440.5154   16680445.6164
  18155644.412   -22615691.47449 -17603763.02549  18155648.5224   18155653.8614
  16422878.757   -44168910.17749 -34380781.60249  16422880.2844   16422886.1844
 95  1  8 18 38 59.9830000  0  6  1 22 25 14 29 15
  19187905.074    -7220858.52049  -5621270.46149  19187905.4544   19187912.4014
  17989754.516    -7039361.40949  -5433217.81249  17989755.7774   17989761.8764
  16193861.192   -24611320.86749 -19140399.46549  16193860.7544   16193865.4064
  16651255.521   -31164937.87449 -24258486.94449  16651254.6624   16651260.2404
  18129384.384   -22753706.22749 -17711307.00849  18129384.8544   18129390.8164
  16418351.312   -44192714.12649 -34399330.16349  16418350.3574   16418356.7614
 95  1  8 18 39 29.9830000  0  6  1 22 25 14 29 15
  19186425.869    -7228628.88649  -5627325.33549  19186426.9254   19186433.6394
  17958482.377    -7203719.54149  -5561289.04849  17958479.9024   17958485.3364
  16189239.914   -24635598.51349 -19159317.12549  16189240.9504   16189245.7944
  16622105.904   -31318112.39249 -24377843.70149  16622105.6144   16622111.8264
  18103137.913   -22891632.75249 -17818782.26249  18103138.7874   18103144.0784
  16413914.837   -44216029.90349 -34417498.32949  16413913.8384   16413920.3044
 95  1  8 18 39 59.9830000  0  6  1 22 25 14 29 15
  19184949.889    -7236411.47749  -5633389.73849  19184946.1844   19184953.5504
  17927229.751    -7367938.80149  -5689252.07349  17927229.7324   17927235.6804
  16184683.429   -24659531.73649 -19177966.40549  16184686.7534   16184690.7884
  16592998.186   -31471077.92249 -24497037.60149  16592997.6544   16593003.4614
  18076912.357   -23029446.69649 -17926169.77349  18076914.2384   18076918.9534
  16409568.537   -44238853.20049 -34435282.74549  16409570.7854   16409577.0564
 95  1  8 18 40 29.9830000  0  6  1 22 25 14 29 15
  19183462.334    -7244212.14649  -5639468.23849  19183461.2424   19183468.4344
  17896007.498    -7532015.37149  -5817103.89449  17896007.7294   17896012.6054
  16180204.744   -24683107.23549 -19196336.92949  16180200.4564   16180204.4924
  16563931.776   -31623817.55149 -24616055.47749  16563932.0174   16563937.6984
  18050707.260   -23167143.90749 -18033466.31949  18050710.6864   18050715.9164
  16405322.557   -44261192.02549 -34452689.66049  16405319.7684   16405325.5214
 95  1  8 18 40 59.9830000  0  6  1 22 25 14 29 15
  19181975.057    -7252029.25849  -5645559.53049  19181973.7724   19181981.0154
  17864821.860    -7695922.56749  -5944823.71249  17864817.0194   17864821.9734
  16175787.349   -24706308.14449 -19214415.57149  16175785.1344   16175789.9944
  16534912.789   -31776324.29649 -24734891.89649  16534910.8244   16534916.6264
  18024532.491   -23304729.10249 -18140675.59949  18024528.6764   18024534.2114
  16401160.321   -44283044.08749 -34469717.27349  16401161.2324   16401167.3754
 95  1  8 18 41 29.9830000  0  6  1 22 25 14 29 15
  19180479.186    -7259884.77949  -5651680.72849  19180479.0764   19180486.4174
  17833659.136    -7859636.20849  -6072392.77449  17833663.3664   17833668.8024
  16171443.120   -24729134.23849 -19232202.15349  16171441.5694   16171446.7844
  16505929.102   -31928622.26849 -24853565.63549  16505930.0384   16505935.3714
  17998362.782   -23442217.84049 -18247809.70449  17998365.6614   17998370.9454
  16397096.505   -44304420.72649 -34486374.43649  16397093.9664   16397099.8804
 95  1  8 18 41 59.9830000  0  6  1 22 25 14 29 15
  19178978.462    -7267775.97349  -5657829.73049  19178977.1374   19178984.9974
  17802552.097    -8023145.03349  -6199802.23849  17802548.5574   17802553.6764
  16167170.840   -24751582.65049 -19249694.42749  16167169.6864   16167174.4194
  16476991.728   -32080711.67349 -24972076.83949  16476988.1904   16476993.8634
  17972218.932   -23579622.38249 -18354878.20449  17972218.7754   17972224.4384
  16393117.034   -44325324.89849 -34502663.42949  16393116.0064   16393121.9104
 95  1  8 18 42 29.9830000  0  6  1 22 25 14 29 15
  19177474.845    -7275682.31649  -5663990.54249  19177471.7364   19177480.4594
  17771474.576    -8186436.37649  -6327042.20449  17771474.8764   17771480.5104
  16162965.404   -24773662.35849 -19266899.39849  16162968.0864   16162972.9284
  16448082.519   -32232604.34349 -25090434.74549  16448083.9364   16448089.9064
  17946082.283   -23716964.82949 -18461898.30849  17946083.4614   17946088.3564
  16389229.436   -44345756.94049 -34518584.52549  16389227.5834   16389233.9044
 95  1  8 18 42 59.9830000  0  6  1 22 25 14 29 15
  19175971.556    -7283595.97849  -5670157.08149  19175966.0274   19175974.8954
  17740446.700    -8349496.49949  -6454101.99049  17740445.3334   17740451.1204
  16158828.147   -24795394.27649 -19283833.36849  16158832.5784   16158837.5054
  16419216.496   -32384307.25149 -25208644.79549  16419215.4854   16419222.0864
  17919962.217   -23854254.86549 -18568877.58249  17919957.5814   17919962.7914
  16385430.364   -44365716.00549 -34534137.07249  16385429.4574   16385435.7724
 95  1  8 18 43 29.9830000  0  6  1 22 25 14 29 15
  19174459.367    -7291486.42149  -5676305.51649  19174464.4424   19174472.9284
  17709461.856    -8512308.78149  -6580968.69649  17709463.1384   17709469.3414
  16154765.819   -24816758.60049 -19300480.89349  16154766.9434   16154772.0314
  16390388.921   -32535788.48049 -25326682.09849  16390389.6814   16390395.4854
  17893846.558   -23991477.35949 -18675804.20649  17893845.6144   17893850.6504
  16381723.591   -44385186.46849 -34549308.89249  16381724.2044   16381730.6334
 95  1  8 18 43 59.9820000  0  6  1 22 25 14 29 15
  19172962.180    -7299380.01449  -5682456.40649  19172962.6244   19172970.4734
  17678524.287    -8674910.02149  -6707670.98949  17678521.1384   17678526.9144
  16150766.861   -24837775.05449 -19316857.35049  16150767.8364   16150772.4004
  16361603.770   -32687057.67349 -25444554.17949  16361604.5894   16361610.0064
  17867739.412   -24128656.10149 -18782696.74749  17867740.4744   17867745.9874
  16378109.420   -44404199.30649 -34564124.12549  16378106.3854   16378112.4624
 95  1  8 18 44 29.9820000  0  6  1 22 25 14 29 15
  19171456.986    -7307262.19649  -5688598.40049  19171462.6024   19171471.4984
  17647620.394    -8837293.90249  -6834203.88249  17647620.5564   17647626.3364
  16146840.609   -24858426.66549 -19332949.51649  16146838.1754   16146842.4174
  16332861.873   -32838091.27349 -25562242.68049  16332863.4864   16332869.0954
  17841647.018   -24265769.75349 -18889538.56749  17841648.8324   17841654.0644
  16374580.898   -44422741.96449 -34578572.98349  16374578.0664   16374584.1154
 95  1  8 18 44 59.9820000  0  6  1 22 25 14 29 15
  19169958.598    -7315146.61949  -5694742.15249  19169961.6684   19169970.5164
  17616763.058    -8999449.78749  -6960559.09249  17616762.9014   17616769.1964
  16142982.557   -24878689.57349 -19348738.79949  16142982.3854   16142986.7834
  16304174.060   -32988852.36849 -25679718.84949  16304175.1354   16304180.9504
  17815576.041   -24402789.44849 -18996307.14849  17815574.8894   17815580.5014
  16371142.451   -44440809.38949 -34592651.52549  16371140.3694   16371146.0034
 95  1  8 18 45 29.9820000  0  6  1 22 25 14 29 15
  19168462.447    -7323042.46449  -5700894.79849  19168459.9844   19168467.5624
  17585947.010    -9161386.34149  -7086743.42249  17585947.4304   17585954.1954
  16139202.763   -24898551.97049 -19364215.99049  16139202.8524   16139207.2594
  16275538.210   -33139343.24049 -25796984.44649  16275537.2444   16275543.2454
  17789520.068   -24539716.28449 -19103003.37449  17789518.7804   17789524.2034
  16367793.049   -44458408.36649 -34606365.04649  16367791.1534   16367797.4154
 95  1  8 18 45 59.9820000  0  6  1 22 25 14 29 15
  19166953.114    -7330954.16049  -5707059.79949  19166954.3774   19166962.4484
  17555176.624    -9323104.17049  -7212757.31449  17555173.4014   17555179.1754
  16135498.736   -24918029.34749 -19379393.16449  16135496.3174   16135500.7664
  16246950.121   -33289569.84249 -25914044.12049  16246950.7024   16246955.5334
  17763482.326   -24676538.15949 -19209617.80449  17763481.9734   17763487.9344
  16364534.615   -44475538.96549 -34619713.59449  16364531.4164   16364537.5634
 95  1  8 18 46 29.9820000  0  6  1 22 25 14 29 15
  19165440.893    -7338884.37049  -5713239.23249  19165445.1624   19165453.2324
  17524441.113    -9484608.03049  -7338604.45749  17524440.1584   17524446.4204
  16131862.041   -24937142.39349 -19394286.45349  16131859.1254   16131863.4154
  16218413.483   -33439543.83449 -26030906.95349  16218411.1924   16218416.9554
  17737468.095   -24813264.80049 -19316158.02949  17737464.0354   17737469.4834
  16361360.825   -44492209.20849 -34632703.43149  16361359.5114   16361364.9024
 95  1  8 18 46 59.9820000  0  6  1 22 25 14 29 15
  19163929.693    -7346847.65749  -5719444.41849  19163929.8174   19163937.2244
  17493747.958    -9645911.66749  -7464295.60549  17493745.4414   17493751.5074
  16128291.245   -24955907.75149 -19408908.80949  16128288.6404   16128292.8894
  16189918.696   -33589289.71149 -26147592.03849  16189915.7904   16189921.0784
  17711463.927   -24949917.59849 -19422640.71049  17711460.3304   17711465.3764
  16358270.838   -44508427.86249 -34645341.37349  16358272.2954   16358278.7284
 95  1  8 18 47 29.9820000  0  6  1 22 25 14 29 15
  19162414.102    -7354832.52749  -5725666.40649  19162410.0384   19162417.8684
  17463090.341    -9807017.69149  -7589832.79149  17463088.6954   17463093.7544
  16124779.122   -24974342.27249 -19423273.37349  16124780.5204   16124784.9664
  16161462.129   -33738807.55349 -26264099.43249  16161463.3154   16161469.0934
  17685472.862   -25086491.44349 -19529061.86149  17685471.2954   17685476.1054
  16355274.569   -44524194.59249 -34657627.17049  16355272.5354   16355278.1564
 95  1  8 18 47 59.9820000  0  6  1 22 25 14 29 15
  19160890.474    -7362830.74849  -5731898.84649  19160887.8674   19160895.9504
  17432470.582    -9967934.64549  -7715222.63749  17432466.3384   17432472.6154
  16121330.973   -24992461.83349 -19437392.51449  16121332.5994   16121337.1504
  16133053.379   -33888098.90549 -26380430.34849  16133053.8444   16133059.7294
  17659497.024   -25222990.42349 -19635424.69349  17659495.6334   17659501.0914
  16352356.866   -44539518.61349 -34669567.99549  16352356.9864   16352362.4574
 95  1  8 18 48 29.9820000  0  6  1 22 25 14 29 15
  19159363.141    -7370837.99649  -5738138.31249  19159364.6004   19159372.2634
  17401883.221   -10128656.78049  -7840460.63549  17401881.5144   17401888.1514
  16117942.408   -25010274.14849 -19451272.24249  16117942.7624   16117947.4584
  16104689.136   -34037159.78949 -26496581.67449  16104688.4324   16104693.9054
  17633531.505   -25359433.15449 -19741743.67249  17633531.8924   17633536.4824
  16349525.154   -44554406.17349 -34681168.72049  16349523.7854   16349529.8054
 95  1  8 18 48 59.9820000  0  6  1 22 25 14 29 15
  19157835.334    -7378846.08549  -5744378.39649  19157841.0144   19157847.9674
  17371337.381   -10289163.47349  -7965530.73949  17371338.0154   17371345.6004
  16114611.565   -25027783.47449 -19464915.87649  16114610.3064   16114615.1164
  16076370.775   -34185972.01449 -26612539.24849  16076370.4524   16076376.3464
  17607583.173   -25495806.65449 -19848008.69749  17607580.6944   17607586.2094
  16346774.957   -44568855.02849 -34692427.60449  16346774.1024   16346780.3314
 95  1  8 18 49 29.9820000  0  6  1 22 25 14 29 15
  19156321.546    -7386838.39849  -5750606.15849  19156320.8594   19156326.2754
  17340840.535   -10449435.58649  -8090418.07149  17340840.6584   17340846.4824
  16111329.396   -25044994.36349 -19478326.96849  16111335.5834   16111340.3734
  16048098.620   -34334530.89549 -26728299.40249  16048100.9354   16048106.0014
  17581644.881   -25632102.62049 -19954213.29449  17581644.7024   17581649.1274
  16344106.050   -44582867.88349 -34703346.74149  16344107.2614   16344113.4254
 95  1  8 18 49 59.9820000  0  6  1 22 25 14 29 15
  19154799.864    -7394830.58749  -5756833.86649  19154799.7694   19154807.4224
  17310388.374   -10609460.88949  -8215113.12949  17310388.7554   17310394.0074
  16108113.587   -25061917.02549 -19491513.46149  16108115.1684   16108120.1344
  16019874.029   -34482864.35149 -26843883.90949  16019874.1454   16019879.5234
  17555721.520   -25768342.37249 -20060374.08649  17555719.2234   17555724.8764
  16341518.666   -44596462.04449 -34713939.62849  16341520.2994   16341526.8754
 95  1  8 18 50 29.9820000  0  6  1 22 25 14 29 15
  19153283.147    -7402822.42449  -5763061.28449  19153278.4774   19153285.3514
  17279995.193   -10769207.59849  -8339591.02249  17279989.6964   17279996.0194
  16104954.087   -25078519.56949 -19504450.52149  16104955.7334   16104960.6454
  15991697.851   -34630941.81149 -26959268.93349  15991695.5354   15991700.7654
  17529813.393   -25904501.96949 -20166472.45149  17529808.4894   17529813.7854
  16339016.022   -44609621.23549 -34724193.58049  16339016.4164   16339023.4554
 95  1  8 18 50 59.9820000  0  6  1 22 25 14 29 15
  19151759.117    -7410832.08049  -5769302.57449  19151754.6754   19151761.6804
  17249646.191   -10928677.26649  -8463853.06249  17249643.9014   17249649.4894
  16101858.862   -25094789.52449 -19517128.41849  16101859.7054   16101864.4374
  15963566.256   -34778774.64449 -27074463.33849  15963563.7524   15963569.6504
  17503916.794   -26040579.35349 -20272506.75349  17503913.7534   17503919.6624
  16336590.409   -44622354.41349 -34734115.56649  16336593.5324   16336600.0724
 95  1  8 18 51 29.9820000  0  6  1 22 25 14 29 15
  19150226.078    -7418877.94849  -5775572.10249  19150223.7644   19150231.1534
  17219357.683   -11087880.64449  -8587907.62549  17219348.2104   17219353.3404
  16098821.251   -25110730.53049 -19529549.98649  16098825.8894   16098831.0514
  15935471.772   -34926374.87449 -27189476.49849  15935476.4214   15935482.0354
  17478034.889   -26176592.82249 -20378491.25349  17478032.2954   17478037.0334
  16334255.025   -44634673.84549 -34743715.15649  16334248.9444   16334254.8024
 95  1  8 18 51 59.9820000  0  6  1 22 25 14 29 15
  19148686.679    -7426961.49749  -5781870.98549  19148685.6864   19148692.6284
  17189105.542   -11246818.02949  -8711754.87649  17189103.8374   17189109.1984
  16095859.754   -25126333.07949 -19541707.83049  16095857.6594   16095861.3754
  15907439.168   -35073714.00949 -27304286.19649  15907438.3994   15907444.4004
  17452169.307   -26312537.36949 -20484422.02549  17452162.7414   17452167.5374
  16331985.744   -44646574.03949 -34752988.07249  16331984.9824   16331990.4434
 95  1  8 18 52 29.9820000  0  6  1 22 25 14 29 15
  19147150.494    -7435068.39149  -5788188.06149  19147143.2454   19147150.3194
  17158907.950   -11405494.32749  -8835398.76949  17158908.8574   17158914.5134
  16092962.358   -25141584.26549 -19553591.88949  16092955.6214   16092959.4384
  15879451.951   -35220772.31449 -27418877.07449  15879454.3544   15879460.4004
  17426302.088   -26448404.13349 -20590292.19449  17426307.0414   17426313.1854
  16329806.473   -44658048.31549 -34761929.10649  16329801.7744   16329807.7154
 95  1  8 18 52 59.9820000  0  6  1 22 25 14 29 15
  19145599.990    -7443201.20349  -5794525.36249  19145595.5034   19145603.1674
  17128760.271   -11563917.98049  -8958845.76349  17128761.5674   17128767.3864
  16090119.891   -25156507.22749 -19565220.18349  16090115.6894   16090120.4264
  15851521.402   -35367575.54449 -27533269.18749  15851519.1084   15851524.3784
  17400459.869   -26584210.45049 -20696115.25249  17400463.1884   17400469.2014
  16327698.117   -44669109.98149 -34770548.61649  16327696.3104   16327702.5504
 95  1  8 18 53 29.9820000  0  6  1 22 25 14 29 15
  19144045.143    -7451347.26249  -5800872.95749  19144045.4214   19144052.8934
  17098668.376   -11722086.14449  -9082093.60549  17098663.6604   17098668.6914
  16087337.643   -25171105.53749 -19576595.49249  16087337.5664   16087341.7774
  15823632.477   -35514112.49049 -27647453.81549  15823633.0564   15823639.6314
  17374633.184   -26719945.57149 -20801882.85949  17374635.1834   17374640.5864
  16325671.144   -44679757.30149 -34778845.26549  16325670.6624   16325676.2564
 95  1  8 18 53 59.9810000  0  6  1 22 25 14 29 15
  19142494.906    -7459491.09149  -5807218.82949  19142496.0164   19142503.3654
  17068612.561   -11879985.78849  -9205132.19949  17068615.5444   17068620.8714
  16084622.249   -25185374.83249 -19587714.44049  16084621.6714   16084626.7884
  15795800.007   -35660370.09549 -27761420.76849  15795801.3214   15795807.2904
  17348817.569   -26855589.44849 -20907579.38549  17348822.4624   17348827.8804
  16323724.360   -44689983.96949 -34786814.12749  16323724.6244   16323730.4664
 95  1  8 18 54 29.9810000  0  6  1 22 25 14 29 15
  19140944.988    -7467650.33349  -5813576.71749  19140942.9494   19140950.5164
  17038611.933   -12037638.31449  -9327978.31849  17038614.9794   17038620.0294
  16081963.283   -25199336.27249 -19598593.49949  16081965.1934   16081971.1654
  15768017.020   -35806380.62849 -27875195.19249  15768016.7774   15768022.6314
  17323017.047   -26991166.55449 -21013223.85049  17323023.1504   17323028.0894
  16321852.606   -44699810.05849 -34794470.84549  16321854.0804   16321861.0004
 95  1  8 18 54 59.9810000  0  6  1 22 25 14 29 15
  19139385.490    -7475815.32049  -5819939.07849  19139389.3084   19139396.9584
  17008668.860   -12195016.29549  -9450610.53249  17008667.5204   17008672.0764
  16079368.423   -25212983.43549 -19609227.65049  16079368.1074   16079372.7454
  15740284.466   -35952106.00949 -27988747.42049  15740286.0364   15740292.0104
  17297240.952   -27126661.27649 -21118804.09949  17297239.0334   17297244.9124
  16320060.302   -44709223.57349 -34801806.07749  16320063.1334   16320069.4234
 95  1  8 18 55 29.9810000  0  6  1 22 25 14 29 15
  19137837.330    -7483972.76649  -5826295.57149  19137836.8194   19137844.4094
  16978776.249   -12352101.11849  -9573014.23249  16978775.2864   16978779.5234
  16076830.962   -25226299.02149 -19619603.45249  16076834.2264   16076838.5034
  15712618.196   -36097505.44549 -28102045.67449  15712617.3744   15712623.3744
  17271472.132   -27262062.34349 -21224311.38349  17271474.0894   17271479.2054
  16318353.799   -44718212.43649 -34808810.42749  16318352.3154   16318358.6504
 95  1  8 18 55 59.9810000  0  6  1 22 25 14 29 15
  19136282.525    -7492143.99249  -5832662.79149  19136281.9744   19136290.0374
  16948937.160   -12508897.85049  -9695193.49549  16948937.1734   16948942.9954
  16074364.864   -25239297.98849 -19629732.52549  16074361.0154   16074366.6764
  15685012.272   -36242582.38549 -28215092.61749  15685010.1384   15685015.9224
  17245717.802   -27397399.70049 -21329769.01649  17245719.4194   17245724.8884
  16316715.587   -44726797.49949 -34815500.12149  16316718.8424   16316724.9474
 95  1  8 18 56 29.9810000  0  6  1 22 25 14 29 15
  19134721.350    -7500338.63849  -5839048.27049  19134722.5834   19134730.2974
  16919155.490   -12665408.08749  -9817149.45849  16919153.9494   16919160.4584
  16071948.481   -25251993.95749 -19639625.48849  16071945.1904   16071949.1904
  15657465.616   -36387330.72749 -28327883.52349  15657465.7064   15657471.1034
  17219975.569   -27532683.93849 -21435185.26949  17219975.6254   17219980.5374
  16315162.320   -44734985.95549 -34821880.76949  16315160.3334   16315167.0194
 95  1  8 18 56 59.9810000  0  6  1 22 25 14 29 15
  19133161.452    -7508544.41049  -5845442.42549  19133161.0444   19133168.9174
  16889432.148   -12821620.78449  -9938873.60649  16889427.4474   16889432.8484
  16069587.193   -25264388.85449 -19649283.85749  16069586.0334   16069590.8084
  15629982.341   -36531743.44149 -28440412.89249  15629984.9894   15629991.0294
  17194246.830   -27667898.42949 -21540547.15949  17194244.9884   17194250.7974
  16313680.685   -44742766.68849 -34827943.71449  16313679.8764   16313686.7764
 95  1  8 18 57 29.9810000  0  6  1 22 25 14 29 15
  19131595.214    -7516767.11649  -5851849.79949  19131596.4264   19131603.8364
  16859755.532   -12977537.69949 -10060367.27649  16859756.8584   16859762.9294
  16067285.795   -25276493.19649 -19658715.80449  16067283.0304   16067288.0774
  15602566.543   -36675839.54549 -28552695.55649  15602564.3544   15602569.8524
  17168527.638   -27803034.17749 -21645847.69649  17168528.7654   17168535.2784
  16312277.983   -44750146.13349 -34833693.95049  16312275.3734   16312281.7474
 95  1  8 18 57 59.9810000  0  6  1 22 25 14 29 15
  19130027.224    -7525011.11249  -5858273.74749  19130027.2434   19130035.0164
  16830143.456   -13133168.34949 -10181637.86149  16830142.4254   16830148.4434
  16065034.453   -25288324.02349 -19667934.63349  16065031.8364   16065035.4364
  15575195.291   -36819649.29149 -28664755.08249  15575198.0844   15575203.6444
  17142826.930   -27938092.62049 -21751088.00649  17142828.5384   17142834.0484
  16310944.143   -44757133.97249 -34839139.04949  16310945.8724   16310952.7814
 95  1  8 18 58 29.9810000  0  6  1 22 25 14 29 15
  19128451.502    -7533284.73349  -5864720.79949  19128453.1584   19128460.6904
  16800579.486   -13288529.57049 -10302698.54149  16800577.5984   16800583.2014
  16062829.836   -25299904.65749 -19676958.51649  16062828.5454   16062833.0014
  15547881.094   -36963204.38149 -28776616.17749  15547880.4934   15547886.1374
  17117143.349   -28073080.63649 -21856273.43349  17117141.1524   17117146.5194
  16309689.029   -44763745.61449 -34844291.01949  16309688.1344   16309694.2954
 95  1  8 18 58 59.9810000  0  6  1 22 25 14 29 15
  19126873.906    -7541565.36549  -5871173.32249  19126879.0554   19126884.6114
  16771073.961   -13443593.30849 -10423527.40849  16771070.0914   16771076.3524
  16060683.482   -25311205.05149 -19685764.00449  16060677.7674   16060682.7994
  15520610.289   -37106496.50249 -28888272.35649  15520613.0094   15520618.3924
  17091468.101   -28207973.36049 -21961384.59849  17091471.4574   17091477.4624
  16308500.054   -44769964.38049 -34849136.84549  16308504.7804   16308510.8154
 95  1  8 18 59 29.9810000  0  6  1 22 25 14 29 15
  19125297.764    -7549842.00349  -5877622.73949  19125303.8684   19125309.8394
  16741625.955   -13598341.96449 -10544110.74249  16741622.0704   16741628.8184
  16058584.029   -25322203.46949 -19694334.22049  16058584.0454   16058588.4404
  15493396.410   -37249520.32249 -28999719.47549  15493396.5434   15493401.9744
  17065820.642   -28342774.05549 -22066424.06549  17065820.7334   17065825.1114
  16307395.729   -44775792.59649 -34853678.34449  16307395.8944   16307402.1624
 95  1  8 18 59 59.9810000  0  6  1 22 25 14 29 15
  19123739.020    -7558102.34149  -5884059.41249  19123730.3854   19123738.6744
  16712238.382   -13752769.60049 -10664443.96549  16712235.9874   16712242.5804
  16056553.017   -25332890.12649 -19702661.50149  16056551.2694   16056555.5034
  15466235.121   -37392270.32749 -29110953.22849  15466231.8424   15466237.4054
  17040185.595   -28477486.24049 -22171394.55849  17040186.0424   17040190.9014
  16306357.362   -44781229.63449 -34857915.03549  16306360.9064   16306367.4714
 95  1  8 19  0 29.9810000  0  6  1 22 25 14 29 15
  19122161.224    -7566345.91749  -5890483.02749  19122159.9554   19122172.3784
  16682912.838   -13906878.11349 -10784528.45149  16682910.2174   16682916.7614
  16054573.238   -25343272.65749 -19710751.77549  16054575.7854   16054579.8934
  15439118.231   -37534732.00949 -29221962.32349  15439122.4934   15439127.8614
  17014567.728   -28612111.91549 -22276297.64649  17014566.6224   17014571.8144
  16305397.196   -44786285.77049 -34861854.92449  16305399.0434   16305404.7744
 95  1  8 19  0 59.9810000  0  6  1 22 25 14 29 15
  19120610.937    -7574580.86649  -5896899.95149  19120592.3934   19120601.4374
  16653642.336   -14060670.36149 -10904366.55849  16653644.1444   16653650.5794
  16052660.806   -25353358.13349 -19718610.61049  16052656.1744   16052660.8574
  15412073.351   -37676885.36549 -29332731.16049  15412072.0024   15412076.9404
  16988967.230   -28746652.93149 -22381134.77549  16988964.8844   16988970.1684
  16304507.539   -44790968.98349 -34865504.21549  16304508.0644   16304514.1534
 95  1  8 19  1 29.9810000  0  6  1 22 25 14 29 15
  19119036.521    -7582796.08749  -5903301.51949  19119029.2164   19119041.1054
  16624441.190   -14214130.86449 -11023946.13049  16624441.1794   16624448.0454
  16050793.811   -25363142.87149 -19726235.09849  16050793.7814   16050798.4144
  15385083.915   -37818695.65449 -29443232.67249  15385085.9264   15385091.6604
  16963379.995   -28881099.26049 -22485898.12249  16963380.5654   16963385.4474
  16303688.583   -44795270.73849 -34868856.27149  16303689.3604   16303695.5294
 95  1  8 19  1 59.9810000  0  6  1 22 25 14 29 15
  19117456.173    -7591024.32159  -5909713.24749  19117465.2414   19117471.4854
  16595301.044   -14367278.58749 -11143281.97349  16595298.6314   16595303.5934
  16048981.171   -25372660.78049 -19733651.65849  16048982.7124   16048987.1104
  15358163.496   -37960166.76549 -29553469.88449  15358164.7434   15358170.2014
  16937810.719   -29015467.25349 -22590600.41249  16937811.1744   16937816.2594
  16302937.196   -44799211.91949 -34871927.37049  16302939.0494   16302945.2404
 95  1  8 19  2 29.9810000  0  5 22 25 14 29 15
  16566219.150   -14520090.85449 -11262356.46349  16566219.2074   16566224.6694
  16047229.011   -25381887.00749 -19740840.94249  16047226.5814   16047232.0634
  15331314.990   -38101267.87349 -29663418.77849  15331314.3044   15331320.0564
  16912259.604   -29149741.71849 -22695229.83449  16912259.4634   16912264.0684
  16302255.776   -44802775.47049 -34874704.19449  16302261.1344   16302267.8724
 95  1  8 19  2 59.9810000  0  5 22 25 14 29 15
  16537203.621   -14672575.13749 -11381175.34049  16537201.7244   16537209.4264
  16045524.820   -25390826.10949 -19747806.49649  16045526.6454   16045530.9114
  15304531.879   -38242022.25149 -29773097.50149  15304529.7664   15304535.0444
  16886722.202   -29283944.02149 -22799803.03849  16886720.9664   16886726.1654
  16301653.454   -44805977.53349 -34877199.34349  16301652.3224   16301658.4384
 95  1  8 19  3 29.9810000  0  5 22 25 14 29 15
  16508248.313   -14824723.09449 -11499732.16849  16508249.7684   16508256.2014
  16043876.339   -25399486.08049 -19754554.54749  16043878.4084   16043882.7914
  15277805.313   -38382449.75949 -29882521.51449  15277806.8454   15277812.4314
  16861198.504   -29418087.39449 -22904330.30849  16861194.9934   16861200.3734
  16301110.962   -44808824.78049 -34879418.01049  16301110.0874   16301116.5594
 95  1  8 19  3 59.9800000  0  5 22 25 14 29 15
  16479366.559   -14976521.52349 -11618016.63649  16479363.9804   16479369.6244
  16042287.340   -25407867.60449 -19761085.62249  16042282.4674   16042288.3454
  15251144.683   -38522557.80349 -29991696.60249  15251145.3224   15251150.8194
  16835680.189   -29552161.34549 -23008803.49649  16835681.6834   16835686.2234
  16300638.839   -44811312.35449 -34881356.42649  16300636.7104   16300642.9654
 95  1  8 19  4 29.9800000  0  5 22 25 14 29 15
  16450543.880   -15127968.97649 -11736027.59549  16450543.8684   16450550.5854
  16040742.008   -25415965.53849 -19767395.72049  16040742.6764   16040746.8034
  15224541.328   -38662353.29949 -30100628.14049  15224543.0754   15224548.5134
  16810179.494   -29686173.97249 -23113228.89049  16810179.0054   16810184.8844
  16300235.756   -44813437.65549 -34883012.54649  16300232.7594   16300238.5134
 95  1  8 19  4 59.9800000  0  5 22 25 14 29 15
  16421797.108   -15279059.48249 -11853760.42649  16421791.9094   16421799.4734
  16039252.936   -25423797.31049 -19773498.42949  16039252.8134   16039256.9394
  15198000.849   -38801836.55049 -30209316.37449  15198000.3914   15198006.1574
  16784694.272   -29820113.60649 -23217597.41749  16784692.4904   16784696.8224
  16299899.862   -44815205.92449 -34884390.45749  16299896.0434   16299902.0804
 95  1  8 19  5 29.9800000  0  5 22 25 14 29 15
  16393112.201   -15429793.37049 -11971215.33049  16393109.0114   16393114.4684
  16037815.346   -25431374.56949 -19779402.81649  16037810.5344   16037814.9544
  15171518.860   -38941005.38949 -30317759.60949  15171517.2864   15171522.7234
  16759219.100   -29953977.60249 -23321906.98449  16759218.5384   16759222.7584
  16299625.675   -44816624.43349 -34885495.82249  16299625.8914   16299632.1274
 95  1  8 19  5 59.9800000  0  5 22 25 14 29 15
  16364492.044   -15580190.31949 -12088407.74749  16364489.6094   16364494.0034
  16036416.021   -25438711.94549 -19785120.26949  16036414.1254   16036418.4054
  15145094.054   -39079866.02049 -30425962.68549  15145092.9414   15145098.5944
  16733759.091   -30087767.91849 -23426159.16149  16733759.0214   16733763.0894
  16299414.066   -44817710.18449 -34886341.90349  16299419.2774   16299425.8954
 95  1  8 19  6 29.9800000  0  5 22 25 14 29 15
  16335936.675   -15730245.25849 -12205333.61949  16335934.4474   16335941.4134
  16035068.667   -25445798.47849 -19790642.25949  16035065.8524   16035070.3024
  15118732.934   -39218396.81249 -30533908.74649  15118731.6984   15118737.1534
  16708318.152   -30221470.56949 -23530343.01449  16708316.0864   16708320.4644
  16299278.020   -44818460.03749 -34886926.23949  16299276.6574   16299283.0964
 95  1  8 19  6 59.9800000  0  5 22 25 14 29 15
  16307444.999   -15879972.77749 -12322004.39649  16307441.6374   16307448.8564
  16033760.716   -25452650.84149 -19795981.78949  16033761.9054   16033766.5624
  15092428.284   -39356618.59149 -30641614.01649  15092428.6194   15092434.5614
  16682889.417   -30355100.67049 -23634470.31749  16682886.8784   16682891.8094
  16299201.857   -44818891.77049 -34887262.68249  16299194.2424   16299201.3994
 95  1  8 19  7 29.9800000  0  5 22 25 14 29 15
  16279019.033   -16029347.22449 -12438400.01149  16279017.4334   16279023.2744
  16032505.514   -25459251.39049 -19801125.10649  16032505.5504   16032510.3014
  15066188.159   -39494518.55849 -30749068.52649  15066187.1504   15066192.8454
  16657469.213   -30488661.97749 -23738544.03049  16657470.6014   16657475.6714
  16299176.534   -44818996.45149 -34887344.28149  16299174.9114   16299181.7574
 95  1  8 19  7 59.9800000  0  5 22 25 14 29 15
  16250662.417   -16178349.40449 -12554505.53849  16250663.4644   16250669.4444
  16031304.156   -25465571.74249 -19806050.07549  16031302.5844   16031307.1794
  15040011.208   -39632066.46749 -30856248.69349  15040012.4594   15040018.3574
  16632067.680   -30622142.98249 -23842555.15549  16632070.2684   16632074.8134
  16299219.036   -44818756.03049 -34887156.97649  16299220.1234   16299226.7334
 95  1  8 19  8 29.9800000  0  5 22 25 14 29 15
  16222387.015   -16326967.41049 -12670311.71349  16222383.2294   16222388.7664
  16030155.796   -25471596.29649 -19810744.53249  16030155.9694   16030160.9044
  15013907.968   -39769239.81249 -30963137.00149  15013909.3914   15013914.9114
  16606684.063   -30755544.16449 -23946504.08549  16606685.1564   16606690.2814
  16299335.520   -44818162.48449 -34886694.50449  16299333.6224   16299339.9454
 95  1  8 19  8 59.9800000  0  5 22 25 14 29 15
  16194167.970   -16475232.97149 -12785843.28049  16194168.7324   16194173.7024
  16029060.616   -25477361.57349 -19815236.98349  16029059.1114   16029064.0284
  14987874.968   -39906067.54749 -31069755.99749  14987872.3174   14987877.7674
  16581311.127   -30888909.10649 -24050424.78949  16581306.8934   16581312.0324
  16299507.618   -44817252.20349 -34885985.22549  16299507.1214   16299513.2034
 95  1  8 19  9 29.9800000  0  5 22 25 14 29 15
  16166024.459   -16623147.26149 -12901101.17949  16166021.7994   16166025.1034
  16028012.809   -25482862.31149 -19819523.29549  16028012.8914   16028017.8494
  14961907.013   -40042521.40549 -31176083.66349  14961905.9384   14961911.0804
  16555936.135   -31022228.15449 -24154309.72349  16555936.9734   16555941.9474
  16299738.162   -44816024.12849 -34885028.31949  16299740.9834   16299746.7044
 95  1  8 19  9 59.9800000  0  5 22 25 14 29 15
  16137944.536   -16770712.39849 -13016086.94449  16137941.5784   16137945.5454
  16027015.565   -25488097.87449 -19823602.97649  16027016.3444   16027020.4014
  14936016.185   -40178576.05049 -31282100.25149  14936015.2614   14936020.9794
  16530578.232   -31155478.13349 -24258140.83549  16530578.5114   16530585.3014
  16300037.679   -44814466.75449 -34883814.81549  16300036.5194   16300043.5544
 95  1  8 19 10 29.9800000  0  5 22 25 14 29 15
  16109929.701   -16917927.29749 -13130799.80649  16109926.6114   16109931.6274
  16026067.972   -25493096.94449 -19827498.35549  16026065.1814   16026070.0824
  14910197.365   -40314252.70949 -31387822.31349  14910196.9194   14910202.5164
  16505236.861   -31288655.80049 -24361915.60649  16505237.7454   16505242.6284
  16300393.392   -44812592.06749 -34882354.04949  16300393.2284   16300400.1014
 95  1  8 19 10 59.9800000  0  5 22 25 14 29 15
  16081978.714   -17064769.81249 -13245222.50349  16081983.0914   16081988.3404
  16025157.077   -25497876.37749 -19831222.60549  16025155.9344   16025160.1414
  14884448.865   -40449565.72749 -31493261.00749  14884447.2404   14884453.3564
  16479911.205   -31421758.00149 -24465631.58449  16479907.4164   16479913.8994
  16300810.054   -44810406.08349 -34880650.71149  16300809.5944   16300816.2184
 95  1  8 19 11 29.9800000  0  5 22 25 14 29 15
  16054118.054   -17211216.79349 -13359337.02649  16054116.1954   16054120.8744
  16024285.054   -25502439.61849 -19834778.39349  16024286.7554   16024292.1254
  14858764.499   -40584520.50649 -31598420.56249  14858766.4634   14858772.4954
  16454597.158   -31554767.25049 -24569275.13949  16454597.9334   16454602.3934
  16301287.969   -44807905.36449 -34878702.14249  16301285.8274   16301292.3574
 95  1  8 19 11 59.9800000  0  5 22 25 14 29 15
  16026327.201   -17357236.71449 -13473118.72449  16026328.1704   16026334.8114
  16023466.108   -25506769.48049 -19838152.32949  16023463.1274   16023467.9544
  14833156.088   -40719113.32849 -31703298.06949  14833154.3744   14833160.1584
  16429308.007   -31687661.80849 -24672829.31049  16429308.2444   16429313.3534
  16301827.426   -44805076.00749 -34876497.48049  16301823.8734   16301831.0744
 95  1  8 19 12 29.9800000  0  5 22 25 14 29 15
  15998628.546   -17502800.94249 -13586545.38349  15998628.1004   15998633.8434
  16022688.022   -25510834.45449 -19841319.84649  16022689.5554   16022694.8024
  14807610.790   -40853347.43949 -31807896.06049  14807610.5254   14807616.3874
  16404048.166   -31820429.01549 -24776284.24849  16404044.0254   16404048.4594
  16302422.882   -44801909.91249 -34874030.42549  16302426.4864   16302432.8844
 95  1  8 19 12 59.9800000  0  5 22 25 14 29 15
  15971009.188   -17647947.82849 -13699646.82349  15971008.7094   15971013.2044
  16021960.344   -25514650.18949 -19844293.15049  16021963.2564   16021968.5914
  14782132.957   -40987236.60849 -31912225.27349  14782131.9114   14782138.1354
  16378794.625   -31953106.32649 -24879669.13349  16378794.9204   16378801.0664
  16303089.860   -44798445.60249 -34871331.00249  16303085.6124   16303092.4954
 95  1  8 19 13 29.9800000  0  5 22 25 14 29 15
  15943468.029   -17792678.26949 -13812423.76249  15943466.1154   15943471.7504
  16021294.024   -25518181.97849 -19847045.22549  16021291.6934   16021296.6634
  14756726.907   -41120747.49249 -32016259.71649  14756726.2394   14756731.5274
  16353572.919   -32085677.52549 -24982971.34149  16353568.9914   16353573.7504
  16303803.226   -44794666.53249 -34868386.31449  16303804.9964   16303811.9874
 95  1  8 19 13 59.9790000  0  5 22 25 14 29 15
  15916005.856   -17937005.50649 -13924886.51249  15916001.8434   15916007.0164
  16020673.461   -25521436.56949 -19849581.29449  16020672.4964   16020677.4934
  14731389.202   -41253884.09849 -32120002.52349  14731391.0074   14731396.6904
  16328360.910   -32218162.87849 -25086206.65749  16328357.7614   16328362.6604
  16304582.674   -44790588.87949 -34865208.95449  16304581.2334   16304587.7374
 95  1  8 19 14 29.9790000  0  5 22 25 14 29 15
  15888614.576   -18080928.14649 -14037034.02649  15888613.4414   15888619.0404
  16020104.066   -25524428.10849 -19851912.38349  16020103.1394   16020107.4184
  14706131.205   -41386637.69849 -32223446.87649  14706128.8024   14706134.4244
  16303165.164   -32350559.64249 -25189372.94249  16303163.0394   16303167.7754
  16305414.751   -44786205.28549 -34861793.21849  16305415.0534   16305420.6664
 95  1  8 19 14 59.9790000  0  5 22 25 14 29 15
  15861309.167   -18224430.78249 -14148854.19549  15861306.1464   15861311.7644
  16019582.399   -25527176.06849 -19854053.67449  16019580.6174   16019585.3814
  14680950.333   -41518967.02449 -32326560.62749  14680947.5244   14680953.1614
  16277985.988   -32482850.85449 -25292456.96649  16277987.7654   16277994.0054
  16306311.278   -44781498.40049 -34858125.54949  16306310.5564   16306317.8644
 95  1  8 19 15 29.9790000  0  5 22 25 14 29 15
  15834075.457   -18367533.49149 -14260362.76349  15834074.6494   15834081.4394
  16019099.537   -25529716.72749 -19856033.41349  16019097.1284   16019101.7284
  14655838.871   -41650908.50649 -32429372.15949  14655839.7134   14655845.1674
  16252825.727   -32615071.34549 -25395485.88949  16252828.8614   16252833.6394
  16307265.334   -44776494.82949 -34854226.69749  16307263.3544   16307269.5734
 95  1  8 19 15 59.9790000  0  5 22 25 14 29 15
  15806922.740   -18510240.76649 -14371563.20349  15806917.7494   15806925.2394
  16018641.939   -25532073.03049 -19857869.52149  16018648.0924   16018653.0954
  14630804.242   -41782476.77549 -32531892.87649  14630803.2144   14630808.9994
  16227677.035   -32747227.72249 -25498464.87649  16227680.1684   16227684.6874
  16308270.261   -44771209.99749 -34850108.68949  16308269.5154   16308275.2044
 95  1  8 19 16 29.9790000  0  5 22 25 14 29 15
  15779833.291   -18652564.15549 -14482464.50149  15779834.4954   15779841.3454
  16018237.519   -25534251.30649 -19859566.92649  16018233.2914   16018238.6264
  14605837.400   -41913661.86949 -32634115.01449  14605839.3104   14605845.1634
  16202540.489   -32879327.60649 -25601399.82149  16202541.2194   16202546.4574
  16309325.293   -44765656.84049 -34845781.59049  16309325.6254   16309332.8044
 95  1  8 19 16 59.9790000  0  5 22 25 14 29 15
  15752831.863   -18794476.34549 -14593045.41749  15752829.2814   15752835.2214
  16017863.701   -25536194.82549 -19861081.38149  16017863.3974   16017868.5834
  14580956.061   -42044432.34449 -32736014.07849  14580955.0344   14580960.4084
  16177416.804   -33011356.48849 -25704279.46349  16177418.6214   16177422.6184
  16310437.714   -44759810.99949 -34841226.42249  16310437.6154   16310444.0154
 95  1  8 19 17 29.9790000  0  5 22 25 14 29 15
  15725908.120   -18935965.12549 -14703296.40249  15725906.1384   15725911.1444
  16017543.232   -25537884.89049 -19862398.33449  16017542.6124   16017547.3834
  14556146.320   -42174792.02749 -32837593.04549  14556148.1054   14556153.7874
  16152307.119   -33143299.73149 -25807092.36549  16152310.3934   16152315.3204
  16311604.832   -44753678.57049 -34836447.95249  16311604.3804   16311611.6914
 95  1  8 19 17 59.9790000  0  5 22 25 14 29 15
  15699062.058   -19077039.93049 -14813224.76849  15699061.0144   15699066.3434
  16017270.127   -25539339.19449 -19863531.60049  16017265.1754   16017271.0274
  14531422.885   -42304738.80949 -32938850.27149  14531419.7674   14531425.4224
  16127216.841   -33275153.29949 -25909835.38049  16127219.1034   16127223.6154
  16312825.990   -44747275.30349 -34831458.43549  16312822.9764   16312830.1874
 95  1  8 19 18 29.9790000  0  5 22 25 14 29 15
  15672292.487   -19217698.58249 -14922828.86149  15672292.7984   15672299.3894
  16017027.289   -25540565.91849 -19864487.53349  16017031.9004   16017037.1894
  14506767.685   -42434279.73749 -33039791.24649  14506769.1544   14506775.0084
  16102146.888   -33406924.09749 -26012513.89849  16102144.0734   16102149.3074
  16314086.419   -44740611.71549 -34826266.07749  16314091.1224   16314098.2494
 95  1  8 19 18 59.9790000  0  5 22 25 14 29 15
  15645608.764   -19357937.94749 -15032106.21749  15645606.4994   15645611.8354
  16016844.172   -25541585.13749 -19865281.74749  16016838.3844   16016843.4544
  14482190.297   -42563438.39449 -33140434.35049  14482190.9914   14482196.6484
  16077084.138   -33538608.75749 -26115125.30449  16077085.0044   16077089.4294
  16315410.125   -44733689.97149 -34820872.55049  16315408.9094   16315415.4414
 95  1  8 19 19 29.9790000  0  5 22 25 14 29 15
  15619005.760   -19497729.07149 -15141034.37749  15619005.0294   15619010.9454
  16016678.483   -25542394.73149 -19865912.63449  16016683.2224   16016689.5424
  14457688.957   -42692198.14549 -33240766.62249  14457688.8854   14457694.7634
  16052049.075   -33670179.89949 -26217648.25849  16052048.4084   16052052.8564
  16316778.410   -44726491.50949 -34815263.41749  16316778.3564   16316785.5944
 95  1  8 19 19 59.9790000  0  5 22 25 14 29 15
  15592493.604   -19637062.35849 -15249605.74649  15592490.5294   15592497.2134
  16016570.484   -25542992.52449 -19866378.46249  16016570.6684   16016575.4594
  14433258.995   -42820569.36449 -33340796.13949  14433260.3004   14433266.3524
  16027029.892   -33801655.55449 -26320096.78849  16027029.2174   16027033.3544
  16318201.537   -44719022.01149 -34809443.06849  16318199.3424   16318206.8924
 95  1  8 19 20 29.9790000  0  5 22 25 14 29 15
  15566068.631   -19775924.21449 -15357809.76049  15566065.5344   15566072.4724
  16016500.801   -25543365.01449 -19866668.75749  16016500.1294   16016504.9104
  14408906.697   -42948547.71849 -33440519.52849  14408906.9284   14408912.7294
  16002028.103   -33933043.49849 -26422477.00849  16002026.2544   16002032.3724
  16319674.682   -44711279.00149 -34803409.58349  16319673.1524   16319680.1184
 95  1  8 19 20 59.9790000  0  5 22 25 14 29 15
  15539733.276   -19914319.51649 -15465650.21649  15539731.0344   15539735.9054
  16016468.836   -25543526.49949 -19866794.58849  16016468.9524   16016474.2584
  14384630.613   -43076125.11149 -33539930.48149  14384629.9594   14384635.7844
  15977039.995   -34064353.45249 -26524796.43849  15977039.4044   15977043.0494
  16321196.377   -44703269.39549 -34797168.36149  16321197.6594   16321204.5874
 95  1  8 19 21 29.9790000  0  5 22 25 14 29 15
  15513486.258   -20052248.09449 -15573127.00849  15513485.2344   15513489.4754
  16016477.410   -25543492.96149 -19866768.49249  16016475.6574   16016480.2324
  14360430.926   -43203301.22249 -33639028.74449  14360429.2634   14360434.9184
  15952067.367   -34195592.40449 -26627060.54049  15952064.8894   15952069.6544
  16322767.568   -44695015.01849 -34790736.41749  16322768.3194   16322775.2654
 95  1  8 19 21 59.9790000  0  5 22 25 14 29 15
  15487331.074   -20189709.60949 -15680239.84349  15487326.3124   15487331.1094
  16016518.214   -25543260.35349 -19866587.23749  16016519.2504   16016524.2944
  14336311.048   -43330044.16849 -33737789.48049  14336310.8504   14336316.6014
  15927104.909   -34326743.89049 -26729256.47849  15927107.9364   15927112.5234
  16324389.613   -44686505.22049 -34784105.44249  16324387.2534   16324394.9724
 95  1  8 19 22 29.9790000  0  5 22 25 14 29 15
  15461248.316   -20326734.69249 -15787012.60349  15461250.4554   15461256.7304
  16016598.997   -25542852.06749 -19866269.12849  16016598.0544   16016603.1024
  14312279.748   -43456341.56349 -33836203.02749  14312277.0464   14312283.0994
  15902170.217   -34457801.86049 -26831379.55649  15902168.2774   15902173.3204
  16326054.360   -44677748.32849 -34777281.92649  16326054.0784   16326061.1654
 95  1  8 19 22 59.9790000  0  5 22 25 14 29 15
  15435262.556   -20463322.42449 -15893444.59049  15435258.7074   15435264.3664
  16016710.104   -25542271.94749 -19865817.09849  16016707.6174   16016712.3154
  14288329.605   -43582197.09249 -33934272.26149  14288327.5114   14288333.3564
  15877249.258   -34588752.98549 -26933419.38049  15877248.6884   15877253.6654
  16327768.719   -44668746.60049 -34770267.62849  16327767.1034   16327773.9104
 95  1  8 19 23 29.9790000  0  5 22 25 14 29 15
  15409351.430   -20599480.58749 -15999541.85949  15409348.7914   15409354.8314
  16016853.467   -25541507.93849 -19865221.79049  16016852.4774   16016858.7224
  14264464.258   -43707619.58649 -34032004.06849  14264460.5324   14264466.3094
  15852349.267   -34719610.77849 -27035386.48149  15852347.5504   15852353.1504
  16329520.200   -44659510.75749 -34763070.90349  16329524.5924   16329531.6664
 95  1  8 19 23 59.9780000  0  5 22 25 14 29 15
  15383521.214   -20735216.83749 -16105310.36449  15383519.3874   15383525.4934
  16017033.778   -25540557.48049 -19864481.19049  16017033.8234   16017038.5544
  14240673.995   -43832608.11449 -34129397.72049  14240675.9514   14240681.6074
  15827462.257   -34850400.47649 -27137300.51449  15827460.3154   15827463.9904
  16331327.979   -44650047.90249 -34755697.27849  16331325.5764   16331333.1464
 95  1  8 19 24 29.9780000  0  5 22 25 14 29 15
  15357774.343   -20870503.03649 -16210728.14949  15357775.2754   15357781.0054
  16017256.554   -25539400.22849 -19863579.43049  16017254.7964   16017259.7614
  14216970.255   -43957174.27049 -34226462.25149  14216971.6794   14216977.5064
  15802584.874   -34981126.80449 -27239165.17949  15802583.2374   15802587.8234
  16333167.487   -44640348.50049 -34748139.34749  16333170.9504   16333178.2144
 95  1  8 19 24 59.9780000  0  5 22 25 14 29 15
  15332123.625   -21005299.18149 -16315764.12249  15332124.6624   15332129.5004
  16017518.860   -25538023.84949 -19862506.95949  16017516.6284   16017521.3214
  14193346.483   -44081313.89649 -34323194.42049  14193348.6904   14193354.6064
  15777715.015   -35111794.92149 -27340984.47249  15777717.5094   15777722.9344
  16335063.624   -44630409.13449 -34740394.43849  16335062.9114   16335070.2764
 95  1  8 19 25 29.9780000  0  5 22 25 14 29 15
  15306561.402   -21139626.37649 -16420434.66349  15306563.1614   15306568.2834
  16017810.107   -25536465.65349 -19861292.79549  16017812.7644   16017817.6604
  14169806.085   -44205043.73349 -34419607.26949  14169803.8864   14169809.6014
  15752856.652   -35242431.47349 -27442779.18349  15752858.1834   15752863.1274
  16336992.766   -44620258.26049 -34732484.70849  16336994.3604   16337001.4284
 95  1  8 19 25 59.9780000  0  5 22 25 14 29 15
  15281092.774   -21273500.99949 -16524752.51449  15281087.5714   15281093.5124
  16018135.193   -25534757.30249 -19859961.64549  16018137.7104   16018143.1484
  14146331.736   -44328383.28849 -34515716.00549  14146332.6684   14146338.9484
  15728006.378   -35373026.97649 -27544541.90049  15728006.9054   15728011.5394
  16338963.851   -44609920.15049 -34724429.07549  16338961.4784   16338968.7044
 95  1  8 19 26 29.9780000  0  5 22 25 14 29 15
  15255703.252   -21406902.82549 -16628701.99749  15255701.3144   15255707.6534
  16018497.973   -25532878.89649 -19858497.97249  16018495.4464   16018499.5144
  14122940.702   -44451307.34049 -34611500.97849  14122941.2304   14122946.9594
  15703173.593   -35503528.55849 -27646231.43749  15703173.7064   15703178.2134
  16340965.979   -44599378.97149 -34716215.20749  16340967.6844   16340974.3974
 95  1  8 19 26 59.9780000  0  5 22 25 14 29 15
  15230407.295   -21539840.05249 -16732289.42549  15230403.1984   15230410.1304
  16018887.735   -25530823.17949 -19856896.12049  16018886.1804   16018891.3084
  14099631.783   -44573799.22149 -34706949.18949  14099632.0134   14099637.7604
  15678354.786   -35633922.62649 -27747837.20349  15678359.9174   15678364.2264
  16343012.645   -44588633.27049 -34707841.96949  16343012.1364   16343019.4884
 95  1  8 19 27 29.9780000  0  5 22 25 14 29 15
  15205191.178   -21672327.45149 -16835526.36049  15205192.7844   15205199.2464
  16019310.465   -25528595.02949 -19855159.91349  16019310.4134   16019316.1424
  14076402.711   -44695858.21649 -34802060.08849  14076404.8994   14076410.7544
  15653567.017   -35764198.54449 -27849350.88949  15653569.0654   15653573.8364
  16345094.712   -44577689.16049 -34699314.12449  16345095.4094   16345101.6644
 95  1  8 19 27 59.9780000  0  5 22 25 14 29 15
  15180069.530   -21804357.21749 -16938406.68149  15180068.8774   15180074.9144
  16019768.913   -25526185.57949 -19853282.45349  16019768.9484   16019774.1794
  14053260.034   -44817477.92949 -34896828.69649  14053261.3124   14053267.1324
  15628800.269   -35894358.05449 -27950773.87549  15628800.9454   15628805.9674
  16347219.488   -44566539.08649 -34690625.78749  16347217.1414   16347223.9254
 95  1  8 19 28 29.9780000  0  5 22 25 14 29 15
  15155029.914   -21935923.80449 -17040926.10649  15155032.6994   15155039.2134
  16020258.378   -25523611.13749 -19851276.41849  16020258.9404   16020263.7744
  14030200.392   -44938657.34049 -34991254.20349  14030201.7264   14030207.4774
  15604044.634   -36024446.83049 -28052141.74749  15604046.1494   15604050.6734
  16349376.406   -44555188.87749 -34681781.51349  16349376.5794   16349383.8774
 95  1  8 19 28 59.9780000  0  5 22 25 14 29 15
  15130090.476   -22067008.59149 -17143070.09849  15130087.5474   15130094.5044
  16020783.139   -25520869.72949 -19849140.29349  16020780.5414   16020786.0084
  14007230.414   -45059385.08349 -35085327.75949  14007228.0464   14007233.7794
  15579302.733   -36154471.82349 -28153459.91449  15579303.1804   15579307.6724
  16351575.629   -44543627.49449 -34672772.67549  16351576.7964   16351583.8704
 95  1  8 19 29 29.9780000  0  5 22 25 14 29 15
  15105237.342   -22197606.70549 -17244834.83249  15105236.0214   15105241.7214
  16021327.681   -25517970.51349 -19846881.17249  16021331.9764   16021336.4594
  13984340.984   -45179661.02749 -35179049.27049  13984340.3614   13984346.1464
  15554572.208   -36284421.79149 -28254719.62049  15554574.5064   15554578.3494
  16353819.928   -44531853.71849 -34663598.35049  16353817.5584   16353823.7234
 95  1  8 19 29 59.9780000  0  5 22 25 14 29 15
  15080476.460   -22327722.56749 -17346223.80249  15080474.9444   15080481.7294
  16021911.325   -25514924.52049 -19844507.70749  16021911.0564   16021917.0144
  13961539.711   -45299492.13649 -35272424.15649  13961537.1914   13961542.9564
  15529852.727   -36414313.33449 -28355933.81049  15529856.1034   15529861.1814
  16356099.664   -44519886.40449 -34654273.21549  16356094.4724   16356102.0194
 95  1  8 19 30 29.9780000  0  5 22 25 14 29 15
  15055814.350   -22457330.76649 -17447217.19449  15055811.3214   15055817.3864
  16022524.759   -25511709.80649 -19842002.75449  16022523.7804   16022528.3224
  13938820.776   -45418864.35849 -35365441.46849  13938821.2234   13938827.0374
  15505153.931   -36544119.42749 -28457081.40249  15505155.4314   15505159.9404
  16358406.877   -44507717.73749 -34644791.17849  16358409.8204   16358417.6924
 95  1  8 19 30 59.9780000  0  5 22 25 14 29 15
  15031238.143   -22586458.19149 -17547835.94649  15031239.1734   15031244.9364
  16023163.497   -25508337.62049 -19839375.10749  16023165.4314   16023171.3654
  13916185.930   -45537803.06249 -35458120.96949  13916187.9744   13916193.8634
  15480471.208   -36673831.68849 -28558155.88949  15480472.0324   15480476.5664
  16360758.535   -44495372.02649 -34635171.19749  16360759.0494   16360766.7654
 95  1  8 19 31 29.9780000  0  5 22 25 14 29 15
  15006765.996   -22715079.41649 -17648060.23849  15006764.1464   15006769.8424
  16023840.816   -25504796.93349 -19836616.16649  16023839.6864   16023844.5024
  13893643.167   -45656290.79249 -35550449.05749  13893640.9394   13893646.4044
  15455809.448   -36803437.78649 -28659147.65349  15455808.3104   15455812.7624
  16363144.729   -44482838.92049 -34625405.17549  16363144.4814   16363151.7184
 95  1  8 19 31 59.9780000  0  5 22 25 14 29 15
  14982389.420   -22843184.94449 -17747882.71849  14982386.8324   14982392.1284
  16024545.228   -25501082.87549 -19833722.15149  16024546.4144   16024551.3824
  13871180.514   -45774321.37149 -35642420.93349  13871180.3474   13871185.7884
  15431163.158   -36932955.11249 -28760070.22749  15431162.2944   15431166.8974
  16365566.938   -44470122.22349 -34615496.09749  16365564.7134   16365571.7574
 95  1  8 19 32 29.9780000  0  5 22 25 14 29 15
  14958106.664   -22970785.46849 -17847311.67449  14958104.2424   14958109.2624
  16025283.413   -25497210.12749 -19830704.46449  16025282.8834   16025288.2274
  13848802.811   -45891900.88649 -35734041.32749  13848805.7324   13848811.2104
  15406529.068   -37062392.74249 -28860930.70949  15406531.2454   15406535.2664
  16368021.547   -44457226.56549 -34605447.56049  16368018.7294   16368025.1654
 95  1  8 19 32 59.9780000  0  5 22 25 14 29 15
  14933913.877   -23097910.75849 -17946370.33449  14933912.4904   14933919.7694
  16026047.622   -25493207.12049 -19827585.24449  16026045.1484   16026049.2964
  13826516.737   -46009030.41449 -35825311.07949  13826516.5074   13826522.3574
  15381910.616   -37191775.30349 -28961748.27249  15381910.1564   15381915.4594
  16370501.758   -44444168.75549 -34595272.68649  16370503.5784   16370510.3644
 95  1  8 19 33 29.9770000  0  5 22 25 14 29 15
  14909809.438   -23224567.82549 -18045064.15749  14909811.4064   14909818.0454
  16026827.329   -25489089.80949 -19824376.97049  16026828.1874   16026834.2384
  13804307.943   -46125719.89249 -35916237.93649  13804310.9334   13804316.9414
  15357297.327   -37321118.28549 -29062535.01049  15357297.0424   15357301.8074
  16373017.692   -44430963.51549 -34584982.92849  16373016.5784   16373023.3744
 95  1  8 19 33 59.9770000  0  5 22 25 14 29 15
  14885804.478   -23350739.17949 -18143379.48449  14885801.2934   14885806.9674
  16027640.508   -25484814.13249 -19821045.33149  16027642.0854   16027647.3054
  13782193.824   -46241938.22649 -36006797.66349  13782195.0764   13782201.2154
  15332693.913   -37450389.30249 -29163265.66149  15332697.5474   15332702.1484
  16375567.597   -44417577.00849 -34574551.92949  16375564.4054   16375570.9494
 95  1  8 19 34 29.9770000  0  5 22 25 14 29 15
  14861887.333   -23476427.08049 -18241318.08449  14861883.6944   14861890.5184
  16028483.327   -25480395.82349 -19817602.51049  16028482.5394   16028487.9534
  13760169.904   -46357688.44449 -36096992.63149  13760169.1314   13760174.6944
  15308113.285   -37579580.67149 -29263934.25649  15308113.6684   15308118.3724
  16378137.940   -44404024.67849 -34563991.71249  16378143.1324   16378149.9524
 95  1  8 19 34 59.9770000  0  5 22 25 14 29 15
  14838062.941   -23601622.83549 -18338873.20949  14838060.3294   14838065.6534
  16029350.634   -25475834.17949 -19814048.06049  16029350.4114   16029356.6914
  13738227.460   -46472979.85249 -36186830.08249  13738229.4014   13738235.4374
  15283543.788   -37708689.54949 -29364538.57349  15283544.6514   15283548.9184
  16380754.675   -44390320.80949 -34553313.42549  16380750.8544   16380757.7714
 95  1  8 19 35 29.9770000  0  5 22 25 14 29 15
  14814340.750   -23726284.71849 -18436012.35049  14814338.1094   14814342.8004
  16030253.577   -25471095.51449 -19810355.60949  16030252.6224   16030257.0804
  13716380.568   -46587785.57349 -36276289.08149  13716383.0324   13716388.5994
  15259001.082   -37837677.30949 -29465048.50649  15258999.1464   15259003.7464
  16383389.318   -44376438.89649 -34542496.39449  16383391.9154   16383399.1364
 95  1  8 19 35 59.9770000  0  5 22 25 14 29 15
  14790716.567   -23850433.82249 -18532751.91849  14790712.9304   14790718.8914
  16031180.873   -25466213.47349 -19806551.44049  16031181.5514   16031187.2114
  13694626.815   -46702118.80349 -36365379.90649  13694626.2904   13694631.6784
  15234470.893   -37966566.18849 -29565481.38649  15234472.9744   15234477.2944
  16386059.165   -44362415.36649 -34531569.01749  16386060.7164   16386068.2394
 95  1  8 19 36 29.9770000  0  5 22 25 14 29 15
  14767188.372   -23974052.84049 -18629078.40549  14767188.3864   14767195.4314
  16032138.060   -25461180.04949 -19802629.31849  16032139.1674   16032144.9214
  13672959.061   -46815971.85149 -36454096.56249  13672960.4814   13672965.9494
  15209968.527   -38095341.71749 -29665825.95249  15209967.2664   15209972.2234
  16388759.213   -44348241.68449 -34520524.64749  16388758.1814   16388765.2004
 95  1  8 19 36 59.9770000  0  5 22 25 14 29 15
  14743766.514   -24097141.11349 -18724991.34449  14743766.7364   14743772.1274
  16033128.359   -25455991.07149 -19798586.01449  16033126.7004   16033132.5614
  13651387.420   -46929341.25949 -36542436.35249  13651387.5494   13651392.7904
  15185485.370   -38224004.81149 -29766082.89849  15185483.3114   15185488.8824
  16391485.689   -44333915.23849 -34509361.21349  16391484.7164   16391492.2164
 95  1  8 19 37 29.9770000  0  5 22 25 14 29 15
  14720441.586   -24219706.68949 -18820497.00249  14720442.1564   14720447.9934
  16034139.278   -25450666.16649 -19794436.76049  16034139.9344   16034145.2294
  13629908.384   -47042223.68149 -36630396.67549  13629906.3524   13629912.1844
  15161019.001   -38352566.71249 -29866261.00349  15161018.5564   15161024.5514
  16394239.162   -44319441.02149 -34498082.63949  16394238.1704   16394245.3024
 95  1  8 19 37 59.9770000  0  5 22 25 14 29 15
  14697218.929   -24341742.86049 -18915590.10149  14697219.8964   14697226.2304
  16035173.016   -25445221.95349 -19790194.55649  16035175.9564   16035182.1274
  13608518.735   -47154628.87549 -36717985.12849  13608516.2874   13608522.0034
  15136571.046   -38481042.48249 -29966371.99549  15136571.0934   15136576.0424
  16397014.972   -44304830.02349 -34486697.47749  16397018.6814   16397026.2704
 95  1  8 19 38 29.9770000  0  5 22 25 14 29 15
  14674093.895   -24463258.40549 -19010277.54149  14674095.9004   14674102.1084
  16036229.789   -25439681.64049 -19785877.45149  16036230.4454   16036235.7864
  13587214.658   -47266578.89049 -36805218.90649  13587213.1774   13587218.5674
  15112135.745   -38609452.26949 -30066431.57149  15112135.5414   15112139.9134
  16399823.021   -44290095.89449 -34475216.36749  16399822.9044   16399830.5904
 95  1  8 19 38 59.9770000  0  5 22 25 14 29 15
  14651079.605   -24584222.29049 -19104535.11749  14651077.3184   14651083.9904
  16037304.569   -25434018.53849 -19781464.64849  16037307.7004   16037313.5954
  13566002.307   -47378032.54649 -36892065.90749  13566004.0164   13566009.6504
  15087717.733   -38737767.26049 -30166417.28049  15087718.4774   15087722.6964
  16402652.599   -44275211.45749 -34463618.13949  16402654.8864   16402662.8684
 95  1  8 19 39 29.9770000  0  5 22 25 14 29 15
  14628172.751   -24704626.87249 -19198356.87849  14628165.4104   14628172.4444
  16038411.371   -25428228.18349 -19776952.72749  16038410.1854   16038415.6034
  13544891.462   -47488983.87449 -36978521.49149  13544890.8944   13544896.3884
  15063319.773   -38865988.50649 -30266329.94249  15063318.9314   15063322.9464
  16405514.640   -44260176.80349 -34451902.86849  16405516.0864   16405523.4884
 95  1  8 19 39 59.9770000  0  5 22 25 14 29 15
  14605352.016   -24824514.08549 -19291775.46149  14605352.1104   14605357.6024
  16039529.856   -25422347.21449 -19772370.18549  16039528.6254   16039534.6424
  13523865.699   -47599468.37149 -37064613.30849  13523866.1904   13523871.9634
  15038926.562   -38994155.23649 -30366200.11349  15038928.8944   15038933.5894
  16408395.097   -44245033.56049 -34440102.97949  16408397.4284   16408405.8424
 95  1  8 19 40 29.9770000  0  5 22 25 14 29 15
  14582634.329   -24943890.76849 -19384796.24849  14582635.4564   14582640.1634
  16040671.600   -25416354.63349 -19767700.67749  16040670.0004   16040674.5614
  13502932.551   -47709477.36149 -37150334.60549  13502932.4294   13502937.9944
  15014555.513   -39122248.94249 -30466013.40249  15014553.4344   15014558.4194
  16411305.377   -44229773.29749 -34428211.92549  16411301.8724   16411309.9414
 95  1  8 19 40 59.9770000  0  5 22 25 14 29 15
  14560022.486   -25062754.99749 -19477417.71649  14560016.0904   14560022.5524
  16041837.265   -25410223.53549 -19762923.23049  16041836.2214   16041841.6864
  13482089.728   -47819000.38549 -37235677.22349  13482090.9444   13482096.4444
  14990195.167   -39250261.05549 -30565763.10049  14990193.4474   14990198.1024
  16414233.370   -44214384.99249 -34416221.08249  16414230.4794   16414238.2144
 95  1  8 19 41 29.9770000  0  5 22 25 14 29 15
  14537506.993   -25181035.52449 -19569584.33249  14537507.4054   14537514.0684
  16043043.714   -25403890.18249 -19757988.16349  16043042.3004   16043046.1044
  13461352.698   -47927976.02349 -37320593.31049  13461353.4694   13461358.9454
  14965856.455   -39378128.35549 -30665399.95749  14965861.4814   14965866.5614
  16417197.183   -44198806.72149 -34404082.22549  16417195.2554   16417201.9424
 95  1  8 19 41 59.9770000  0  5 22 25 14 29 15
  14515101.670   -25298789.13249 -19661340.38649  14515100.8224   14515106.0314
  16044273.242   -25397413.79749 -19752941.63549  16044273.7764   16044279.5194
  13440708.166   -48036457.65849 -37405124.45549  13440710.2244   13440715.5234
  14941549.579   -39505892.08049 -30764956.10649  14941548.2474   14941553.3654
  16420186.508   -44183094.37649 -34391838.88749  16420185.2494   16420193.1184
 95  1  8 19 42 29.9770000  0  6 22 25 14 29 15 18
  14492810.274   -25415929.99049 -19752618.93549  14492808.4844   14492814.6804
  16045555.642   -25390701.90149 -19747711.63149  16045551.2724   16045556.6384
  13420174.487   -48144369.12249 -37489211.31949  13420175.0774   13420180.6334
  14917274.272   -39633466.64649 -30864364.85149  14917271.5464   14917276.8254
  16423214.416   -44167168.58949 -34379429.24849  16423215.5824   16423223.1224
  17286654.563     -447264.48459   -329860.75259  17286652.3904   17286658.9664
 95  1  8 19 42 59.9770000  0  6 22 25 14 29 15 18
  14470681.303   -25532236.18749 -19843247.10249  14470677.0344   14470681.8664
  16046909.003   -25383554.39449 -19742142.17749  16046911.5374   16046916.6494
  13399793.055   -48251488.89049 -37572681.27449  13399790.8484   13399796.5314
  14893069.641   -39760651.12649 -30963469.63549  14893069.3434   14893074.2494
  16426328.542   -44150827.41749 -34366695.92549  16426326.1204   16426332.4464
  17256631.198     -605021.39449   -452788.17149  17256631.3004   17256638.3144
 95  1  8 19 43 29.9760000  0  6 22 25 14 29 15 18
  14448701.179   -25647731.09649 -19933243.12849  14448699.4384   14448704.0154
  16048347.783   -25376023.94049 -19736274.33949  16048343.8694   16048349.9534
  13379555.847   -48357839.62149 -37655551.98049  13379553.0414   13379558.6884
  14868937.130   -39887470.39949 -31062289.84749  14868937.0554   14868941.2424
  16429506.486   -44134117.75749 -34353675.47249  16429505.2344   16429512.2514
  17226666.716     -762487.18649   -575488.72449  17226667.1494   17226673.0654
 95  1  8 19 43 59.9760000  0  6 22 25 14 29 15 18
  14426820.091   -25762709.01449 -20022836.29149  14426819.0164   14426824.1834
  16049791.896   -25368394.48549 -19730329.34849  16049796.0704   16049801.3364
  13359411.765   -48463705.65849 -37738044.99949  13359407.5234   13359413.0304
  14844820.870   -40014212.29549 -31161049.76949  14844818.3274   14844823.0764
  16432700.159   -44117326.58949 -34340591.46949  16432699.9844   16432707.6064
  17196700.412     -919953.33049   -698189.55149  17196702.5174   17196710.1554
 95  1  8 19 44 29.9760000  0  6 22 25 14 29 15 18
  14405009.551   -25877330.29449 -20112151.51649  14405007.3554   14405013.6384
  16051238.824   -25360847.33049 -19724448.50149  16051232.1954   16051237.9424
  13339319.282   -48569258.35049 -37820293.85449  13339321.6514   13339327.1914
  14820681.829   -40141058.11749 -31259890.65549  14820680.4904   14820685.0744
  16435873.524   -44100638.53049 -34327587.86149  16435875.8334   16435883.8354
  17166702.222    -1077600.68849   -821031.58349  17166703.0414   17166708.8544
 95  1  8 19 44 59.9760000  0  6 22 25 14 29 15 18
  14383276.477   -25991549.48549 -20201153.46949  14383272.9494   14383277.8404
  16052661.071   -25353362.89449 -19718616.50749  16052657.3754   16052661.3344
  13319305.334   -48674444.48149 -37902257.07949  13319305.0854   13319310.7234
  14796533.117   -40267967.16849 -31358780.81449  14796530.8534   14796535.1804
  16439036.878   -44084020.30749 -34314638.66749  16439038.5154   16439045.9634
  17136670.087    -1235410.42249   -944000.12549  17136672.4084   17136679.2674
 95  1  8 19 45 29.9760000  0  6 22 25 14 29 15 18
  14361629.434   -26105304.50149 -20289793.72549  14361625.6684   14361631.3114
  16054081.713   -25345884.58949 -19712789.27549  16054079.2384   16054085.3464
  13299367.788   -48779202.96249 -37983887.06749  13299370.1464   13299375.9174
  14772381.065   -40394868.42649 -31457664.90249  14772382.0074   14772387.1914
  16442197.354   -44067404.81449 -34301691.57249  16442200.3694   16442208.2774
  17106624.642    -1393321.52249  -1067047.65249  17106622.9804   17106629.7134
 95  1  8 19 45 59.9760000  0  6 22 25 14 29 15 18
  14340077.827   -26218518.53949 -20378012.42049  14340081.2494   14340087.4904
  16055513.984   -25338342.18649 -19706912.10649  16055515.4464   16055520.5394
  13279529.012   -48883470.60249 -38065134.57549  13279528.9214   13279534.5904
  14748247.726   -40521690.72349 -31556487.45349  14748248.1904   14748253.3804
  16445377.854   -44050720.72949 -34288691.03949  16445375.8024   16445382.6324
  17076567.260    -1551266.03949  -1190121.21949  17076567.6034   17076573.8714
 95  1  8 19 46 29.9760000  0  6 22 25 14 29 15 18
  14318634.386   -26331221.70149 -20465833.03649  14318634.0384   14318640.9124
  16056953.769   -25330772.28249 -19701013.51449  16056955.2524   16056961.6304
  13259772.512   -48987292.32749 -38146034.62849  13259772.1134   13259777.9424
  14724122.194   -40648474.48449 -31655279.98449  14724122.1594   14724127.1324
  16448553.842   -44034009.18049 -34275669.11149  16448555.6594   16448563.1404
  17046496.195    -1709287.52849  -1313254.75649  17046496.0884   17046503.0304
 95  1  8 19 46 59.9760000  0  6 22 25 14 29 15 18
  14297284.288   -26443406.38449 -20553249.63849  14297286.6864   14297293.1424
  16058398.756   -25323165.87649 -19695086.48449  16058403.0384   16058408.8374
  13240101.439   -49090656.93249 -38226578.48049  13240102.3354   13240108.2294
  14700003.475   -40775212.75049 -31754037.06549  14700004.8054   14700009.4794
  16451740.333   -44017262.41649 -34262619.74449  16451742.1584   16451749.8644
  17016417.555    -1867373.54649  -1436438.58849  17016413.9374   17016420.3604
 95  1  8 19 47 29.9760000  0  6 22 25 14 29 15 18
  14276036.263   -26555087.60549 -20640273.93349  14276034.4984   14276040.2844
  16059858.087   -25315526.86149 -19689134.05849  16059856.2624   16059862.1484
  13220518.187   -49193588.04249 -38306784.54549  13220515.7034   13220521.4634
  14675890.862   -40901935.01549 -31852781.67049  14675890.3084   14675894.9344
  16454932.342   -44000499.50149 -34249557.80049  16454931.6864   16454939.7734
  16986320.627    -2025533.20149  -1559679.78549  16986317.0864   16986323.4924
 95  1  8 19 47 59.9760000  0  6 22 25 14 29 15 18
  14254885.934   -26666255.46449 -20726898.24049  14254879.1904   14254885.1884
  16061321.112   -25307838.77549 -19683143.36949  16061319.7234   16061325.1114
  13201013.708   -49296074.17049 -38386643.87449  13201013.0664   13201018.6824
  14651782.524   -41028641.90149 -31951514.30449  14651778.4794   14651783.4174
  16458125.621   -43983721.68649 -34236484.24749  16458124.8264   16458132.5544
  16956207.326    -2183761.10649  -1682974.18349  16956206.7624   16956213.3064
 95  1  8 19 48 29.9760000  0  6 22 25 14 29 15 18
  14233822.347   -26776926.20649 -20813135.13949  14233819.7474   14233825.1424
  16062786.561   -25300116.92249 -19677126.35949  16062788.8274   16062795.0144
  13181595.695   -49398115.99549 -38466156.99149  13181595.1004   13181600.9774
  14627665.423   -41155353.29549 -32050250.44449  14627666.0454   14627670.7744
  16461319.380   -43966942.51149 -34223409.62549  16461318.2284   16461325.7374
  16926087.501    -2342056.19749  -1806320.93749  16926084.0384   16926091.2964
 95  1  8 19 48 59.9760000  0  6 22 25 14 29 15 18
  14212867.085   -26887057.33049 -20898951.59849  14212863.0854   14212868.6634
  16064274.270   -25292320.77549 -19671051.47849  16064272.4414   16064278.3244
  13162274.623   -49499647.36549 -38545272.35049  13162274.4404   13162280.1534
  14603564.727   -41282018.80749 -32148950.83749  14603562.8224   14603567.6774
  16464524.216   -43950106.56749 -34210290.76449  16464522.2054   16464529.2974
  16895964.151    -2500352.05749  -1929668.29649  16895961.7964   16895968.1634
 95  1  8 19 49 29.9760000  0  6 22 25 14 29 15 18
  14192015.403   -26996627.37049 -20984330.82849  14192011.7274   14192018.1524
  16065776.225   -25284419.13349 -19664894.37949  16065775.7444   16065781.1344
  13143055.968   -49600643.93149 -38623970.98349  13143055.4104   13143061.0914
  14579473.906   -41408595.35449 -32247581.90349  14579476.2504   14579481.0654
  16467739.973   -43933188.22649 -34197107.69349  16467741.1284   16467749.1604
  16865851.438    -2658609.19049  -2052985.50249  16865847.1174   16865852.4564
 95  1  8 19 49 59.9760000  0  6 22 25 14 29 15 18
  14171266.022   -27105672.30249 -21069300.87049  14171261.5024   14171266.5144
  16067289.369   -25276461.61149 -19658693.72349  16067290.6034   16067297.0934
  13123933.479   -49701139.26949 -38702279.04949  13123931.6984   13123937.3454
  14555404.350   -41535092.51949 -32346151.12049  14555404.4294   14555409.4344
  16470968.492   -43916222.83649 -34183887.96349  16470970.1624   16470977.4384
  16835739.289    -2816848.13249  -2176288.54349  16835734.2054   16835741.1514
 95  1  8 19 50 29.9760000  0  6 22 25 14 29 15 18
  14150616.516   -27214167.49349 -21153842.57449  14150616.0304   14150619.8324
  16068818.475   -25268429.34449 -19652434.85549  16068818.8694   16068824.6324
  13104907.793   -49801114.98449 -38780182.21649  13104907.1834   13104912.9344
  14531355.922   -41661474.25449 -32444630.40049  14531354.8654   14531359.7974
  16474208.268   -43899184.93549 -34170611.73349  16474211.3774   16474219.6664
  16805633.352    -2975032.67349  -2299549.20249  16805632.8074   16805639.0914
 95  1  8 19 50 59.9760000  0  6 22 25 14 29 15 18
  14130072.858   -27322134.46549 -21237972.67049  14130070.4684   14130076.1064
  16070358.599   -25260342.21449 -19646133.24949  16070358.0864   16070363.6534
  13085979.924   -49900591.15649 -38857696.13049  13085977.2444   13085982.9334
  14507328.326   -41787751.35549 -32543028.13749  14507325.4884   14507330.0354
  16477460.317   -43882100.89549 -34157299.55849  16477462.8424   16477470.7964
  16775537.290    -3133196.93549  -2422794.07949  16775535.6784   16775542.0054
 95  1  8 19 51 29.9760000  0  6 22 25 14 29 15 18
  14109634.498   -27429534.25949 -21321660.80649  14109632.1924   14109638.9674
  16071910.056   -25252174.40449 -19639768.76449  16071912.6054   16071917.9384
  13067144.314   -49999555.00249 -38934810.82849  13067145.2294   13067150.8014
  14483319.573   -41913894.73449 -32641321.69449  14483321.2754   14483325.7724
  16480724.625   -43864953.56649 -34143938.06449  16480726.7214   16480733.6634
  16745445.147    -3291331.14949  -2546015.55249  16745443.3514   16745449.7304
 95  1  8 19 51 59.9760000  0  6 22 25 14 29 15 18
  14089306.898   -27536356.35349 -21404898.79349  14089305.5584   14089310.3544
  16073484.740   -25243917.75549 -19633335.02949  16073484.3264   16073489.4784
  13048414.604   -50097989.33649 -39011512.92049  13048413.8344   13048419.5274
  14459341.518   -42039917.14949 -32739520.98549  14459339.4304   14459343.7734
  16483999.505   -43847736.64649 -34130522.33949  16484002.5694   16484010.5574
  16715347.981    -3449448.58349  -2669223.96349  16715354.5704   16715360.9464
 95  1  8 19 52 29.9760000  0  6 22 25 14 29 15 18
  14069085.163   -27642619.71849 -21487701.40549  14069083.9964   14069088.7484
  16075072.585   -25235585.70949 -19626842.57149  16075069.2694   16075074.8764
  13029781.324   -50195908.69549 -39087813.73049  13029780.3844   13029786.0454
  14435374.590   -42165853.89749 -32837653.52149  14435374.8984   14435379.6134
  16487294.335   -43830480.47649 -34117076.04349  16487286.9184   16487294.3454
  16685262.148    -3607600.49649  -2792459.24949  16685259.7394   16685266.2604
 95  1  8 19 52 59.9760000  0  6 22 25 14 29 15 18
  14048972.308   -27748302.64849 -21570051.74549  14048973.3944   14048978.1644
  16076672.615   -25227179.02749 -19620291.94849  16076669.1844   16076674.1554
  13011247.965   -50293294.83649 -39163699.04249  13011248.2674   13011254.0644
  14411429.519   -42291696.93749 -32935713.04149  14411427.8354   14411432.7034
  16490575.323   -43813182.40149 -34103597.09949  16490578.6864   16490585.6884
  16655153.665    -3765786.54549  -2915721.14449  16655157.4404   16655163.7664
 95  1  8 19 53 29.9750000  0  6 22 25 14 29 15 18
  14028974.816   -27853402.26149 -21651947.55149  14028972.5454   14028979.1834
  16078282.077   -25218695.49949 -19613681.44249  16078283.4114   16078288.8794
  12992813.348   -50390153.71149 -39239173.50149  12992816.6294   12992822.2444
  14387499.852   -42417441.45349 -33033695.78849  14387499.2034   14387503.4404
  16493881.067   -43795849.63049 -34090091.12249  16493875.8674   16493884.6524
  16625051.525    -3923997.14149  -3039002.15549  16625050.8844   16625057.5814
 95  1  8 19 53 59.9750000  0  6 22 25 14 29 15 18
  14009088.062   -27957907.61449 -21733380.27849  14009086.5664   14009091.8444
  16079916.315   -25210120.44449 -19606999.61549  16079915.5994   16079920.9634
  12974492.671   -50486457.84049 -39314215.69149  12974490.6594   12974496.3674
  14363592.298   -42543077.80849 -33131594.25549  14363590.8324   14363596.0804
  16497181.447   -43778470.45349 -34076548.98649  16497183.7714   16497190.7324
  16594942.633    -4082216.64449  -3162290.08749  16594943.2454   16594950.1614
 95  1  8 19 54 29.9750000  0  6 22 25 14 29 15 18
  13989323.503   -28061790.40149 -21814327.90549  13989318.4614   13989323.6074
  16081567.357   -25201446.69249 -19600240.87849  16081565.9134   16081571.5864
  12956273.788   -50582183.03849 -39388806.76249  12956274.7954   12956280.6034
  14339709.840   -42668565.26449 -33229376.69249  14339711.9904   14339716.8504
  16500504.923   -43761028.70049 -34062958.05849  16500502.5554   16500510.5724
  16564847.190    -4240383.48649  -3285536.97149  16564844.9824   16564851.5664
 95  1  8 19 54 59.9750000  0  6 22 25 14 29 15 18
  13969665.696   -28165053.76949 -21894792.87349  13969667.5344   13969672.9124
  16083238.828   -25192669.35549 -19593401.44349  16083236.1724   16083241.8144
  12938169.627   -50677328.31549 -39462945.94949  12938169.3824   12938175.1474
  14315859.154   -42793900.80349 -33327040.74449  14315861.0634   14315866.0904
  16503828.987   -43743519.56949 -34049314.63749  16503834.0194   16503843.0534
  16534763.668    -4398462.57949  -3408715.47149  16534763.0954   16534770.0694
 95  1  8 19 55 29.9750000  0  6 22 25 14 29 15 18
  13950131.193   -28267711.47649 -21974785.88349  13950131.5664   13950137.2734
  16084930.419   -25183763.10249 -19586461.54149  16084930.9554   16084936.7594
  12920171.516   -50771898.16649 -39536636.75249  12920172.9654   12920179.0394
  14292040.779   -42919087.56949 -33424588.87249  14292039.2384   14292044.1694
  16507190.950   -43725939.38749 -34035615.86749  16507178.9544   16507188.0874
  16504699.972    -4556453.51049  -3531825.26749  16504698.2614   16504705.4484
 95  1  8 19 55 59.9750000  0  6 22 25 14 29 15 18
  13930709.261   -28369792.65549 -22054329.66849  13930707.5964   13930714.1094
  16086639.943   -25174764.01049 -19579449.30649  16086643.3514   16086648.9314
  12902284.359   -50865922.10049 -39609902.16149  12902280.7624   12902286.8944
  14268238.563   -43044174.14849 -33522058.91849  14268235.7954   14268240.8434
  16510535.016   -43708320.85549 -34021887.20349  16510531.7984   16510540.5344
  16474646.657    -4714385.28549  -3654888.95449  16474645.0804   16474652.0394
 95  1  8 19 56 29.9750000  0  6 22 25 14 29 15 18
  13911395.149   -28471297.54749 -22133424.36349  13911391.4534   13911397.3754
  16088377.206   -25165661.78849 -19572356.68549  16088375.6654   16088380.6464
  12884492.120   -50959416.24949 -39682754.75849  12884489.4654   12884495.4394
  14244454.948   -43169156.85249 -33619448.02649  14244452.2774   14244456.7524
  16513894.434   -43690664.16849 -34008128.81349  16513892.0484   16513900.2784
  16444604.557    -4872265.22649  -3777912.23549  16444601.8074   16444608.2964
 95  1  8 19 56 59.9750000  0  6 22 25 14 29 15 18
  13892194.091   -28572195.11349 -22212045.85649  13892191.8804   13892196.4434
  16090128.637   -25156438.87949 -19565170.00849  16090130.0414   16090135.7874
  12866800.475   -51052369.13149 -39755185.58649  12866801.2014   12866807.1304
  14220691.579   -43294020.69049 -33716744.51049  14220691.6834   14220696.1194
  16517264.606   -43672956.60149 -33994330.80049  16517261.9924   16517270.4624
  16414566.660    -5030115.04349  -3900912.01049  16414563.7594   16414570.1964
 95  1  8 19 57 29.9750000  0  6 22 25 14 29 15 18
  13873109.273   -28672473.72649 -22290185.02349  13873108.6464   13873114.2844
  16091906.231   -25147105.69449 -19557897.41849  16091906.0974   16091912.9194
  12849217.403   -51144780.51449 -39827194.46449  12849216.1784   12849222.0794
  14196953.820   -43418763.68249 -33813946.82349  14196953.6404   14196958.7424
  16520639.036   -43655200.70349 -33980495.09749  16520641.7324   16520648.7734
  16384530.930    -5187950.94849  -4023900.95949  16384528.2324   16384534.5464
 95  1  8 19 57 59.9750000  0  6 22 25 14 29 15 18
  13854145.306   -28772131.60049 -22367840.48949  13854145.0224   13854150.0274
  16093694.605   -25137699.21349 -19550567.73649  16093696.3204   16093702.8304
  12831733.518   -51236650.26449 -39898781.29349  12831733.8574   12831739.7244
  14173239.571   -43543389.35849 -33911057.72949  14173238.5054   14173243.3524
  16524023.323   -43637414.27949 -33966635.60349  16524026.0944   16524033.3334
  16354500.537    -5345772.26449  -4146878.53849  16354496.1664   16354501.5804
 95  1  8 19 58 29.9750000  0  7 19 22 25 14 29 15 18
  17189642.112      -94373.71419
  13835298.383   -28871176.37149 -22445018.22049  13835296.8264   13835301.7774
  16095501.710   -25128237.04749 -19543194.64649  16095496.9414   16095503.1784
  12814352.707   -51327978.21649 -39969945.94249  12814354.7274   12814360.4314
  14149545.018   -43667884.03649 -34008066.55149  14149547.9754   14149552.4194
  16527416.838   -43619610.27849 -33952762.42649  16527413.9174   16527422.1664
  16324464.394    -5503589.53249  -4269852.96149  16324464.2494   16324470.0704
 95  1  8 19 58 59.9750000  0  7 19 22 25 14 29 15 18
  17157034.147     -265734.196 9   -170430.00659                  17157037.9584
  13816564.681   -28969633.72249 -22521738.21349  13816561.5964   13816567.0884
  16097300.024   -25118759.61449 -19535809.66549  16097300.9224   16097306.3064
  12797077.024   -51418768.09949 -40040691.31849  12797077.9614   12797084.0084
  14125876.108   -43792278.13049 -34104997.00649  14125876.3424   14125881.3614
  16530799.944   -43601813.19849 -33938894.64249  16530801.1194   16530808.9364
  16294433.901    -5661414.22949  -4392833.18849  16294431.0694   16294438.2764
 95  1  8 19 59 29.9750000  0  7 19 22 25 14 29 15 18
  17124458.981     -436912.10759   -303815.15249  17124456.6254   17124467.0004
  13797937.363   -29067495.45749 -22597994.07849  13797939.1974   13797945.4314
  16099116.492   -25109245.30749 -19528395.94149  16099110.9444   16099117.1494
  12779912.744   -51508986.31549 -40110991.23949  12779910.3334   12779915.9624
  14102226.402   -43916554.56049 -34201835.77349  14102227.0154   14102231.2084
  16534192.604   -43584004.69649 -33925017.94449  16534190.4414   16534197.0974
  16264401.664    -5819197.95749  -4515781.48249  16264405.6394   16264411.7874
 95  1  8 19 59 59.9750000  0  7 19 22 25 14 29 15 18
  17091926.545     -607891.09849   -437045.45249  17091922.2794   17091930.2904
  13779431.765   -29164745.55649 -22673773.35949  13779432.8704   13779438.2874
  16100931.458   -25099677.87649 -19520940.85449  16100931.3824   16100938.2254
  12762854.063   -51598613.55149 -40180830.65349  12762854.3334   12762860.5864
  14078607.769   -44040690.97449 -34298565.44049  14078605.2384   14078609.9394
  16537585.089   -43566171.61149 -33911122.09349  16537584.1144   16537591.0944
  16234393.511    -5976924.72949  -4638685.40749  16234391.5744   16234397.4534
 95  1  8 20  0 29.9750000  0  7 19 22 25 14 29 15 18
  17059428.265     -778657.33249   -570110.01349  17059427.2674   17059434.2434
  13761049.114   -29261370.07849 -22749065.17049  13761045.7424   13761050.9864
  16102771.246   -25090039.26649 -19513430.34849  16102765.6314   16102771.9754
  12745911.047   -51687642.57649 -40250203.93649  12745913.0134   12745918.7464
  14055011.751   -44164676.96449 -34395177.89949  14055011.3944   14055015.7954
  16540992.095   -43548300.84949 -33897196.88349  16540985.2114   16540991.7544
  16204386.433    -6134594.07149  -4761544.59649  16204388.4674   16204395.0624
 95  1  8 20  0 59.9750000  0  7 19 22 25 14 29 15 18
  17026968.929     -949234.68549   -703027.37749  17026967.2584   17026973.6544
  13742775.463   -29357385.49249 -22823882.34549  13742774.8844   13742780.2414
  16104608.227   -25080340.83449 -19505873.20049  16104611.7564   16104617.9634
  12729080.473   -51776100.99049 -40319132.58449  12729080.0434   12729085.7644
  14031441.753   -44288548.13849 -34491700.88849  14031439.7464   14031443.1244
  16544388.214   -43530414.23349 -33883259.30749  16544389.1254   16544395.6564
  16174393.102    -6292229.54549  -4884377.39349  16174390.9784   16174396.4074
 95  1  8 20  1 29.9750000  0  7 19 22 25 14 29 15 18
  16994545.326    -1119641.20349   -835811.59549  16994538.5584   16994546.9954
  13724616.735   -29452794.33349 -22898226.87949  13724618.5404   13724624.0704
  16106471.599   -25070579.53549 -19498266.98049  16106469.7504   16106475.7844
  12712351.989   -51864012.08049 -40387634.74049  12712350.9424   12712356.7944
  14007890.650   -44412306.28749 -34588135.80249  14007888.3504   14007893.8924
  16547794.591   -43512523.20949 -33869318.31449  16547792.8134   16547799.0584
  16144395.557    -6449850.05749  -5007198.52849  16144397.4324   16144402.8994
 95  1  8 20  1 59.9750000  0  7 19 22 25 14 29 15 18
  16962149.698    -1289884.45549   -968468.57749  16962143.9954   16962150.4044
  13706580.128   -29547585.91749 -22972090.40849  13706579.8754   13706585.9574
  16108337.039   -25060760.20549 -19490615.56549  16108338.0154   16108344.2724
  12695723.436   -51951382.04649 -40455715.24249  12695724.9434   12695730.8464
  13984363.421   -44535936.65449 -34684471.16449  13984362.7124   13984367.4454
  16551204.598   -43494627.18949 -33855373.48849  16551200.0834   16551208.4914
  16114402.993    -6607466.88349  -5130016.80049  16114403.2134   16114410.0584
 95  1  8 20  2 29.9750000  0  7 19 22 25 14 29 15 18
  16929768.613    -1459985.47449  -1101014.77749  16929774.5834   16929781.6024
  13688659.137   -29641770.61149 -23045481.05749  13688657.7864   13688663.6204
  16110211.603   -25050900.77249 -19482932.92449  16110214.2194   16110220.3264
  12679201.787   -52038210.81249 -40523374.02449  12679201.9954   12679208.2674
  13960858.139   -44659458.45149 -34780721.91749  13960857.4304   13960862.1354
  16554615.256   -43476742.63249 -33841437.60549  16554603.4744   16554611.0934
  16084406.383    -6765089.15149  -5252839.33649  16084408.8134   16084415.1164
 95  1  8 20  2 59.9740000  0  7 19 22 25 14 29 15 18
  16897445.692    -1629930.80049  -1233439.59749  16897434.9014   16897442.0434
  13670854.601   -29735337.75849 -23118390.51449  13670851.9044   13670857.6424
  16112099.084   -25040990.84949 -19475210.93849  16112099.6384   16112105.8014
  12662784.648   -52124482.87749 -40590599.01749  12662785.0154   12662791.0884
  13937372.648   -44782863.71749 -34876881.86449  13937373.5024   13937378.7654
  16557998.735   -43458863.59749 -33827505.94549  16558000.1124   16558012.3454
  16054415.875    -6922695.71449  -5375649.63149  16054417.5774   16054423.0564
 95  1  8 20  3 29.9740000  0  7 19 22 25 14 29 15 18
  16865108.519    -1799756.70649  -1365771.41049  16865117.6304   16865124.1764
  13653158.888   -29828324.57649 -23190847.74749  13653158.0494   13653163.4074
  16113993.447   -25031065.98549 -19467477.30849  16113988.3564   16113993.9804
  12646468.830   -52210223.38049 -40657409.80849  12646468.7344   12646475.0314
  13913909.747   -44906170.63149 -34972965.18849  13913909.6454   13913914.1604
  16561394.887   -43441014.94749 -33813598.04349  16561399.7264   16561409.7944
  16024419.740    -7080317.30049  -5498471.61949  16024423.4124   16024429.0334
 95  1  8 20  3 59.9740000  0  7 19 22 25 14 29 15 18
  16832832.353    -1969433.83549  -1497987.27149  16832830.3704   16832834.8774
  13635575.536   -29920726.26649 -23262849.05149  13635573.7694   13635579.8114
  16115879.729   -25021111.13249 -19459720.33449  16115882.8874   16115888.7334
  12630258.398   -52295405.26649 -40723785.31149  12630259.2884   12630265.5084
  13890464.109   -45029371.27049 -35068965.69049  13890464.9674   13890469.7244
  16564796.999   -43423189.56549 -33799708.22849  16564791.3894   16564800.4784
  15994429.214    -7237925.77649  -5621283.38949  15994431.0964   15994436.7204
 95  1  8 20  4 29.9740000  0  6 22 25 14 29 15 18
  13618088.701   -30012605.51549 -23334443.26149  13618090.2124   13618095.6744
  16117778.378   -25011162.95649 -19451968.56249  16117775.7934   16117781.9284
  12614146.957   -52380071.75049 -40789759.20449  12614147.8354   12614154.1584
  13867024.684   -45152539.60749 -35164941.02149  13867027.3544   13867032.1304
  16568169.980   -43405445.51249 -33785881.70949  16568168.2654   16568178.1804
  15964435.142    -7395560.89049  -5744115.91349  15964433.9124   15964439.8014
 95  1  8 20  4 59.9740000  0  6 22 25 14 29 15 18
  13600712.565   -30103921.11549 -23405598.27849  13600713.5364   13600719.0954
  16119675.642   -25001165.81949 -19444178.61149  16119678.5504   16119684.1744
  12598139.443   -52464201.89249 -40855315.16649  12598138.6614   12598144.5314
  13843607.873   -45275627.86149 -35260853.94649  13843604.3284   13843608.9084
  16571534.529   -43387744.64249 -33772088.86649  16571536.9244   16571545.3664
  15934440.420    -7553166.95549  -5866925.80849  15934442.8064   15934448.9064
 95  1  8 20  5 29.9740000  0  6 22 25 14 29 15 18
  13583455.358   -30194644.11949 -23476291.50849  13583449.4454   13583455.1694
  16121596.572   -24991094.24249 -19436330.66849  16121595.1664   16121601.1964
  12582237.879   -52547760.27349 -40920425.59549  12582238.1994   12582244.1974
  13820205.144   -45398594.66449 -35356672.22449  13820203.9984   13820209.3934
  16574903.661   -43370062.66649 -33758310.75949  16574901.6284   16574910.9874
  15904462.984    -7710698.63049  -5989677.74649  15904465.2574   15904470.9464
 95  1  8 20  5 59.9740000  0  6 22 25 14 29 15 18
  13566302.960   -30284737.01849 -23546493.78649  13566305.3584   13566311.1454
  16123532.915   -24980914.30349 -19428398.29549  16123532.2574   16123537.9404
  12566451.684   -52630720.36949 -40985069.82949  12566451.4964   12566457.3474
  13796829.931   -45521420.95449 -35452381.01549  13796831.4404   13796835.8744
  16578267.990   -43352376.88549 -33744529.69849  16578267.0624   16578277.3844
  15874503.683    -7868129.63749  -6112351.21949  15874506.8684   15874513.0464
 95  1  8 20  6 29.9740000  0  6 22 25 14 29 15 18
  13549284.020   -30374177.82949 -23616187.93349  13549285.0394   13549290.9864
  16125483.490   -24970642.50849 -19420394.34249  16125486.8014   16125492.6634
  12550775.589   -52713088.28049 -41049252.61849  12550776.9964   12550782.9494
  13773490.348   -45644096.05449 -35547971.99149  13773487.2484   13773491.8534
  16581631.389   -43334691.32149 -33730748.80749  16581632.3354   16581642.4914
  15844566.711    -8025469.76349  -6234953.87349  15844565.4904   15844572.5304
 95  1  8 20  6 59.9740000  0  6 22 25 14 29 15 18
  13532386.817   -30462990.44049 -23685392.56349  13532384.5984   13532390.3554
  16127450.308   -24960321.45849 -19412352.01649  16127450.7324   16127457.0064
  12535210.701   -52794886.19949 -41112991.25949  12535211.5314   12535217.5424
  13750170.415   -45766619.56149 -35643444.83649  13750171.4554   13750176.7194
  16584994.218   -43317033.92549 -33716989.85649  16584992.4134   16585002.0554
  15814631.677    -8182764.59649  -6357521.22149  15814634.1024   15814639.8054
 95  1  8 20  7 29.9740000  0  5 22 25 29 15 18
  13515604.236   -30551180.34649 -23754111.98349  13515603.3684   13515608.7654
  16129423.055   -24949965.50749 -19404282.46749  16129421.2554   16129427.7424
  13726885.139   -45888990.61449 -35738798.89349  13726884.6644   13726889.7194
  16588343.967   -43299406.69149 -33703254.40949  16588346.6694   16588356.7974
  15784705.250    -8340037.25149  -6480071.31249  15784705.4684   15784711.9974
 95  1  8 20  7 59.9740000  0  7 19 22 25 14 29 15 18
  16575725.148
  13498946.170   -30638713.94649 -23822319.98249  13498945.5924   13498951.7164
  16131401.351   -24939548.42449 -19396165.26749  16131403.1364   16131410.3404
  12504419.875      -92975.35659    -55065.48459  12504415.3134   12504422.2274
  13703631.637   -46011196.91049 -35834024.55749  13703630.3314   13703634.9484
  16591700.161   -43281786.17549 -33689524.20649  16591700.2684   16591709.8234
  15754780.517    -8497276.04549  -6602595.01849  15754784.2264   15754790.5534
 95  1  8 20  8 29.9740000  0  7 19 22 25 14 29 15 18
  16543749.635     -199400.91419   -114707.29559                  16543756.9384
  13482404.183   -30725635.08249 -23890050.75149  13482405.3574   13482410.7754
  16133391.795   -24929113.32049 -19388034.05049  16133388.6794   16133396.5374
  12489182.910     -173019.63649   -117437.63649  12489183.9054   12489190.1644
  13680402.939   -46133267.23949 -35929144.27849  13680400.9114   13680405.8804
  16595044.945   -43264207.14449 -33675826.32049  16595045.5874   16595055.0774
  15724864.109    -8654503.40549  -6725109.79749  15724865.3324   15724871.7264
 95  1  8 20  8 59.9740000  0  7 19 22 25 14 29 15 18
  16511786.613     -367363.00859   -245586.82149  16511786.8264   16511795.4664
  13465954.678   -30812083.75949 -23957413.35349  13465954.3864   13465960.1124
  16135353.119   -24918779.45949 -19379981.72049  16135355.3124   16135361.8324
  12474038.593     -252610.95749   -179456.84849  12474038.1294   12474044.3964
  13657174.724   -46255320.54849 -36024250.74049  13657174.6824   13657179.5634
  16598356.873   -43246788.38549 -33662253.31849  16598360.0804   16598369.7274
  15694929.456    -8811827.84649  -6847700.23249  15694926.8684   15694933.2814
 95  1  8 20  9 29.9740000  0  7 19 22 25 14 29 15 18
  16479840.530     -535232.85349   -376394.47649  16479843.1414   16479850.4774
  13449599.497   -30898001.42649 -24024362.19049  13449604.7994   13449610.6714
  16137314.269   -24908503.96849 -19371974.83449  16137310.3714   16137317.4834
  12458983.823     -331722.60049   -241102.28649  12458983.9244   12458990.0944
  13633959.094   -46377335.26349 -36119327.12549  13633956.5304   13633960.8554
  16601653.913   -43229490.74249 -33648774.69749  16601652.2204   16601661.1394
  15664985.809    -8969192.71449  -6970322.20049  15664981.4564   15664986.7734
 95  1  8 20  9 59.9740000  0  7 19 22 25 14 29 15 18
  16447933.611     -702926.03749   -507064.43849  16447932.0574   16447939.4374
  13433374.632   -30983307.43249 -24090834.41149  13433371.7774   13433377.3174
  16139276.977   -24898205.12749 -19363949.80949  16139270.4204   16139277.6754
  12444037.566     -410268.68349   -302307.02649  12444037.0644   12444043.0504
  13610764.077   -46499223.51749 -36214304.97349  13610761.7914   13610766.7864
  16604935.341   -43212238.05549 -33635331.09749  16604935.9924   16604944.5634
  15635045.219    -9126508.92249  -7092906.24949  15635045.7054   15635051.0404
 95  1  8 20 10 29.9740000  0  7 19 22 25 14 29 15 18
  16416054.801     -870427.41649   -637584.92249  16416057.2954   16416065.8274
  13417257.488   -31067998.27449 -24156827.27549  13417256.1044   13417260.5444
  16141227.893   -24887874.56149 -19355900.11249  16141236.3894   16141243.2214
  12429201.117     -488219.59249   -363047.99449  12429203.6054   12429209.5854
  13587597.555   -46620953.56249 -36309159.54349  13587596.8424   13587601.6624
  16608211.647   -43195020.74749 -33621915.07949  16608211.9504   16608220.9014
  15605122.772    -9283782.00949  -7215456.68749  15605117.7304   15605123.4834
 95  1  8 20 10 59.9740000  0  7 19 22 25 14 29 15 18
  16384217.669    -1037740.84049   -767958.96649  16384220.0874   16384226.0674
  13401258.022   -31152065.61149 -24222334.28349  13401257.8264   13401262.8094
  16143211.436   -24877505.46449 -19347820.37049  16143210.3794   16143216.5584
  12414483.581     -565573.74949   -423323.96349  12414483.6694   12414489.4354
  13564463.925   -46742527.56949 -36403892.53149  13564462.5814   13564467.2964
  16611482.533   -43177843.93149 -33608530.60849  16611480.3594   16611488.9604
  15575194.018    -9441031.51349  -7337988.76049  15575194.4424   15575199.9374
 95  1  8 20 11 29.9740000  0  7 19 22 25 14 29 15 18
  16352405.541    -1204918.78649   -898227.43649  16352406.7634   16352413.1074
  13385364.194   -31235561.48149 -24287395.99749  13385369.0124   13385374.9104
  16145180.931   -24867151.75149 -19339752.58449  16145180.8824   16145186.9354
  12399867.969     -642383.34049   -483175.59749  12399867.1734   12399873.3354
  13541348.302   -46863998.29649 -36498545.03949  13541347.0644   13541352.2444
  16614731.074   -43160771.58649 -33595227.55249  16614729.8694   16614738.2504
  15545263.012    -9598320.62749  -7460551.69949  15545263.0544   15545268.6984
 95  1  8 20 11 59.9740000  0  7 19 22 25 14 29 15 18
  16320623.424    -1371949.14849  -1028380.88849  16320621.1954   16320628.7614
  13369587.647   -31318510.08549 -24352031.26249  13369584.5894   13369590.6044
  16147141.739   -24856816.38149 -19331699.07349  16147147.9094   16147153.9464
  12385353.429     -718641.23149   -542597.34049  12385355.8984   12385361.7604
  13518254.649   -46985360.87449 -36593113.27849  13518253.0714   13518257.5714
  16617958.988   -43143807.77449 -33582009.06449  16617957.4944   16617965.6744
  15515321.460    -9755652.84949  -7583148.21949  15515323.0034   15515329.7224
 95  1  8 20 12 29.9740000  0  7 19 22 25 14 29 15 18
  16288866.374    -1538829.16549  -1158417.19549  16288865.5354   16288872.2674
  13353906.286   -31400902.79949 -24416233.37649  13353905.3234   13353911.0674
  16149108.844   -24846497.64449 -19323658.51949  16149111.1314   16149116.8724
  12370947.360     -794356.89849   -601596.56849  12370947.5804   12370953.4794
  13495175.584   -47106630.12449 -36687608.79149  13495176.3774   13495180.6714
  16621172.997   -43126952.40849 -33568875.08149  16621166.3894   16621173.8604
  15485373.691    -9913020.49949  -7705772.32749  15485377.8784   15485383.6034
 95  1  8 20 12 59.9730000  0  7 19 22 25 14 29 15 18
  16257148.211    -1705508.35649  -1288297.03849  16257147.1714   16257153.8294
  13338345.888   -31482688.42749 -24479962.43449  13338343.7014   13338348.6174
  16151079.839   -24836155.29949 -19315599.56849  16151079.2524   16151085.3924
  12356645.425     -869506.15949   -660154.43849  12356647.1904   12356653.1414
  13472123.300   -47227777.06849 -36782009.00749  13472122.5374   13472126.9204
  16624364.142                                    16624357.554    16624365.8594
  15455443.717   -10070338.37049  -7828357.66849  15455440.7794   15455446.4604
 95  1  8 20 13 29.9730000  0  6 19 22 25 14 29 18
  16225463.645    -1871980.52049  -1418015.56549  16225469.0784   16225475.8954
  13322895.580   -31563851.71649 -24543206.53749  13322897.0934   13322903.0404
  16153056.520   -24825774.38749 -19307510.58449  16153055.2124   16153060.2174
  12342456.821     -944077.43649   -718261.93449  12342456.5664   12342462.6254
  13449094.762   -47348801.16849 -36876313.50249  13449092.4204   13449097.3194
  15425513.358   -10227586.85049  -7950888.95949  15425516.8594   15425522.8044
 95  1  8 20 13 59.9730000  0  6 19 22 25 14 29 18
  16193817.611    -2038288.35749  -1547605.96849  16193821.4194   16193828.9094
  13307567.980   -31644429.14749 -24605994.15249  13307563.9674   13307569.5864
  16155033.109   -24815406.20849 -19299431.51249  16155028.4254   16155033.8844
  12328366.415    -1018119.81049   -775957.30249  12328366.7594   12328372.7354
  13426071.873   -47469764.85449 -36970570.91849  13426074.1694   13426078.6744
  15395599.364   -10384811.01249  -8073401.28749  15395598.9654   15395604.1124
 95  1  8 20 14 29.9730000  0  6 19 22 25 14 29 18
  16162212.458    -2204414.48249  -1677054.82549  16162210.8084   16162215.2584
  13292357.055   -31724370.68349 -24668286.24249  13292352.3574   13292357.6404
  16156983.375   -24805019.48949 -19291338.03949  16157003.6974   16157010.3484
  12314383.550    -1091605.50049   -833218.88549  12314383.1264   12314388.8714
  13403075.289   -47590625.50549 -37064748.04949  13403075.3814   13403079.6264
  15365694.017   -10541983.97749  -8195873.72549  15365689.7144   15365694.9014
 95  1  8 20 14 59.9730000  0  6 19 22 25 14 29 18
  16130641.763    -2370365.38049  -1806367.15149  16130631.9064   16130635.8334
  13277262.271   -31803689.76449 -24730093.31249  13277257.7654   13277263.7904
  16158982.566   -24794628.31849 -19283241.07149  16158981.7414   16158988.0864
  12300502.747    -1164535.86249   -890047.74749  12300504.8614   12300510.7914
  13380096.395   -47711382.82649 -37158844.65349  13380095.7624   13380100.0414
  15335789.685   -10699120.44749  -8318317.69249  15335787.6964   15335793.4524
 95  1  8 20 15 29.9730000  0  6 19 22 25 14 29 18
  16099089.410    -2536119.36949  -1935526.06249  16099091.7244   16099092.0314
  13262289.376   -31882370.65749 -24791403.10249  13262285.6154   13262291.7244
  16160966.470   -24784213.14749 -19275125.37849  16160964.1174   16160969.7234
  12286742.967    -1236885.31249   -946423.95049  12286737.6724   12286743.4094
  13357138.502   -47832009.44749 -37252839.42149  13357141.1224   13357145.3724
  15305891.326   -10856225.71749  -8440737.39149  15305891.7364   15305896.3304
 95  1  8 20 15 59.9730000  0  6 22 25 14 29 15 18
  13247436.114   -31960418.02549 -24852219.23049  13247434.1094   13247439.2504
  16162948.619   -24773771.27749 -19266988.89449  16162951.1234   16162957.1324
  12273077.463    -1308654.77849  -1002348.22349  12273079.9464   12273085.9014
  13334214.026   -47952478.79049 -37346711.63449  13334216.2384   13334220.9724
  16643232.268        5152.85019
  15276002.128   -11013297.43949  -8563130.93849  15276001.7124   15276007.5294
 95  1  8 20 16 29.9730000  0  6 22 25 14 29 15 18
  13232704.557   -32037825.15949 -24912536.47449  13232703.6024   13232709.2894
  16164942.998   -24763288.25349 -19258820.35449  16164946.0464   16164952.2054
  12259537.936    -1379822.74149  -1057803.78949  12259537.3074   12259543.2424
  13311325.840   -48072761.44449 -37440438.36549  13311327.2504   13311332.3444
  16646314.661       21401.413 9     13631.37159                  16646325.8984
  15246120.795   -11170312.13349  -8685480.05749  15246122.6214   15246128.1294
 95  1  8 20 16 59.9730000  0  6 22 25 14 29 15 18
  13218092.782   -32114618.97749 -24972375.81949  13218089.8664   13218095.5314
  16166947.348   -24752778.94049 -19250631.33449  16166945.5884   16166952.1684
  12246104.940    -1450398.11149  -1112797.59949  12246107.2554   12246113.1614
  13288467.950   -48192888.64849 -37534043.96849  13288467.9374   13288472.6564
  16649387.075       37578.25959     26236.65849  16649389.0024   16649399.4494
  15216255.154   -11327270.87649  -8807785.60049  15216254.6324   15216259.0914
 95  1  8 20 17 29.9730000  0  7 19 22 25 14 29 15 18
  15973304.706     -134728.34719
  13203586.893   -32190836.25849 -25031765.91649  13203586.0654   13203592.0744
  16168938.270   -24742283.29949 -19242452.96349  16168943.2904   16168948.9914
  12232784.590    -1520428.11649  -1167366.44449  12232781.1554   12232786.8664
  13265633.540   -48312890.50549 -37627551.89549  13265631.8434   13265636.9264
  16652448.224       53641.24449     38753.21349  16652447.1694   16652455.6464
  15186389.354   -11484206.44449  -8930073.05849  15186390.3354   15186395.5704
 95  1  8 20 17 59.9730000  0  8  4 19 22 25 14 29 15 18
  16817327.129    -1046529.39659   -799147.92059  16817320.7324   16817327.0734
  15941947.844     -299529.56859   -215292.04159  15941944.5934   15941949.2394
  13189194.044   -32266470.43349 -25090701.64549  13189193.8944   13189199.7204
  16170938.906   -24731799.65349 -19234283.92249  16170937.5974   16170944.0274
  12219560.117    -1589909.80749  -1221508.03549  12219559.0124   12219564.8784
  13242822.070   -48432761.25349 -37720957.64849  13242821.3974   13242826.4324
  16655480.952       69594.44649     51184.22649  16655482.9084   16655492.2204
  15156538.720   -11641101.41249  -9052328.88649  15156534.0134   15156539.4544
 95  1  8 20 18 29.9730000  0  8  4 19 22 25 14 29 15 18
  16798080.405    -1147640.34349   -877935.65449  16798079.8454   16798086.4894
  15910620.908     -464145.26749   -343563.93749  15910617.2524   15910624.8574
  13174918.147   -32341496.14649 -25149163.24949  13174916.6164   13174921.9124
  16172932.625   -24721316.04449 -19226114.92049  16172932.7204   16172938.5584
  12206445.053    -1658824.15249  -1275207.53749  12206445.2994   12206450.9354
  13220037.636   -48552495.18549 -37814256.79349  13220036.7174   13220041.7074
  16658496.358       85447.05749     63536.87349  16658498.9654   16658508.8664
  15126691.781   -11797930.54349  -9174533.40249  15126690.6994   15126696.8044
 95  1  8 20 18 59.9730000  0  8  4 19 22 25 14 29 15 18
  16778935.996    -1248231.03149   -956317.98149  16778939.1454   16778944.1744
  15879336.169     -628558.24249   -471677.92549  15879331.4514   15879339.2784
  13160764.065   -32415880.80149 -25207125.31949  13160762.6254   13160767.9034
  16174928.582   -24710811.05549 -19217929.25349  16174932.2734   16174937.8004
  12193444.864    -1727154.87849  -1328452.27249  12193442.1404   12193448.1564
  13197283.154   -48672067.82749 -37907430.25949  13197282.5734   13197287.6794
  16661500.351      101212.50249     75821.58349  16661499.0694   16661507.9884
  15096859.956   -11954684.01049  -9296678.94049  15096861.0304   15096867.6064
 95  1  8 20 19 29.9730000  0  8  4 19 22 25 14 29 15 18
  16759884.036    -1348352.73449  -1034334.89349  16759886.7854   16759893.4944
  15848075.884     -792824.75249   -599677.81949  15848072.9284   15848080.5014
  13146726.072   -32489649.36249 -25264607.32149  13146724.2654   13146730.1144
  16176928.822   -24700320.47849 -19209754.84349  16176927.8884   16176934.1464
  12180542.534    -1794939.03849  -1381271.11349  12180543.4894   12180549.2094
  13174553.191   -48791507.29949 -38000499.95849  13174553.9074   13174559.3784
  16664467.930      116848.97849     88005.82549  16664475.2414   16664485.2314
  15067038.241   -12111418.54049  -9418809.73849  15067035.8734   15067042.3354
 95  1  8 20 19 59.9730000  0  8  4 19 22 25 14 29 15 18
  16740930.446    -1447991.97049  -1111975.88049  16740925.4864   16740932.4564
  15816850.562     -956888.17849   -727519.42549  15816852.0894   15816859.4634
  13132810.557   -32562764.48049 -25321580.15749  13132811.7334   13132816.4564
  16178929.133   -24689807.36149 -19201562.87449  16178928.6714   16178935.0684
  12167758.708    -1862125.08649  -1433623.89249  12167758.3784   12167764.2664
  13151855.336   -48910787.38749 -38093445.45749  13151856.2214   13151861.1434
  16667436.221      132393.28649    100118.23349  16667432.6004   16667442.5504
  15037226.108   -12268099.94249  -9540899.15449  15037220.6464   15037226.9124
 95  1  8 20 20 29.9730000  0  8  4 19 22 25 14 29 15 18
  16722062.302    -1547130.34549  -1189226.59049  16722059.5824   16722066.7944
  15785674.800    -1120730.44049   -855188.73349  15785674.7074   15785680.3274
  13119024.289   -32635214.30949 -25378034.56049  13119024.1414   13119029.7324
  16180934.658   -24679261.49749 -19193345.38949  16180935.3344   16180941.9804
  12155092.821    -1928687.91549  -1485491.04449  12155091.6444   12155097.4154
  13129191.409   -49029899.28349 -38186259.90049  13129189.8254   13129194.4214
  16670379.051      147859.54949    112169.80849  16670376.0844   16670386.5544
  15007417.863   -12424724.87949  -9662944.53949  15007414.8014   15007421.1164
